     2              OBSERVATION DATA    GPS                 RINEX VERSION / TYPE
ASRINEXO V2.2.0 UX USGS 09-FEB-94 14:27                     PGM / RUN BY / DATE
                                                            COMMENT
Original Marker Name: juli Juli_94_USGS                     COMMENT
Campaign Name: salton linear array                          COMMENT
4-Character Station Name: JULI                              COMMENT
6-Character Antenna Code: ASHP12                            COMMENT
Vertical Measurement Point: EGP                             COMMENT
Vertical Offset to Rinex Ref. Point: 0.0593                 COMMENT
Radial Measurement Point: EGP                               COMMENT
Radial Offset to Rinex Ref. Point: 0.1425                   COMMENT
Antenna Height from Field Measurement: 1.4330 m             COMMENT
Additional Antenna Identification Info.:                    COMMENT
Ashtech L1/L2 Revision B                                    COMMENT
Original XYZ: -2394494.2800 -4784916.0100 3462325.3800      COMMENT
New XYZ position is based on association with SCEC monument COMMENT
E1C8X2Z0+0011. Position of that monument is believed to be  COMMENT
valid to within 1 m horizontally; vertical accuracy         COMMENT
should be no worse than 3-times this value.                 COMMENT
                                                            COMMENT
Revised Rinex header created by UCSD GPS archive for        COMMENT
GSAC on 17-Jul-2000 (2000:199) 23:48:48 GMT                 COMMENT
For assistance contact dagnew@ucsd.edu or hjohnson@ucsd.edu COMMENT
                                                            COMMENT
JULI JULI_94_USGS                                           MARKER NAME
                                                            MARKER NUMBER
KWC US GEOLOGICAL SURVEY                                    OBSERVER / AGENCY
765 ASHTECH L-XII 7A                                        REC # / TYPE / VERS
58 ASHTECH GEODETIC P                                       ANT # / TYPE
 -2394491.7215 -4784873.7846  3462301.9506                  APPROX POSITION XYZ
        1.3666        0.0000        0.0000                  ANTENNA: DELTA H/E/N
     1     2     0                                          WAVELENGTH FACT L1/2
     3    C1    L1    L2                                    # / TYPES OF OBSERV
    30                                                      INTERVAL
  1994     2     7     0    38   30.000000                  TIME OF FIRST OBS
  1994     2     7     8     3   30.000000                  TIME OF LAST OBS
                                                            END OF HEADER
 94  2  7  0 38 30.0000000  0  5  2 18  7 19 15
  21372030.661     5029234.23919    -43323.887
  25057608.479    21201792.44415     96526.932
  21958326.527   -10461640.04417   -156840.145
  21912550.617    17222566.34117     51445.274
  24497229.521    -5698577.18515   -123353.720
 94  2  7  0 39  0.0000000  0  6  2 18  7 19 27 15
  21368441.816     5010369.372 9    -58021.972 3
  25078328.185    21310686.701 5    181380.581
  21942742.655   -10543555.041 7   -220672.793 2
  21922044.714    17272483.659 7     90342.740 2
  20514578.603     9918786.94018      4681.445 1
  24487089.850    -5751803.538 4   -164829.787 1
 94  2  7  0 39 30.0000000  0  6  2 18  7 19 27 15
  21364818.944     4991343.514 9    -72847.282 5
  25098971.054    21419178.639 5    265919.479 1
  21927149.970   -10625478.904 7   -284509.546 4
  21931536.713    17322337.215 7    129189.674 3
  20515901.527     9925755.026 8     10107.842
  24476966.009    -5805066.962 5   -206333.747 1
 94  2  7  0 40  0.0000000  0  8  2 18 31  7 19 27 26 15
  21361199.939     4972319.349 9    -87671.303 6
  25119572.342    21527414.282 5    350258.854 1
  24814089.673    16403223.80814     44080.587
  21911599.435   -10707230.700 7   -348212.244 5
  21941036.866    17372274.844 7    168102.085 4
  20517267.501     9932908.319 8     15682.034
  24051435.648   -26424792.83416   -150443.759
  24466863.123    -5858210.695 5   -247744.387 1
 94  2  7  0 40 30.0000000  0  7  2 31  7 19 27 26 15
  21357584.682     4953306.617 9   -102486.400 7
  24833197.485    16503567.418 4    122276.732
  21896078.310   -10788775.632 7   -411753.711 6
  21950556.146    17422301.673 7    207084.011 4
  20518662.016     9940257.989 8     21403.170
  24036385.587   -26503890.690 6   -212075.884 1
  24456772.019    -5911212.954 5   -289044.792 1
 94  2  7  0 41  0.0000000  0  7  2 31  7 19 27 26 15
  21353974.761     4934343.350 9   -117262.966 7
  24852291.836    16603954.041 4    200500.097 1
  21880611.358   -10870064.079 8   -475095.339 6
  21960104.446    17472469.470 7    246175.783 5
  20520107.945     9947854.758 8     27322.244 1
  24021376.567   -26582763.850 6   -273535.488 1
  24446717.130    -5964014.766 4   -330188.999 1
 94  2  7  0 41 30.0000000  0  7  2 31  7 19 27 26 15
  21350382.258     4915462.375 9   -131975.395 8
  24871421.113    16704446.310 5    278805.818 1
  21865196.060   -10951052.007 8   -538202.775 7
  21969688.691    17522828.823 7    285416.827 5
  20521612.154     9955751.821 8     33478.632
  24006422.500   -26661367.592 5   -334785.149 1
  24436725.467    -6016565.909 5   -371137.839 1
 94  2  7  0 42  0.0000000  0  7  2 31  7 19 27 26 15
  21346808.912     4896698.858 9   -146596.333 8
  24890562.802    16805083.291 5    357224.312 1
  21849845.457   -11031725.168 8   -601064.944 7
  21979317.155    17573431.885 7    324847.744 5
  20523180.458     9963987.947 8     39896.378 2
  23991524.703      446491.05616    -25108.773
  24426778.683    -6068821.862 5   -411856.747 1
 94  2  7  0 42 30.0000000  0  6  2  7 19 27 26 15
  21343265.575     4878069.400 9   -161112.801 8
  21834555.172   -11112092.240 8   -663688.616 7
  21989002.670    17624314.900 7    364496.825 5
  20524816.036     9972591.277 8     46600.257 6
  23976685.486      368524.436 6    -85862.329 1
  24416897.853    -6120759.783 5   -452327.841 1
 94  2  7  0 43  0.0000000  0  6  2  7 19 27 26 15
  21339753.176     4859589.878 9   -175512.427 8
  21819314.923   -11192162.340 8   -726080.848 7
  21998737.891    17675497.008 7    404378.983 5
  20526525.692     9981574.145 8     53599.892 7
  23961900.292      290875.486 6   -146368.004 1
  24407069.517    -6172380.569 4   -492551.807 1
 94  2  7  0 43 30.0000000  0  6  2  7 19 27 26 15
  21336268.359     4841296.645 9   -189766.916 8
  21804142.966   -11271903.361 8   -788216.654 8
  22008542.513    17727016.459 7    444523.965 5
  20528312.935     9990967.752 8     60919.575 8
  23947192.653      213570.985 6   -206605.250 2
  24397309.864    -6223657.418 5   -532507.770 1
 94  2  7  0 44  0.0000000  0  6  2  7 19 27 26 15
  21332835.645     4823263.204 9   -203818.967 8
  21789042.510   -11351252.625 8   -850047.211 8
  22018420.764    17778923.514 7    484970.988 5
  20530190.205    10000832.410 8     68606.320 8
  23932560.593      136666.965 6   -266530.486 2
  24387624.589    -6274530.736 5   -572149.211 1
 94  2  7  0 44 30.0000000  0  6  2  7 19 27 26 15
  21329458.183     4805507.081 9   -217654.907 9
  21774028.814   -11430152.511 7   -911527.603 8
  22028375.493    17831230.413 7    525729.581 5
  20532162.210    10011196.126 8     76681.949 9
  23918009.806       60186.414 6   -326125.665 2
  24378030.780    -6324976.328 5   -611457.410 1
 94  2  7  0 45  0.0000000  0  6  2  7 19 27 26 15
  21326129.768     4788016.346 9   -231284.068 9
  21759107.124   -11508573.257 8   -972634.627 8
  22038396.925    17883903.387 7    566773.431 5
  20534228.230    10022056.629 8     85144.640 9
  23903540.233      -15853.284 6   -385377.413 2
  24368520.015    -6374992.659 4   -650431.047 1
 94  2  7  0 45 30.0000000  0  6  2  7 19 27 26 15
  21322847.580     4770778.904 9   -244715.850 9
  21744273.782   -11586512.192 8  -1033366.213 8
  22048483.233    17936910.593 7    608077.726 5
  20536384.727    10033387.391 8     93973.785 9
  23889150.255      -91444.038 6   -444279.285 2
  24359082.818    -6424585.264 5   -689074.630 1
 94  2  7  0 46  0.0000000  0  6  2  7 19 27 26 15
  21319621.033     4753812.465 9   -257936.461 9
  21729538.743   -11663939.580 8  -1093699.201 8
  22058639.781    17990272.214 7    649658.168 5
  20538631.821    10045200.430 8    103178.729 9
  23874857.140     -166561.277 6   -502812.170 2
  24349724.047    -6473726.742 4   -727366.680 2
 94  2  7  0 46 30.0000000  0  6  2  7 19 27 26 15
  21316436.638     4737078.052 9   -270976.269 9
  21714897.359   -11740870.765 7  -1153645.524 8
  22068857.548    18043971.514 7    691501.747 5
  20540965.376    10057464.011 8    112734.738 9
  23860651.085     -241235.152 6   -560999.579 3
  24340461.899    -6522436.582 5   -765322.329 2
 94  2  7  0 47  0.0000000  0  6  2  7 19 27 26 15
  21313296.252     4720582.069 9   -283830.285 9
  21700349.960   -11817328.288 8  -1213222.777 8
  22079140.609    18098010.436 7    733609.960 5
  20543383.532    10070165.243 8    122631.779 9
  23846522.286     -315479.499 6   -618852.312 3
  24331263.847    -6570720.110 5   -802945.800 2
 94  2  7  0 47 30.0000000  0  6  2  7 19 27 26 15
  21310207.400     4704351.547 9   -296477.442 9
  21685886.443   -11893324.143 8  -1272440.282 8
  22089499.068    18152434.752 7    776018.487 5
  20545882.242    10083319.524 8    132881.848 9
  23832467.836     -389303.204 6   -676377.264 3
  24322166.165    -6618562.658 5   -840225.692 2
 94  2  7  0 48  0.0000000  0  6  2  7 19 27 26 15
  21307162.948     4688371.408 9   -308929.498 9
  21671512.924   -11968869.776 8  -1331306.955 8
  22099933.255    18207254.674 7    818735.270 5
  20548483.541    10096956.825 8    143508.290 9
  23818506.441     -462719.123 6   -733584.442 3
  24313144.091    -6665964.607 5   -877162.203 2
 94  2  7  0 48 30.0000000  0  6  2  7 19 27 26 15
  21304176.625     4672647.851 9   -321181.631 9
  21657223.376   -12043966.626 8  -1389823.925 8
  22110432.226    18262453.560 7    861747.370 5
  20551174.358    10111096.527 8    154526.217 9
  23804614.568     -535717.655 6   -790466.395 3
  24304212.464    -6712926.011 5   -913755.471 2
 94  2  7  0 49  0.0000000  0  6  2  7 19 27 26 15
  21301232.304     4657189.461 9   -333227.117 9
  21643017.141   -12118622.545 8  -1447997.337 8
  22121010.853    18318020.891 7    905046.567 5
  20553961.229    10125740.537 8    165937.116 9
  23790800.581     -608282.338 6   -847010.241 3
  24295351.618    -6759444.918 5   -950003.890 2
 94  2  7  0 49 30.0000000  0  6  2  7 19 27 26 15
  21298338.017     4641972.687 9   -345084.341 9
  21628892.180   -12192836.571 8  -1505826.413 8
  22131649.198    18373940.766 7    948620.430 5
  20556840.376    10140885.999 8    177738.737 9
  23777079.860     -680402.792 6   -903207.982 3
  24286585.956    -6805521.247 5   -985907.459 2
 94  2  7  0 50  0.0000000  0  6  2  7 19 27 26 15
  21295488.490     4626984.241 9   -356763.644 9
  21614856.316   -12266591.683 8  -1563297.888 8
  22142353.947    18430189.439 7    992450.537 5
  20559814.137    10156520.527 8    189921.457 9
  23763444.280     -752054.473 6   -959040.443 3
  24277902.498    -6851152.579 5  -1021464.331 2
 94  2  7  0 50 30.0000000  0  6  2  7 19 27 26 15
  21292680.094     4612224.984 9   -368264.368 9
  21600912.400   -12339878.182 8  -1620404.216 8
  22153119.794    18486763.846 7   1036534.470 5
  20562877.416    10172608.704 8    202457.695 9
  23749898.607     -823236.736 6  -1014507.130 3
  24269309.756    -6896335.615 5  -1056671.807 2
 94  2  7  0 51  0.0000000  0  6  2  7 19 27 26 15
  21289913.729     4597683.031 9   -379595.780 9
  21587051.765   -12412705.759 8  -1677152.923 8
  22163947.279    18543673.230 7   1080879.397 5
  20566019.421    10189127.013 8    215329.061 9
  23736440.084     -893958.730 6  -1069615.122 3
  24260800.687    -6941072.414 5  -1091531.628 2
 94  2  7  0 51 30.0000000  0  6  2  7 19 27 26 15
  21287181.751     4583359.754 9   -390756.761 9
  21573282.058   -12485058.812 8  -1733531.911 8
  22174842.276    18600920.269 7   1125487.459 5
  20569249.445    10206088.823 8    228546.027 9
  23723072.339     -964210.034 6  -1124356.372 3
  24252369.324    -6985356.272 5  -1126038.479 2
 94  2  7  0 52  0.0000000  0  6  2  7 19 27 26 15
  21284504.454     4569267.323 9   -401737.884 9
  21559609.603   -12556929.927 8  -1789535.350 8
  22185802.778    18658511.536 7   1170363.733 5
  20572565.959    10223499.882 8    242113.082 9
  23709795.430    -1033984.688 6  -1178726.232 3
  24244021.333    -7029187.002 5  -1160192.220 2
 94  2  7  0 52 30.0000000  0  6  2  7 19 27 26 15
  21281863.283     4555409.478 9   -412536.215 9
  21546022.019   -12628327.435 8  -1845169.721 8
  22196826.627    18716456.604 7   1215515.704 5
  20575964.166    10241364.912 8    256033.888 9
  23696602.913    -1103291.847 6  -1232731.790 3
  24235767.537    -7072568.108 5  -1193995.612 2
 94  2  7  0 53  0.0000000  0  6  2  7 19 27 26 15
  21279278.082     4541804.003 9   -423137.889 9
  21532524.733   -12699253.545 8  -1900436.824 8
  22207919.547    18774759.955 7   1260946.832 5
  20579450.693    10259709.627 8    270328.460 9
  23683505.011    -1172117.568 6  -1286362.193 3
  24227600.291    -7115493.870 5  -1227444.160 2
 94  2  7  0 53 30.0000000  0  6  2  7 19 27 26 15
  21276733.654     4528440.157 9   -433551.284 9
  21519120.983   -12769698.905 8  -1955329.293 8
  22219085.167    18833418.335 7   1306654.620 5
  20583037.829    10278545.236 8    285005.548 9
  23670503.641    -1240473.350 6  -1339626.415 3
  24219513.120    -7157969.781 5  -1260542.226 2
 94  2  7  0 54  0.0000000  0  6  2  7 19 27 26 15
  21274237.282     4515316.993 9   -443777.117 9
  21505809.088   -12839661.224 8  -2009845.353 8
  22230317.731    18892458.445 7   1352659.870 5
  20586716.103    10297874.216 8    300067.095 9
  23657576.830    -1308361.842 6  -1392526.506 3
  24211510.910    -7199988.161 5  -1293283.787 2
 94  2  7  0 54 30.0000000  0  6  2  7 19 27 26 15
  21271785.190     4502428.386 9   -453820.204 9
  21492584.733   -12909145.079 8  -2063988.610 8
  22241631.809    18951874.979 7   1398958.417 5
  20590486.803    10317687.806 8    315506.242 9
  23644750.690    -1375798.506 6  -1445074.562 2
  24203610.029    -7241545.729 5  -1325666.281 2
 94  2  7  0 55  0.0000000  0  6  2  7 19 27 26 15
  21269374.349     4489762.288 9   -463689.900 9
  21479449.147   -12978152.260 8  -2117760.425 8
  22252999.999    19011648.835 6   1445535.408 5
  20594350.168    10337988.043 8    331324.615 9
  23632001.116    -1442793.715 6  -1497278.609 2
  24195790.992    -7282643.878 5  -1357690.734 2
 94  2  7  0 55 30.0000000  0  6  2  7 19 27 26 15
  21267004.489     4477310.061 9   -473392.938 9
  21466411.233   -13046669.523 8  -2171150.479 8
  22264440.678    19071784.017 6   1492393.934 5
  20598305.720    10358777.316 8    347524.042 9
  23619331.707    -1509346.330 6  -1549137.760 2
  24188057.156    -7323276.569 5  -1389352.515 2
 94  2  7  0 56  0.0000000  0  6  2  7 19 27 26 15
  21264676.391     4465080.815 9   -482922.236 9
  21453462.507   -13114729.806 8  -2224184.444 8
  22275951.240    19132262.795 6   1539520.198 5
  20602349.230    10380030.561 8    364085.001 9
  23606756.942    -1575457.850 6  -1600653.226 2
  24180419.464    -7363448.721 5  -1420655.436 2
 94  2  7  0 56 30.0000000  0  6  2  7 19 27 26 15
  21262391.912     4453084.686 9   -492269.878 9
  21440596.044   -13182345.411 8  -2276871.912 8
  22287526.886    19193065.973 7   1586899.231 5
  20606480.430    10401742.055 8    381003.040 9
  23594261.892    -1641125.340 6  -1651822.701 2
  24172857.829    -7403160.586 5  -1451599.705 2
 94  2  7  0 57  0.0000000  0  6  2  7 19 27 26 15
  21260158.129     4441328.477 9   -501430.552 9
  21427813.104   -13249519.396 8  -2329215.261 8
  22299158.084    19254203.914 6   1634539.144 5
  20610701.868    10423922.955 8    398286.847 9
  23581847.577    -1706337.383 6  -1702637.262 3
  24165391.138    -7442409.366 5  -1482183.056 2
 94  2  7  0 57 30.0000000  0  6  2  7 19 27 26 15
  21257964.727     4429808.031 9   -510407.534 9
  21415117.403   -13316253.822 8  -2381216.098 8
  22310859.284    19315686.643 7   1682447.724 5
  20615007.727    10446556.318 8    415923.214 9
  23569530.214    -1771089.736 6  -1753093.635 3
  24158010.517    -7481193.986 5  -1512404.771 2
 94  2  7  0 58  0.0000000  0  6  2  7 19 27 26 15
  21255815.335     4418528.446 9   -519196.821 9
  21402494.192   -13382550.525 8  -2432875.844 8
  22322623.469    19377517.101 7   1730627.246 5
  20619401.875    10469649.828 8    433918.143 9
  23557295.384    -1835361.881 6  -1803175.823 3
  24150724.152    -7519506.276 4  -1542258.477 2
 94  2  7  0 58 30.0000000  0  6  2  7 19 27 26 15
  21253711.392     4407458.883 9   -527822.450 9
  21389967.634   -13448386.911 8  -2484176.900 8
  22334459.216    19439690.251 7   1779073.797 4
  20623882.633    10493211.050 8    452277.514 9
  23545163.173    -1899151.375 6  -1852881.935 3
  24143507.458    -7557347.314 4  -1571744.967 2
 94  2  7  0 59  0.0000000  0  6  2  7 19 27 26 15
  21251641.475     4396578.523 9   -536300.666 9
  21377532.632   -13513743.791 8  -2535104.326 8
  22346346.766    19502195.655 7   1827779.234 4
  20628459.175    10517237.997 8    470999.797 9
  23533114.364    -1962458.762 6  -1902212.367 2
  24136408.312    -7594717.425 5  -1600864.454 2
 94  2  7  0 59 30.0000000  0  6  2  7 19 27 26 15
  21249602.017     4385870.867 9   -544644.284 9
  21365185.350   -13578615.507 8  -2585653.686 8
  22358309.504    19565029.174 7   1876740.365 4
  20633121.997    10541729.974 8    490084.441 9
  23521150.097    -2025285.883 6  -1951168.562 2
  24129386.573    -7631613.487 5  -1629614.537 2
 94  2  7  1  0  0.0000000  0  6  2  7 19 27 26 15
  21247596.105     4375330.743 9   -552857.369 9
  21352934.331   -13642996.423 8  -2635820.624 8
  22370325.966    19628175.021 7   1925944.873 4
  20637871.129    10566684.244 8    509529.298 9
  23509287.489    -2087642.110 6  -1999757.807 2
  24122451.414    -7668042.146 5  -1658000.441 2
 94  2  7  1  0 30.0000000  0  6  2  7 19 27 26 15
  21245628.477     4364966.304 9   -560933.564 9
  21340779.156   -13706873.420 8  -2685594.886 9
  22382401.606    19691641.797 7   1975399.455 4
  20642704.443    10592094.820 8    529329.746 9
  23497511.731    -2149548.075 6  -2047996.219 2
  24115612.639    -7703999.044 5  -1686018.803 2
 94  2  7  1  1  0.0000000  0  6  2  7 19 27 26 15
  21243691.518     4354808.209 9   -568848.964 9
  21328719.375   -13770254.114 8  -2734982.427 9
  22394542.151    19755446.001 7   2025116.950 4
  20647627.965    10617969.122 8    549491.526 9
  23485813.290    -2211010.027 6  -2095888.678 2
  24108857.835    -7739479.056 5  -1713665.509 2
 94  2  7  1  1 30.0000000  0  6  2  7 19 27 26 15
  21241803.246     4344874.690 9   -576589.372 9
  21316754.778   -13833140.346 8  -2783984.672 9
  22406749.670    19819600.050 7   2075107.082 4
  20652636.148    10644309.566 8    570016.505 9
  23474199.720    -2272031.941 6  -2143438.229 2
  24102193.629    -7774483.459 5  -1740941.599 2
 94  2  7  1  2  0.0000000  0  6  2  7 19 27 26 15
  21239957.903     4335196.366 9   -584130.922 9
  21304878.769   -13895527.613 8  -2832598.102 9
  22419027.400    19884108.155 7   2125373.094 4
  20657743.382    10671121.561 8    590908.971 9
  23462678.126    -2332600.204 6  -2190634.235 2
  24095630.152    -7809004.125 5  -1767840.773 2
 94  2  7  1  2 30.0000000  0  6  2  7 19 27 26 15
  21238165.924     4325774.741 9   -591472.451 9
  21293099.564   -13957426.624 8  -2880831.077 9
  22431369.736    19948982.477 7   2175924.473 4
  20662937.406    10698425.870 8    612185.027 9
  23451237.296    -2392703.714 6  -2237468.147 2
  24089150.828    -7843032.868 5  -1794356.621 2
 94  2  7  1  3  0.0000000  0  6  2  7 19 27 26 15
  21236418.853     4316589.829 9   -598629.527 9
  21281413.534   -14018844.345 8  -2928689.018 9
  22443783.752    20014205.242 7   2226747.347 4
  20668230.752    10726224.605 8    633846.357 9
  23439891.621    -2452334.709 6  -2283933.815 2
  24082762.311    -7876575.861 5  -1820494.046 2
 94  2  7  1  3 30.0000000  0  6  2  7 19 27 26 15
  21234711.355     4307616.397 9   -605621.809 9
  21269817.322   -14079784.248 8  -2976174.640 9
  22456250.591    20079755.258 6   2277825.241 4
  20673609.988    10754498.241 8    655877.744 9
  23428632.405    -2511481.085 6  -2330021.893 2
  24076479.260    -7909633.821 5  -1846253.452 2
 94  2  7  1  4  0.0000000  0  6  2  7 19 27 26 15
  21233039.712     4298832.823 9   -612466.160 9
  21258313.326   -14140263.473 8  -3023301.282 9
  22468789.201    20145617.412 6   2329146.348 4
  20679077.093    10783239.712 8    678273.687 9
  23417471.792    -2570142.828 6  -2375732.313 2
  24070275.505    -7942209.908 5  -1871637.334 2
 94  2  7  1  4 30.0000000  0  6  2  7 19 27 26 15
  21231403.026     4290228.906 9   -619170.519 9
  21246888.565   -14200268.151 8  -3070058.163 9
  22481381.473    20211789.933 6   2380709.322 4
  20684632.877    10812439.475 8    701026.745 9
  23406405.463    -2628313.595 6  -2421060.192 2
  24064178.356    -7974298.201 5  -1896641.183 2
 94  2  7  1  5  0.0000000  0  6  2  7 19 27 26 15
  21229799.436     4281805.547 9   -625734.170 9
  21235562.736   -14259792.666 8  -3116440.869 9
  22494031.096    20278260.071 6   2432504.192 4
  20690276.230    10842079.298 8    724122.680 9
  23395431.710    -2685989.010 6  -2466002.055 3
  24058156.125    -8005901.327 5  -1921266.991 2
 94  2  7  1  5 30.0000000  0  6  2  7 19 27 26 15
  21228237.607     4273576.634 9   -632146.319 9
  21224327.624   -14318832.604 8  -3162446.014 9
  22506735.431    20345032.567 6   2484534.652 4
  20695997.049    10872161.204 8    747563.117 9
  23384548.644    -2743162.028 6  -2510552.430 3
  24052233.066    -8037014.516 5  -1945510.964 2
 94  2  7  1  6  0.0000000  0  6  2  7 19 27 26 15
  21226706.627     4265549.975 9   -638400.846 9
  21213186.437   -14377388.842 8  -3208074.230 9
  22519511.177    20412121.643 6   2536811.820 4
  20701809.396    10902696.600 8    771356.929 9
  23373755.396    -2799840.681 6  -2554717.598 3
  24046415.353    -8067637.333 5  -1969372.906 2
 94  2  7  1  6 30.0000000  0  6  2  7 19 27 26 15
  21225216.029     4257722.606 9   -644500.089 9
  21202137.975   -14435458.721 8  -3253323.453 9
  22532332.251    20479526.332 6   2589334.907 4
  20707707.632    10933678.802 8    795498.869 9
  23363071.152    -2856025.934 6  -2598498.295 3
  24040676.966    -8097771.067 5  -1992853.725 2
 94  2  7  1  7  0.0000000  0  6  2  7 19 27 26 15
  21223766.802     4250094.441 9   -650444.115 9
  21191175.854   -14493049.314 8  -3298199.208 9
  22545225.275    20547254.545 6   2642110.093 4
  20713689.991    10965121.822 8    819999.912 9
  23352470.011    -2911725.991 6  -2641900.933 3
  24035032.683    -8127411.742 5  -2015950.302 2
 94  2  7  1  7 30.0000000  0  6  2  7 19 27 26 15
  21222353.790     4242665.950 9   -656232.551 9
  21180308.977   -14550157.781 8  -3342699.314 9
  22558168.425    20615318.402 6   2695146.831 4
  20719758.000    10997022.092 8    844857.253 9
  23341968.222    -2966944.723 6  -2684928.496 3
  24029495.187    -8156553.871 5  -2038658.461 2
 94  2  7  1  8  0.0000000  0  6  2  7 19 27 26 15
  21220977.893     4235433.112 9   -661868.523 9
  21169533.027   -14606777.919 8  -3386818.886 9
  22571183.165    20683715.942 6   2748443.567 4
  20725916.307    11029383.741 8    870074.109 9
  23331550.194    -3021681.320 7  -2727580.378 3
  24024039.384    -8185194.754 5  -2060975.982 2
 94  2  7  1  8 30.0000000  0  7  2 13  7 19 27 26 15
  21219636.891     4228386.958 9   -667359.032 9
  25006845.101    -9710569.39115   -408922.517
  21158855.499   -14662903.819 8  -3430553.337 9
  22584262.540    20752429.420 6   2801986.521 4
  20732164.641    11062201.973 8    895646.740 8
  23321222.254    -3075926.725 7  -2769849.539 2
  24018687.219    -8213337.394 5  -2082905.353 2
 94  2  7  1  9  0.0000000  0  7  2 13  7 19 27 26 15
  21218329.046     4221528.094 9   -672703.594 9
  24983641.345    -9832480.660 5   -503918.188
  21148266.110   -14718536.127 8  -3473903.176 9
  22597395.249    20821460.842 6   2855777.186 4
  20738494.459    11095482.816 8    921579.833 8
  23310991.956    -3129685.624 6  -2811739.565 3
  24013424.602    -8240982.035 5  -2104446.555 2
 94  2  7  1  9 30.0000000  0  7  2 13  7 19 27 26 15
  21217060.744     4214862.709 9   -677897.422 9
  24960455.156    -9954324.469 4   -598861.130 1
  21137776.702   -14773659.783 8  -3516856.663 9
  22610596.370    20890814.663 6   2909819.093 4
  20744919.341    11129246.686 8    947889.330 8
  23300858.431    -3182940.209 6  -2853236.665 3
  24008260.227    -8268121.784 5  -2125594.387 2
 94  2  7  1 10  0.0000000  0  7  2 13  7 19 27 26 15
  21215827.998     4208385.821 9   -682944.331 9
  24937279.161   -10076100.536 4   -693751.368 1
  21127384.816   -14828277.640 8  -3559416.009 9
  22623850.434    20960476.718 6   2964101.153 4
  20751437.249    11163505.349 8    974584.376 8
  23290822.819    -3235686.857 6  -2894337.933 3
  24003202.818    -8294757.161 5  -2146349.243 2
 94  2  7  1 10 30.0000000  0  7  2 13  7 19 27 26 15
  21214631.376     4202089.939 9   -687850.223 9
  24914123.941   -10197809.069 5   -788589.056 1
  21117084.307   -14882404.176 8  -3601592.517 9
  22637167.785    21030443.466 7   3018620.666 4
  20758049.411    11198238.322 8   1001649.022 8
  23280880.082    -3287936.385 7  -2935051.849 3
  23998212.413    -8320889.640 5  -2166712.200 2
 94  2  7  1 11  0.0000000  0  7  2 13  7 19 27 26 15
  21213466.173     4195975.899 9   -692614.415 9
  24890972.648   -10319442.541 4   -883368.175 1
  21106880.091   -14936042.520 8  -3643388.602 9
  22650542.186    21100724.821 6   3073385.330 3
  20764749.353    11233449.081 8   1029085.965 8
  23271033.459    -3339698.041 7  -2975385.606 3
  23993346.272    -8346512.775 5  -2186678.241 2
 94  2  7  1 11 30.0000000  0  7  2 13  7 19 27 26 15
  21212341.801     4190046.734 9   -697234.542 9
  24867839.913   -10440993.974 4   -978083.299 1
  21096763.085   -14989185.898 8  -3684799.018 9
  22663970.670    21171316.291 6   3128391.627 3
  20771537.704    11269129.696 8   1056889.024 8
  23261272.786    -3390962.235 6  -3015331.726 3
  23988570.938    -8371621.116 6  -2206243.141 2
 94  2  7  1 12  0.0000000  0  7  2 13  7 19 27 26 15
  21211249.867     4184314.276 9   -701701.389 9
  24844724.325   -10562458.880 4  -1072731.254 1
  21086746.659   -15041841.936 8  -3725829.694 9
  22677466.097    21242218.790 6   3183640.285 3
  20778413.354    11305257.715 8   1085040.715 8
  23251613.953    -3441733.490 7  -3054893.769 3
  23983887.310    -8396210.937 5  -2225404.076 2
 94  2  7  1 12 30.0000000  0  7  2 13  7 19 27 26 15
  21210196.487     4178780.285 9   -706013.595 9
  24821630.743   -10683838.283 5  -1167312.487 1
  21076816.484   -15094018.167 8  -3766486.474 9
  22691023.881    21313442.337 6   3239139.121 3
  20785373.066    11341827.150 8   1113536.369 8
  23242046.496    -3492016.213 6  -3094075.106 3
  23979305.522    -8420284.727 5  -2244162.852 2
 94  2  7  1 13  0.0000000  0  7  2 13  7 19 27 26 15
  21209186.756     4173458.716 9   -710160.267 9
  24798558.595   -10805138.205 5  -1261831.811 1
  21066978.764   -15145712.564 8  -3806767.798 9
  22704632.600    21384991.519 6   3294891.692 3
  20792414.681    11378850.492 8   1142385.706 8
  23232571.376    -3541808.309 6  -3132874.142 3
  23974824.674    -8443849.716 5  -2262525.180 2
 94  2  7  1 13 30.0000000  0  7  2 13  7 19 27 26 15
  21208213.239     4168362.450 9   -714131.394 9
  24775489.296   -10926352.325 4  -1356284.173 1
  21057234.940   -15196916.237 8  -3846666.749 9
  22718315.158    21456867.620 6   3350898.982 3
  20799553.609    11416332.633 8   1171592.560 8
  23223191.589    -3591109.144 7  -3171290.377 3
  23970429.927    -8466900.922 5  -2280487.189 2
 94  2  7  1 14  0.0000000  0  7  2 13  7 19 27 26 15
  21207285.502     4163486.921 9   -717930.485 9
  24752441.401   -11047477.609 4  -1450667.399 1
  21047582.402   -15247628.410 8  -3886182.698 9
  22732049.640    21529073.509 6   3407163.291 3
  20806774.470    11454283.023 8   1201164.301 8
  23213901.950    -3639916.383 7  -3209321.994 3
  23966142.025    -8489436.360 5  -2298047.228 2
 94  2  7  1 14 30.0000000  0  7  2 13  7 19 27 26 15
  21206395.298     4158811.725 9   -721573.500 9
  24729407.897   -11168512.637 4  -1544980.263 1
  21038029.965   -15297849.148 8  -3925315.740 9
  22745857.900    21601608.150 6   3463683.766 3
  20814087.247    11492707.167 8   1231105.188 8
  23204711.123    -3688223.226 7  -3246963.701 4
  23961962.379    -8511456.012 5  -2315205.401 2
 94  2  7  1 15  0.0000000  0  7  2 13  7 19 27 26 15
  21205542.568     4154319.858 9   -725073.654 9
  24706385.485   -11289458.809 5  -1639223.828 1
  21028566.087   -15347576.235 8  -3964064.098 9
  22759715.597    21674455.067 6   3520447.567 3
  20821486.875    11531596.690 7   1261408.684 8
  23195609.813    -3736031.212 7  -3284216.703 4
  23957863.646    -8532962.575 5  -2331963.737 2
 94  2  7  1 15 30.0000000  0  7  2 13  7 19 27 26 15
  21204716.101     4149983.552 9   -728452.600 9
  24683382.500   -11410305.766 4  -1733390.141 1
  21019195.834   -15396812.860 8  -4002430.279 9
  22773636.220    21747598.393 6   3577442.328 3
  20828971.373    11570940.603 7   1292066.295 8
  23186614.511    -3783324.075 7  -3321068.280 4
  23953860.817    -8553947.045 5  -2348315.274 2
 94  2  7  1 16  0.0000000  0  7  2 13  7 19 27 26 15
  21203918.473     4145789.954 9   -731720.350 9
  24660413.661   -11531053.077 4  -1827478.870 1
  21009919.326   -15445565.180 8  -4040419.090 9
  22787613.593    21821034.329 6   3634665.099 3
  20836547.488    11610731.630 8   1323072.265 8
  23177716.251    -3830088.970 7  -3357508.458 4
  23949977.366    -8574410.326 5  -2364260.711 2
 94  2  7  1 16 30.0000000  0  7  2 13  7 19 27 26 15
  21203149.415     4141751.657 9   -734867.066 9
  24637457.983   -11651694.272 4  -1921484.883 1
  21000737.402   -15493824.150 8  -4078023.476 9
  22801641.902    21894758.979 6   3692112.828 3
  20844205.117    11650985.387 8   1354438.821 8
  23168912.965    -3876327.271 7  -3393538.310 4
  23946189.158    -8594347.312 5  -2379796.033 2
 94  2  7  1 17  0.0000000  0  7  2 13  7 19 27 26 15
  21202415.014     4137874.050 9   -737888.576 9
  24614521.072   -11772233.650 5  -2015411.575 1
  20991644.817   -15541580.633 8  -4115236.299 9
  22815723.783    21968754.721 6   3749771.787 3
  20851954.602    11691705.306 8   1386168.598 8
  23160213.318    -3922042.919 7  -3429160.903 4
  23942487.291    -8613763.740 5  -2394925.689 2
 94  2  7  1 17 30.0000000  0  7  2 13  7 19 27 26 15
  21201708.942     4134169.799 9   -740775.006 9
  24591598.161   -11892668.928 5  -2109257.133 1
  20982658.328   -15588835.120 8  -4152057.965 9
  22829852.942    22043031.369 6   3807649.666 3
  20859796.034    11732906.387 8   1418273.332 8
  23151610.474    -3967242.796 7  -3464381.586 4
  23938891.190    -8632658.614 5  -2409648.935 2
 94  2  7  1 18  0.0000000  0  7  2 13  7 19 27 26 15
  21201038.337     4130662.221 9   -743508.172 9
  24568706.249   -12012997.317 5  -2203019.376 1
  20973759.528   -15635574.906 8  -4188478.550 9
  22844046.676    22117604.091 6   3865758.242 3
  20867725.244    11774600.702 8   1450762.398 8
  23143107.850    -4011934.726 6  -3499206.493 4
  23935399.927    -8651031.167 5  -2423965.245 2
 94  2  7  1 18 30.0000000  0  7  2 13  7 19 27 26 15
  21200410.181     4127356.423 9   -746084.134 9
  24545827.407   -12133218.517 5  -2296698.086 2
  20964962.269   -15681802.874 8  -4224500.345 9
  22858294.792    22192471.407 6   3924096.352 3
  20875756.115    11816781.898 8   1483630.839 8
  23134699.151    -4056128.701 7  -3533643.318 4
  23931999.142    -8668882.656 5  -2437875.516 2
 94  2  7  1 19  0.0000000  0  7  2 13  7 19 27 26 15
  21199820.550     4124247.282 9   -748506.822 9
  24522963.855   -12253331.217 5  -2390292.312 1
  20956265.769   -15727532.513 8  -4260133.801 9
  22872598.370    22267650.221 6   3982677.196 3
  20883865.411    11859415.987 8   1516852.215 8
  23126383.508    -4099824.539 6  -3567692.035 4
  23928702.354    -8686212.581 5  -2451379.278 2
 94  2  7  1 19 30.0000000  0  7  2 13  7 19 27 26 15
  21199262.006     4121333.575 9   -750777.248 9
  24500130.672   -12373323.596 5  -2483792.859 1
  20947656.029   -15772763.171 8  -4295378.470 9
  22886966.883    22343155.552 6   4041512.499 3
  20892062.006    11902486.333 8   1550413.500 8
  23118163.798    -4143018.696 7  -3601349.808 4
  23925505.457    -8703011.129 5  -2464469.101 2
 94  2  7  1 20  0.0000000  0  7  2 13  7 19 27 26 15
  21198743.965     4118591.919 9   -752913.600 9
  24477323.811   -12493204.164 5  -2577206.181 1
  20939140.035   -15817501.911 8  -4330239.822 9
  22901394.874    22418959.776 6   4100580.671 3
  20900334.809    11945954.763 8   1584284.991 8
  23110036.155    -4185720.123 6  -3634623.650 4
  23922407.102    -8719287.920 5  -2477152.319 2
 94  2  7  1 20 30.0000000  0  7  2 13  7 19 27 26 15
  21198255.363     4116019.979 9   -754917.716 9
  24454532.090   -12612968.133 5  -2670528.563 2
  20930719.794   -15861755.737 8  -4364723.306 9
  22915882.105    22495062.715 6   4159881.626 3
  20908677.943    11989812.174 8   1618459.574 8
  23102008.252    -4227922.556 6  -3667508.670 4
  23919406.749    -8735040.268 5  -2489426.841 2
 94  2  7  1 21  0.0000000  0  7  2 13  7 19 27 26 15
  21197793.593     4113617.555 9   -756789.723 9
  24431763.482   -12732606.508 5  -2763753.161 1
  20922393.029   -15905504.466 8  -4398813.207 9
  22930419.521    22571467.389 6   4219417.680 3
  20917105.169    12034067.720 8   1652944.380 8
  23094071.667    -4269606.709 6  -3699989.831 3
  23916517.769    -8750260.266 5  -2501286.552 2
 94  2  7  1 21 30.0000000  0  7  2 13  7 19 27 26 15
  21197370.226     4111368.492 9   -758542.243 9
  24409016.130   -12852118.488 5  -2856879.350 1
  20914167.683   -15948735.779 8  -4432499.942 9
  22945005.893    22648148.003 6   4279168.754 3
  20925605.994    12078753.531 8   1687764.465 8
  23086239.979    -4310770.145 6  -3732065.203 3
  23913717.708    -8764948.729 5  -2512732.154 2
 94  2  7  1 22  0.0000000  0  7  2 13  7 19 27 26 15
  21196971.652     4109282.493 9   -760167.700 9
  24386300.136   -12971504.405 5  -2949907.291 1
  20906036.862   -15991465.248 8  -4465795.625 9
  22959646.647    22725100.501 6   4339131.715 3
  20934197.327    12123892.109 8   1722937.353 8
  23078512.288    -4351409.860 7  -3763732.528 3
  23911023.053    -8779108.154 5  -2523765.432 2
 94  2  7  1 22 30.0000000  0  7  2 13  7 19 27 26 15
  21196604.076     4107362.336 9   -761663.926 9
  24363613.431   -13090762.238 5  -3042835.320 1
  20898002.904   -16033689.441 8  -4498697.575 9
  22974345.352    22802325.688 6   4399307.128 3
  20942879.436    12169512.491 8   1758485.689 8
  23070873.607    -4391523.378 6  -3794989.804 3
  23908429.429    -8792738.270 5  -2534386.240 2
 94  2  7  1 23  0.0000000  0  7  2 13  7 19 27 26 15
  21196269.958     4105600.981 9   -763036.400 9
  24340937.819   -13209887.169 5  -3135659.831 1
  20890062.631   -16075406.055 8  -4531204.009 9
  22989090.434    22879809.051 6   4459683.728 3
  20951654.362    12215631.988 8   1794422.939 8
  23063341.621    -4431119.083 6  -3825843.610 3
  23905939.023    -8805835.375 5  -2544591.845 2
 94  2  7  1 23 30.0000000  0  7  2 13  7 19 27 26 15
  21195968.037     4104004.721 9   -764280.238 9
  24318297.673   -13328878.122 5  -3228380.111 1
  20882214.843   -16116643.378 8  -4563336.989 9
  23003883.003    22957548.771 6   4520260.075 3
  20960524.381    12262248.376 8   1830747.374 8
  23055898.194    -4470205.912 6  -3856300.883 3
  23903551.955    -8818400.560 5  -2554382.823 2
 94  2  7  1 24  0.0000000  0  7  2 13  7 19 27 26 15
  21195697.354     4102587.828 9   -765384.313 9
  24295684.148   -13447731.506 5  -3320993.095 1
  20874459.482   -16157401.504 8  -4595096.557 9
  23018731.184    23035560.468 6   4581048.377 3
  20969485.747    12309340.433 8   1867442.469 7
  23048554.957    -4508777.635 6  -3886356.752 3
  23901262.141    -8830432.019 5  -2563757.979 2
 94  2  7  1 24 30.0000000  0  7  2 13  7 19 27 26 15
  21195460.218     4101338.555 9   -766357.773 9
  24273089.060   -13566443.697 5  -3413496.018 1
  20866796.817   -16197667.311 8  -4626472.492 9
  23033621.905    23113848.915 6   4642052.308 3
  20978534.653    12356891.409 8   1904495.145 7
  23041320.336    -4546835.073 6  -3916011.862 4
  23899066.880    -8841928.064 5  -2572715.939 2
 94  2  7  1 25  0.0000000  0  7  2 13  7 19 27 26 15
  21195252.582     4100261.930 9   -767196.688 9
  24250523.802   -13685008.846 5  -3505884.496 1
  20859229.846   -16237447.637 8  -4657470.149 9
  23048580.889    23192435.122 6   4703288.259 3
  20987665.492    12404886.782 8   1941894.112 7
  23034176.431    -4584377.480 6  -3945265.695 4
  23896988.659    -8852884.303 5  -2581253.250 2
 94  2  7  1 25 30.0000000  0  7  2 13  7 19 27 26 15
  21195083.979     4099351.775 9   -767905.904 9
  24227990.651   -13803426.362 5  -3598157.822 2
  20851754.161   -16276730.773 8  -4688080.377 9
  23063596.504    23271338.931 6   4764771.696 3
  20996882.401    12453312.969 8   1979628.784 7
  23027133.048    -4621400.895 6  -3974115.076 4
  23895000.585    -8863301.756 5  -2589370.768 2
 94  2  7  1 26  0.0000000  0  7  2 13  7 19 27 26 15
  21194940.738     4098597.199 9   -768493.877 9
  24205491.497   -13921693.056 5  -3690313.655 2
  20844373.660   -16315501.919 8  -4718291.639 9
  23078674.716    23350569.058 6   4826509.412 3
  21006181.273    12502171.632 8   2017700.449 7
  23020184.368    -4657911.007 6  -4002564.491 4
  23893115.880    -8873179.106 5  -2597067.348 2
 94  2  7  1 26 30.0000000  0  7  2 13  7 19 27 26 15
  21194824.119     4097998.637 9   -768960.303 9
  24183011.500   -14039801.690 5  -3782346.399 2
  20837097.338   -16353760.220 8  -4748103.297 9
  23093812.646    23430123.484 6   4888499.843 3
  21015565.047    12551481.438 8   2056123.652 7
  23013332.431    -4693915.299 6  -4030619.803 4
  23891347.764    -8882511.280 5  -2604339.222 2
 94  2  7  1 27  0.0000000  0  7  2 13  7 19 27 26 15
  21194736.249     4097553.910 9   -769306.857 9
  24160569.456   -14157756.663 5  -3874259.277 2
  20829912.721   -16391509.424 8  -4777518.255 9
  23109012.334    23509976.740 6   4950723.109 3
  21025031.384    12601241.265 7   2094897.507 7
  23006571.512    -4729419.474 6  -4058285.394 4
  23889678.100    -8891304.379 5  -2611190.919 2
 94  2  7  1 27 30.0000000  0  7  2 13  7 19 27 26 15
  21194685.075     4097263.232 9   -769533.349 9
  24138149.597   -14275556.368 5  -3966051.260 2
  20822823.829   -16428742.069 8  -4806530.674 9
  23124252.043    23590105.820 6   5013161.333 3
  21034584.240    12651446.356 8   2134018.347 7
  22999914.441    -4764421.055 6  -4085559.346 4
  23888099.723    -8899558.894 5  -2617622.990 2
 94  2  7  1 28  0.0000000  0  7  2 13  7 19 27 26 15
  21194665.199     4097148.501 9   -769622.764 9
  24115766.672   -14393194.896 5  -4057717.596 2
  20815839.504   -16465458.664 8  -4835141.013 9
  23139560.166    23670496.929 6   5075803.732 3
  21044226.825    12702101.453 8   2173489.820 7
  22993350.185    -4798901.628 7  -4112427.327 4
  23886634.727    -8907270.833 5  -2623632.257 2
 94  2  7  1 28 30.0000000  0  7  2 13  7 19 27 26 15
  21194675.751     4097216.261 9   -769569.958 9
  24093406.802   -14510670.730 5  -4149257.199 2
  20808945.657   -16501667.374 8  -4863355.581 9
  23154897.548    23751132.461 6   5138636.532 2
  21053946.456    12753197.357 8   2213304.797 7
  22986890.587    -4832851.426 7  -4138881.707 4
  23885273.219    -8914440.648 5  -2629219.154 2
 94  2  7  1 29  0.0000000  0  7  2 13  7 19 27 26 15
  21194722.999     4097466.589 9   -769374.903 9
  24071089.382   -14627978.050 5  -4240665.478 2
  20802153.769   -16537376.844 8  -4891181.128 9
  23170294.139    23832011.055 6   5201658.791 3
  21063753.177    12804723.207 8   2253454.795 7
  22980538.344    -4866258.545 7  -4164913.210 4
  23884009.654    -8921064.455 5  -2634380.520 2
 94  2  7  1 29 30.0000000  0  7  2 13  7 19 27 26 15
  21194805.172     4097889.121 9   -769045.666 9
  24048798.433   -14745121.589 5  -4331946.089 2
  20795446.152   -16572614.481 8  -4918639.026 9
  23185720.919    23913137.894 6   5264874.457 3
  21073640.272    12856675.824 7   2293937.328 7
  22974281.256    -4899130.330 7  -4190527.612 4
  23882857.282    -8927148.942 6  -2639121.635 2
 94  2  7  1 30  0.0000000  0  7  2 13  7 19 27 26 15
  21194916.215     4098483.758 9   -768582.322 9
  24026537.494   -14862097.730 5  -4423096.281 2
  20788830.362   -16607388.633 8  -4945735.738 9
  23201214.853    23994517.598 6   5328287.199 2
  21083612.179    12909069.620 7   2334763.650 7
  22968126.787    -4931467.098 7  -4215725.087 4
  23881789.031    -8932692.355 5  -2643441.191 2
 94  2  7  1 30 30.0000000  0  7  2 13  7 19 27 26 15
  21195063.083     4099245.558 9   -767988.711 9
  24004305.875   -14978906.597 5  -4514116.094 2
  20782299.953   -16641707.076 8  -4972477.370 9
  23216742.903    24076145.249 6   5391893.144 2
  21093668.507    12961912.871 7   2375940.189 7
  22962065.163    -4963287.862 7  -4240520.482 4
  23880842.946    -8937696.878 5  -2647340.775 2
 94  2  7  1 31  0.0000000  0  7  2 13  7 19 27 26 15
  21195240.650     4100182.786 9   -767258.416 9
  23982112.749   -15095536.682 5  -4604996.664 2
  20775863.499   -16675541.461 8  -4998841.823 9
  23232336.068    24158035.729 6   5455703.840 2
  21103805.959    13015217.078 7   2417475.912 7
  22956111.585    -4994584.883 7  -4264907.780 4
  23879994.114    -8942152.761 5  -2650812.879 2
 94  2  7  1 31 30.0000000  0  7  2 13  7 19 27 26 15
  21195452.843     4101298.570 9   -766388.968 9
  23959957.277   -15211985.243 5  -4695735.710 2
  20769519.621   -16708867.264 8  -5024809.974 9
  23247961.341    24240196.484 6   5519725.193 2
  21114039.225    13068980.436 7   2459369.419 7
  22950258.916    -5025359.124 7  -4288887.733 4
  23879243.794    -8946059.887 5  -2653857.361 2
 94  2  7  1 32  0.0000000  0  7  2 13  7 19 27 26 15
  21195695.585     4102591.021 9   -765381.866 9
  23937827.347   -15328253.275 5  -4786334.081 2
  20763278.032   -16741664.599 8  -5050366.330 9
  23263652.838    24322627.469 6   5583957.075 2
  21124355.473    13123190.102 7   2501610.687 7
  22944503.591    -5055603.349 7  -4312454.656 4
  23878615.399    -8949421.526 6  -2656476.831 2
 94  2  7  1 32 30.0000000  0  7  2 13  7 19 27 26 15
  21195976.701     4104045.115 9   -764248.811 9
  23915738.099   -15444338.622 5  -4876790.122 2
  20757137.203   -16773924.034 8  -5075503.536 9
  23279388.884    24405329.028 6   5648399.785 2
  21134751.586    13177823.979 7   2544182.532 7
  22938852.233    -5085316.852 7  -4335608.082 4
  23878082.877    -8952237.538 6  -2658671.113 2
 94  2  7  1 33  0.0000000  0  7  2 13  7 19 27 26 15
  21196280.091     4105642.709 9   -763003.929 9
  23893682.188   -15560236.175 5  -4967099.918 1
  20751105.768   -16805633.324 8  -5100212.068 9
  23295173.107    24488310.582 6   5713060.730 2
  21145227.114    13232871.178 7   2587076.408 7
  22933298.518    -5114488.533 7  -4358339.266 4
  23877645.510    -8954504.676 5  -2660437.672 2
 94  2  7  1 33 30.0000000  0  7  2 13  7 19 27 26 15
  21196609.263     4107376.232 9   -761653.126 9
  23871668.368   -15675946.978 5  -5057264.030 2
  20745168.289   -16836820.236 8  -5124513.547 9
  23311017.828    24571558.715 6   5777929.365 2
  21155784.575    13288338.134 8   2630297.404 7
  22927844.454    -5143126.109 6  -4380654.268 4
  23877315.798    -8956226.434 5  -2661779.288 2
 94  2  7  1 34  0.0000000  0  7  2 13  7 19 27 26 15
  21196962.238     4109246.164 9   -760196.029 9
  23849681.109   -15791465.386 5  -5147278.296 2
  20739335.557   -16867503.401 8  -5148422.486 9
  23326911.085    24655068.321 6   5843001.724 2
  21166418.693    13344241.775 7   2673858.661 7
  22922501.223    -5171223.921 6  -4402548.665 4
  23877095.421    -8957399.162 6  -2662693.075 2
 94  2  7  1 34 30.0000000  0  7  2 13  7 19 27 26 15
  21197345.313     4111248.578 9   -758635.699 9
  23827738.280   -15906790.033 5  -5237141.632 2
  20733589.075   -16897694.017 8  -5171947.614 9
  23342847.963    24738827.209 6   5908268.359 2
  21177142.659    13400587.445 7   2717764.351 7
  22917258.212    -5198787.179 7  -4424026.560 4
  23876980.480    -8958023.428 5  -2663179.497 2
 94  2  7  1 35  0.0000000  0  7  2 13  7 19 27 26 15
  21197751.682     4113388.193 9   -756968.469 9
  23805827.379   -16021917.451 5  -5326851.236 2
  20727928.993   -16927412.594 8  -5195104.951 9
  23358831.967    24822828.544 6   5973723.927 2
  21187952.036    13457386.567 7   2762023.368 6
  22912118.121    -5225813.794 7  -4445086.258 4
  23876963.842    -8958098.438 5  -2663237.923 2
 94  2  7  1 35 30.0000000  0  7  2 13  7 19 27 26 15
  21198187.070     4115683.980 9   -755179.532 9
  23783962.795   -16136840.469 6  -5416401.588 2
  20722366.434   -16956664.637 8  -5217898.742 9
  23374867.686    24907073.521 6   6039369.336 2
  21198849.612    13514652.123 8   2806645.854 7
  22907074.143    -5252298.116 7  -4465723.427 4
  23877049.613    -8957619.168 5  -2662864.404 2
 94  2  7  1 36  0.0000000  0  7  2 13  7 19 27 26 15
  21198656.635     4118139.092 9   -753266.449 9
  23762127.951   -16251555.672 6  -5505789.956 2
  20716892.584   -16985430.096 8  -5240313.379 9
  23390940.639    24991568.858 6   6105209.786 2
  21209832.299    13572369.560 8   2851620.454 6
  22902140.578    -5278236.393 7  -4485935.084 4
  23877255.330    -8956584.740 5  -2662058.350 2
 94  2  7  1 36 30.0000000  0  7  2 13  7 19 27 26 15
  21199156.599     4120763.324 9   -751221.578 9
  23740340.744   -16366061.148 6  -5595015.030 2
  20711513.617   -17013696.424 8  -5262339.066 9
  23407071.811    25076307.880 6   6171240.139 2
  21220899.257    13630523.717 8   2896935.354 7
  22897308.433    -5303631.610 7  -4505723.612 4
  23877559.230    -8954995.395 6  -2660819.888 2
 94  2  7  1 37  0.0000000  0  7  2 13  7 19 27 26 15
  21199691.579     4123570.774 9   -749033.953 9
  23718591.731   -16480351.329 6  -5684072.240 2
  20706230.315   -17041453.603 8  -5283968.026 9
  23423244.235    25161299.681 6   6237467.525 2
  21232051.207    13689115.023 8   2942590.893 6
  22892570.333    -5328492.355 6  -4525095.610 4
  23877962.391    -8952847.674 6  -2659146.308 2
 94  2  7  1 37 30.0000000  0  7  2 13  7 19 27 26 15
  21200262.893     4126573.215 9   -746694.374 9
  23696885.348   -16594422.206 6  -5772958.594 2
  20701050.651   -17068679.467 8  -5305182.960 9
  23439472.001    25246551.060 6   6303897.117 2
  21243281.013    13748150.601 8   2988592.627 7
  22887946.125    -5352825.263 7  -4544056.356 4
  23878472.458    -8950139.962 5  -2657036.368 2
 94  2  7  1 38  0.0000000  0  7  2 13  7 19 27 26 15
  21200866.286     4129764.413 9   -744207.703 9
  23675217.608   -16708275.514 6  -5861675.426 2
  20695968.059   -17095375.280 8  -5325984.878 9
  23455741.378    25332067.106 6   6370532.931 2
  21254600.097    13807609.941 8   3034924.548 6
  22883414.282    -5376639.172 6  -4562612.631 4
  23879099.773    -8946876.611 5  -2654493.488 2
 94  2  7  1 38 30.0000000  0  7  2 13  7 19 27 26 15
  21201510.180     4133141.067 9   -741576.520 9
  23653591.929   -16821905.271 6  -5950218.049 2
  20690986.198   -17121547.907 8  -5346379.123 9
  23472062.889    25417851.494 6   6437377.883 2
  21265993.469    13867499.319 8   3081591.559 6
  22878988.116    -5399930.825 7  -4580761.969 4
  23879837.982    -8943053.718 5  -2651514.584 2
 94  2  7  1 39  0.0000000  0  7  2 13  7 19 27 26 15
  21202187.531     4136686.593 9   -738813.755 9
  23632018.384   -16935303.321 6  -6038580.147 2
  20686105.187   -17147205.244 8  -5366371.850 9
  23488439.142    25503917.704 6   6504442.397 2
  21277472.792    13927828.327 8   3128601.167 6
  22874647.901    -5422698.611 7  -4598503.105 4
  23880656.176    -8938665.899 5  -2648095.439 2
 94  2  7  1 39 30.0000000  0  7  2 13  7 19 27 26 15
  21202888.176     4140384.039 9   -735932.617 9
  23610482.643   -17048468.711 6  -6126760.927 2
  20681320.350   -17172364.823 8  -5385976.695 9
  23504875.413    25590248.288 6   6571712.973 2
  21289038.246    13988588.245 8   3175946.525 6
  22870414.651    -5444940.628 6  -4615834.572 4
  23881601.901    -8933714.234 5  -2644236.963 2
 94  2  7  1 40  0.0000000  0  7  2 13  7 19 27 26 15
  21203619.849     4144224.092 9   -732940.349 9
  23588992.171   -17161401.799 6  -6214760.722 2
  20676620.683   -17197041.481 8  -5405205.242 9
  23521344.662    25676827.736 6   6639177.419 2
  21300679.906    14049765.555 8   3223617.132 6
  22866284.591    -5466649.469 6  -4632750.539 4
  23882649.256    -8928202.033 5  -2639941.742 2
 94  2  7  1 40 30.0000000  0  7  2 13  7 19 27 26 15
  21204374.247     4148201.200 9   -729841.276 9
  23567543.369   -17274097.933 6  -6302575.857 2
  20672018.030   -17221239.880 8  -5424061.132 9
  23537868.653    25763640.266 6   6706823.515 2
  21312399.993    14111378.121 7   3271626.900 6
  22862255.050    -5487814.895 6  -4649243.108 4
  23883812.840    -8922127.098 5  -2635207.984 2
 94  2  7  1 41  0.0000000  0  7  2 13  7 19 27 26 15
  21205159.134     4152319.485 9   -726632.208 9
  23546148.231   -17386550.724 6  -6390201.430 2
  20667507.352   -17244954.480 8  -5442540.031 9
  23554427.989    25850690.368 6   6774654.703 2
  21324210.586    14173437.935 7   3319985.176 6
  22858341.020    -5508433.718 6  -4665309.726 4
  23885065.973    -8915485.065 5  -2630032.360 2
 94  2  7  1 41 30.0000000  0  7  2 13  7 19 27 26 15
  21205975.679     4156589.426 9   -723304.957 9
  23524793.714   -17498763.985 6  -6477640.287 2
  20663085.354   -17268172.563 8  -5460632.031 9
  23571042.787    25937975.719 6   6842669.229 2
  21336103.233    14235934.784 7   3368683.996 6
  22854514.679    -5528506.419 6  -4680950.779 4
  23886443.429    -8908282.497 6  -2624419.924 2
 94  2  7  1 42  0.0000000  0  7  2 13  7 19 27 26 15
  21206817.766     4161016.857 9   -719855.000 9
  23503490.132   -17610735.382 6  -6564890.664 2
  20658764.565   -17290873.425 8  -5478321.004 9
  23587701.504    26025511.573 6   6910878.919 2
  21348081.231    14298870.151 7   3417724.530 6
  22850796.203    -5548027.592 7  -4696162.096 4
  23887916.999    -8900519.552 6  -2618370.829 2
 94  2  7  1 42 30.0000000  0  7  2 13  7 19 27 26 15
  21207689.562     4165601.152 9   -716282.782 9
  23482228.192   -17722461.981 6  -6651950.361 2
  20654545.945   -17313047.142 8  -5495599.218 9
  23604402.942    26113302.438 6   6979287.333 2
  21360142.031    14362246.294 7   3467108.523 6
  22847187.991    -5567014.038 7  -4710956.706 4
  23889502.062    -8892196.120 5  -2611885.016 2
 94  2  7  1 43  0.0000000  0  7  2 13  7 19 27 26 15
  21208590.588     4170348.745 9   -712583.341 9
  23461012.899   -17833942.393 6  -6738818.216 2
  20650432.733   -17334685.608 8  -5512460.348 9
  23621155.434    26201346.291 6   7047892.904 2
  21372284.915    14426051.714 7   3516827.027 6
  22843677.901    -5585479.154 7  -4725345.118 4
  23891193.101    -8883313.344 5  -2604963.360 2
 94  2  7  1 43 30.0000000  0  7  2 13  7 19 27 26 15
  21209526.930     4175264.873 9   -708752.560 9
  23439843.684   -17945174.857 6  -6825492.842 2
  20646415.874   -17355788.021 8  -5528903.770 9
  23637955.924    26289625.920 5   7116682.180 2
  21384503.676    14490276.490 7   3566872.303 6
  22840254.151    -5603420.422 7  -4739325.313 4
  23892981.213    -8873872.323 5  -2597606.663 2
 94  2  7  1 44  0.0000000  0  7  2 13  7 19 27 26 15
  21210496.039     4180348.283 9   -704791.441 9
  23418725.464   -18056159.618 6  -6911974.476 2
  20642495.248   -17376379.370 8  -5544948.964 9
  23654796.945    26378127.569 5   7185644.408 2
  21396803.861    14554921.592 7   3617245.075 6
  22836942.644    -5620833.940 7  -4752894.288 4
  23894891.281    -8863875.476 5  -2589816.877 2
 94  2  7  1 44 30.0000000  0  7  2 13  7 19 27 26 15
  21211495.397     4185603.075 9   -700696.777 9
  23397654.851   -18166888.356 6  -6998256.511 2
  20638673.733   -17396465.209 8  -5560600.238 9
  23671684.614    26466851.758 6   7254780.147 2
  21409190.686    14619984.737 7   3667943.631 6
  22833735.944    -5637707.116 7  -4766042.235 4
  23896897.252    -8853317.172 5  -2581589.558 2
 94  2  7  1 45  0.0000000  0  7  2 13  7 19 27 26 15
  21212527.733     4191034.410 9   -696464.555 9
  23376639.579   -18277362.797 6  -7084340.435 2
  20634947.043   -17416056.555 8  -5575866.229 9
  23688605.110    26555796.000 6   7324087.298 2
  21421646.223    14685454.035 7   3718958.643 6
  22830632.882    -5654026.685 7  -4778758.772 4
  23899015.526    -8842202.255 5  -2572928.565 2
 94  2  7  1 45 30.0000000  0  7  2 13  7 19 27 26 15
  21213598.202     4196652.388 9   -692086.892 9
  23355659.383   -18387575.891 6  -7170220.747 2
  20631311.340   -17435159.613 8  -5590751.716 9
  23705579.509    26644980.630 5   7393581.766 2
  21434180.336    14751332.118 7   3770292.208 6
  22827631.839    -5669780.016 7  -4791034.083 4
  23901230.452    -8830525.590 5  -2563829.832 2
 94  2  7  1 46  0.0000000  0  7  2 13  7 19 27 26 15
  21214698.470     4202443.880 9   -687574.016 9
  23334735.609   -18497526.060 6  -7255896.113 2
  20627766.864   -17453786.104 8  -5605265.840 9
  23722597.497    26734419.366 5   7463274.236 2
  21446794.853    14817609.799 7   3821937.151 6
  22824738.213    -5684976.214 7  -4802875.264 4
  23903570.273    -8818288.809 5  -2554294.667 2
 94  2  7  1 46 30.0000000  0  7  2 13  7 19 27 26 15
  21215830.726     4208394.347 9   -682937.255 9
  23313863.758   -18607208.663 6  -7341363.003 2
  20624312.536   -17471923.189 8  -5619398.620 9
  23739665.072    26824107.593 5   7533161.104 2
  21459486.986    14884292.856 8   3873897.980 6
  22821949.603    -5699633.192 7  -4814296.282 4
  23906006.386    -8805490.266 5  -2544321.711 2
 94  2  7  1 47  0.0000000  0  7  2 13  7 19 27 26 15
  21216994.550     4214511.387 9   -678170.715 9
  23293041.343   -18716619.488 6  -7426618.139 2
  20620955.699   -17489579.214 8  -5633156.540 9
  23756777.855    26914047.617 5   7603244.217 2
  21472249.451    14951389.520 7   3926181.070 6
  22819257.707    -5713766.098 7  -4825308.927 4
  23908544.579    -8792128.306 5  -2533909.756 2
 94  2  7  1 47 30.0000000  0  7  2 13  7 19 27 26 15
  21218182.478     4220765.497 9   -673297.368 9
  23272270.522   -18825762.762 6  -7511664.749 2
  20617680.887   -17506770.945 8  -5646552.681 9
  23773943.761    27004230.513 5   7673516.530 2
  21485093.759    15018893.143 7   3978781.275 6
  22816665.161    -5727386.628 7  -4835922.341 4
  23911192.676    -8778209.653 5  -2523064.069 2
 94  2  7  1 48  0.0000000  0  7  2 13  7 19 27 26 15
  21219401.884     4227156.680 9   -668317.204 9
  23251558.371   -18934626.416 6  -7596493.470 2
  20614504.136   -17523479.931 8  -5659572.641 9
  23791150.080    27094641.484 5   7743966.639 2
  21498017.272    15086814.878 7   4031707.300 6
  22814176.434    -5740485.809 6  -4846129.491 4
  23913940.693    -8763725.206 5  -2511777.442 2
 94  2  7  1 48 30.0000000  0  7  2 13  7 19 27 26 15
  21220644.853     4233692.179 9   -663224.600 9
  23230897.304   -19043210.523 6  -7681104.402 2
  20611417.742   -17539703.493 8  -5672214.362 9
  23808394.442    27185264.038 5   7814581.595 2
  21511025.957    15155150.058 7   4084955.468 6
  22811786.249    -5753060.589 6  -4855928.022 4
  23916811.926    -8748677.808 5  -2500052.150 2
 94  2  7  1 49  0.0000000  0  7  2 13  7 19 27 26 15
  21221920.080     4240393.389 9   -658002.868 9
  23210285.464   -19151510.609 6  -7765493.949 2
  20608421.437   -17555436.071 8  -5684473.481 9
  23825682.753    27276107.532 5   7885368.674 2
  21524110.069    15223894.492 7   4138522.531 6
  22809497.813    -5765087.720 6  -4865299.799 4
  23919784.728    -8733065.477 5  -2487886.650 2
 94  2  7  1 49 30.0000000  0  7  2 13  7 19 27 26 15
  21223222.379     4247251.299 9   -652659.016 9
  23189727.915   -19259526.468 6  -7849662.078 2
  20605524.212   -17570664.728 8  -5696339.942 9
  23843004.611    27367161.275 5   7956319.648 2
  21537266.491    15293056.570 7   4192415.047 6
  22807313.136    -5776553.838 6  -4874234.417 4
  23922863.176    -8716891.181 5  -2475283.280 2
 94  2  7  1 50  0.0000000  0  7  2 13  7 19 27 26 15
  21224563.231     4254280.165 9   -647181.965 9
  23169237.611   -19367255.394 6  -7933606.603 2
  20602729.097   -17585377.718 8  -5707804.573 9
  23860377.434    27458423.655 5   8027433.134 2
  21550513.090    15362640.348 7   4246636.151 6
  22805236.473    -5787463.957 6  -4882735.789 4
  23926050.630    -8700155.053 5  -2462242.113 2
 94  2  7  1 50 30.0000000  0  7  2 13  7 19 27 26 15
  21225935.621     4261480.628 9   -641571.200 9
  23148787.238   -19474693.874 6  -8017324.794 2
  20600020.922   -17599582.413 8  -5718873.143 9
  23877789.920    27549912.905 5   8098723.425 2
  21563830.201    15432642.818 7   4301183.498 6
  22803271.544    -5797811.730 7  -4890798.974 4
  23929334.107    -8682856.786 5  -2448762.928 2
 94  2  7  1 51  0.0000000  0  7  2 13  7 19 27 26 15
  21227334.872     4268838.947 9   -635837.426 9
  23128396.434   -19581841.119 6  -8100816.067 2
  20597415.516   -17613289.100 8  -5729553.653 9
  23895232.715    27641632.243 5   8170193.012 2
  21577232.063    15503069.408 7   4356061.348 5
  22801405.336    -5807605.833 7  -4898430.700 4
  23932730.006    -8664997.950 5  -2434846.816 2
 94  2  7  1 51 30.0000000  0  7  2 13  7 19 27 26 15
  21228753.939     4276321.448 9   -630006.884 9
  23108065.919   -19688695.362 6  -8184079.059 2
  20594898.848   -17626506.708 8  -5739853.043 9
  23912736.337    27733575.448 5   8241837.092 2
  21590712.861    15573906.324 7   4411258.925 5
  22799639.648    -5816870.150 6  -4905649.639 4
  23936239.916    -8646579.848 6  -2420495.062 2
 94  2  7  1 52  0.0000000  0  7  2 13  7 19 27 26 15
  21230202.357     4283918.089 9   -624087.407 9
  23087787.178   -19795255.652 6  -8267112.963 2
  20592476.975   -17639243.772 8  -5749778.005 9
  23930275.935    27825735.554 5   8313650.086 2
  21604267.347    15645130.151 7   4466757.996 5
  22797973.671    -5825620.682 6  -4912468.225 4
  23939855.773    -8627604.510 6  -2405709.067 2
 94  2  7  1 52 30.0000000  0  7  2 13  7 19 27 26 15
  21231669.091     4291627.893 9   -618079.750 9
  23067565.816   -19901519.026 6  -8349915.520 2
  20590140.572   -17651497.912 8  -5759326.654 9
  23947854.505    27918110.305 5   8385630.402 2
  21617895.552    15716746.201 7   4522562.677 5
  22796406.806    -5833859.533 7  -4918888.086 4
  23943569.332    -8608071.979 6  -2390488.910 2
 94  2  7  1 53  0.0000000  0  7  2 13  7 19 27 26 15
  21233159.540     4299454.679 9   -611980.950 9
  23047400.007   -20007484.799 6  -8432486.176 2
  20587904.510   -17663257.209 8  -5768489.710 9
  23965472.379    28010692.358 5   8457772.245 2
  21631600.804    15788760.957 7   4578678.043 5
  22794938.482    -5841603.538 7  -4924922.355 4
  23947386.319    -8587984.411 5  -2374836.220 2
 94  2  7  1 53 30.0000000  0  7  2 13  7 19 27 26 15
  21234679.997     4307425.389 9   -605769.988 9
  23027293.646   -20113147.174 6  -8514820.463 2
  20585763.752   -17674501.877 8  -5777251.757 9
  23983118.493    28103484.758 5   8530077.965 2
  21645378.366    15861183.017 7   4635110.797 5
  22793557.429    -5848838.263 7  -4930559.770 4
  23951317.108    -8567338.825 5  -2358748.731 2
 94  2  7  1 54  0.0000000  0  7  2 13  7 19 27 26 15
  21236231.453     4315594.016 9   -599404.801 9
  23007244.276   -20218497.228 6  -8596911.359 2
  20583727.202   -17685218.762 8  -5785602.549 9
  24000825.045    28196494.755 5   8602553.273 2
  21659242.958    15934035.512 7   4691878.975 5
  22792281.122    -5855530.881 6  -4935774.781 4
  23955360.739    -8546129.690 5  -2342222.094 2
 94  2  7  1 54 30.0000000  0  7  2 13  7 19 27 26 15
  21237825.569     4323975.815 9   -592873.507 9
  22987254.895   -20323534.157 6  -8678758.255 2
  20581783.858   -17695417.051 8  -5793549.247 9
  24018569.191    28289721.859 5   8675197.781 2
  21673191.132    16007321.864 7   4748985.200 5
  22791120.086    -5861668.025 7  -4940556.927 4
  23959502.162    -8524359.426 5  -2325258.228 2
 94  2  7  1 55  0.0000000  0  7  2 13  7 19 27 26 15
  21239460.637     4332573.614 9   -586173.917 9
  22967327.000   -20428258.737 6  -8760361.719 2
  20579941.093   -17705105.466 8  -5801098.633 9
  24036331.714    28383163.515 5   8748009.434 2
  21687214.074    16081025.182 7   4806416.321 5
  22790056.242    -5867242.322 7  -4944900.514 4
  23963739.878    -8502031.512 5  -2307859.843 2
 94  2  7  1 55 30.0000000  0  7  2 13  7 19 27 26 15
  21241136.537     4341384.833 9   -579307.998 9
  22947464.281   -20532671.655 6  -8841722.404 2
  20578186.408   -17714302.620 8  -5808265.206 9
  24054162.650    28476801.054 5   8820973.739 2
  21701320.329    16155135.087 7   4864164.294 5
  22789104.851    -5872243.844 7  -4948797.768 4
  23968098.711    -8479149.941 5  -2290029.997 2
 94  2  7  1 56  0.0000000  0  7  2 13  7 19 27 26 15
  21242849.641     4350385.154 9   -572294.739 9
  22927652.586   -20636766.453 6  -8922835.178 2
  20576533.232   -17723024.277 8  -5815061.283 9
  24072020.867    28570635.793 5   8894091.660 2
  21715497.304    16229648.523 7   4922226.667 5
  22788259.646    -5876675.439 7  -4952250.918 4
  23972564.509    -8455711.294 5  -2271766.149 2
 94  2  7  1 56 30.0000000  0  8  2  4 13  7 19 27 26 15
  21244594.553     4359536.851 9   -565163.525 9
  24856310.944    -8078223.56115  -2587926.972 2
  22907901.959   -20740537.161 6  -9003695.404 3
  20574956.564   -17731279.959 8  -5821494.257 9
  24089918.566    28664672.826 5   8967367.225 1
  21729752.046    16304562.652 7   4980601.312 5
  22787513.852    -5880563.049 7  -4955280.209 4
  23977138.412    -8431712.501 5  -2253065.727 2
 94  2  7  1 57  0.0000000  0  8  2  4 13  7 19 27 26 15
  21246355.504     4368822.302 9   -557928.097 9
  24837179.448    -8178762.662 5  -2666269.171 2
  22888220.764   -20843983.086 6  -9084302.514 3
  20573475.379   -17739071.812 8  -5827565.821 9
  24107841.718    28758906.573 5   9040796.185 1
  21744084.254    16379882.876 7   5039292.370 5
  22786878.562    -5883922.592 6  -4957898.011 4
  23981802.823    -8407155.907 5  -2233930.748 2
 94  2  7  1 57 30.0000000  0  8  2  4 13  7 19 27 26 15
  21248151.651     4378231.702 9   -550596.071 9
  24818035.362    -8279355.791 5  -2744653.443 2
  22868593.682   -20947100.037 6  -9164653.330 3
  20572079.666   -17746410.820 8  -5833284.496 9
  24125809.779    28853338.034 5   9114379.020 1
  21758498.395    16455618.041 7   5098306.763 5
  22786340.015    -5886760.024 6  -4960108.977 4
  23986584.573    -8382040.789 5  -2214360.432 2
 94  2  7  1 58  0.0000000  0  8  2  4 13  7 19 27 26 15
  21249957.091     4387747.959 9   -543180.792 9
  24798881.741    -8380008.762 5  -2823084.299 2
  22849033.483   -21049892.997 6  -9244751.672 3
  20570773.920   -17753295.821 8  -5838649.403 9
  24143823.379    28947968.183 5   9188116.807 1
  21772981.968    16531752.401 7   5157632.205 5
  22785898.451    -5889094.889 6  -4961928.310 4
  23991456.890    -8356375.065 6  -2194361.188 2
 94  2  7  1 58 30.0000000  0  8  2  4 13  7 19 27 26 15
  21251796.378     4397395.071 9   -535663.548 9
  24779720.806    -8480733.014 5  -2901570.800 2
  22829536.751   -21152354.233 6  -9324591.530 3
  20569550.706   -17759707.109 8  -5843645.203 9
  24161861.591    29042791.104 5   9262004.724 1
  21787548.254    16608281.226 7   5217265.023 5
  22785543.257    -5890929.657 6  -4963357.974 4
  23996449.094    -8330153.737 5  -2173928.926 2
 94  2  7  1 59  0.0000000  0  8  2  4 13  7 19 27 26 15
  21253659.498     4407190.189 9   -528030.969 9
  24760533.190    -8581547.104 5  -2980127.195 2
  22810101.415   -21254484.648 6  -9404173.579 3
  20568421.898   -17765635.900 8  -5848265.020 9
  24179949.839    29137804.839 5   9336041.465 1
  21802182.113    16685193.132 7   5277196.371 5
  22785292.510    -5892253.070 6  -4964389.159 4
  24001551.382    -8303381.118 5  -2153067.118 2
 94  2  7  1 59 30.0000000  0  8  2  4 13  7 19 27 26 15
  21255555.085     4417136.644 9   -520280.467 9
  24741337.389    -8682446.591 5  -3058750.195 2
  22790727.208   -21356283.215 6  -9483497.049 3
  20567385.335   -17771072.412 8  -5852501.213 9
  24198068.726    29233011.970 5   9410228.805 1
  21816888.882    16762469.009 7   5337411.344 5
  22785141.325    -5893055.702 6  -4965014.572 4
  24006746.875    -8276059.642 5  -2131777.649 2
 94  2  7  2  0  0.0000000  0  8  2  4 13  7 19 27 26 15
  21257471.509     4427236.823 9   -512410.171 9
  24722111.998    -8783428.152 5  -3137437.123 2
  22771420.574   -21457752.604 6  -9562564.069 3
  20566449.233   -17776015.306 8  -5856352.802 9
  24216221.189    29328402.885 5   9484559.407 1
  21831654.860    16840090.084 7   5397895.289 5
  22785085.264    -5893347.116 6  -4965241.612 5
  24012047.356    -8248195.109 5  -2110064.997 2
 94  2  7  2  0 30.0000000  0  8  2  4 13  7 19 27 26 15
  21259428.554     4437508.770 9   -504406.039 9
  24702881.511    -8884484.375 5  -3216182.194 2
  22752176.596   -21558881.052 7  -9641365.398 3
  20565600.341   -17780471.578 8  -5859825.205 9
  24234412.325    29423991.676 5   9559044.126 1
  21846498.544    16918066.962 7   5458656.444 5
  22785132.451    -5893109.174 6  -4965056.179 5
  24017455.372    -8219778.956 5  -2087922.506 2
 94  2  7  2  1  0.0000000  0  8  2  4 13  7 19 27 26 15
  21261413.360     4447937.031 9   -496280.099 9
  24683642.480    -8985606.151 5  -3294978.297 2
  22732998.183   -21659669.570 6  -9719901.822 3
  20564841.387   -17784450.372 8  -5862925.539 9
  24252635.480    29519779.460 5   9633683.982 1
  21861406.863    16996397.021 7   5519692.844 5
  22785284.356    -5892335.849 6  -4964453.544 5
  24022973.112    -8190815.269 6  -2065353.339 2
 94  2  7  2  1 30.0000000  0  8  2  4 13  7 19 27 26 15
  21263429.434     4458524.173 9   -488030.367 9
  24664382.223    -9086775.963 5  -3373811.923 2
  22713884.675   -21760110.126 7  -9798167.138 3
  20564173.239   -17787946.955 8  -5865650.120 9
  24270897.337    29615752.257 5   9708467.932 1
  21876381.077    17075087.170 7   5581009.811 4
  22785531.954    -5891031.238 6  -4963436.958 5
  24028587.325    -8161299.543 5  -2042354.041 2
 94  2  7  2  2  0.0000000  0  8  2  4 13  7 19 27 26 15
  21265473.449     4469273.960 9   -479653.888 9
  24645127.633    -9188006.557 5  -3452692.759 2
  22694841.738   -21860203.075 7  -9876161.596 3
  20563601.835   -17790968.482 8  -5868004.560 9
  24289203.324    29711899.420 5   9783387.769 1
  21891420.735    17154150.408 7   5642617.496 4
  22785872.039    -5889208.944 6  -4962016.935 5
  24034309.314    -8131235.201 5  -2018927.250 2
 94  2  7  2  2 30.0000000  0  8  2  4 13  7 19 27 26 15
  21267549.632     4480184.047 9   -471152.503 9
  24625851.278    -9289300.313 5  -3531622.780 2
  22675864.366   -21959940.311 7  -9953878.853 3
  20563123.336   -17793498.358 8  -5869975.861 9
  24307527.899    29808227.576 5   9858448.645 1
  21906539.568    17233598.227 7   5704524.861 4
  22786323.017    -5886859.213 7  -4960185.948 5
  24040136.890    -8100617.281 5  -1995069.112 2
 94  2  7  2  3  0.0000000  0  8  2  4 13  7 19 27 26 15
  21269656.064     4491252.584 9   -462527.653 9
  24606566.858    -9390647.054 6  -3610594.156 2
  22656947.672   -22059318.344 7 -10031316.199 3
  20562734.505   -17795516.579 8  -5871548.486 9
  24325884.191    29904726.671 5   9933642.740 1
  21921736.588    17313440.723 7   5766739.771 5
  22786870.738    -5883981.282 7  -4957943.388 5
  24046065.076    -8069445.607 5  -1970779.507 2
 94  2  7  2  3 30.0000000  0  8  2  4 13  7 19 27 26 15
  21271791.515     4502480.799 9   -453778.379 9
  24587276.323    -9492061.777 5  -3689618.433 2
  22638108.174   -22158343.650 7 -10108478.707 3
  20562445.955   -17797044.565 8  -5872739.087 9
  24344273.910    30001392.658 5  10008966.879 1
  21937004.028    17393673.047 7   5829258.438 4
  22787515.621    -5880580.843 7  -4955293.665 5
  24052107.093    -8037730.116 5  -1946066.121 2
 94  2  7  2  4  0.0000000  0  8  2  4 13  7 19 27 26 15
  21273959.644     4513871.055 9   -444902.830 9
  24567953.260    -9593553.403 5  -3768702.642 2
  22619325.517   -22257010.133 7 -10185361.642 3
  20562249.471   -17798088.402 8  -5873552.450 9
  24362712.225    30098244.856 5  10084436.104 1
  21952344.228    17474301.062 7   5892085.450 4
  22788268.970    -5876640.900 7  -4952223.577 5
  24058235.000    -8005467.880 5  -1920926.686 2
 94  2  7  2  4 30.0000000  0  8  2  4 13  7 19 27 26 15
  21276160.331     4525428.155 9   -435897.275 9
  24548628.278    -9695106.150 5  -3847834.471 2
  22600621.975   -22355313.271 7 -10261961.436 3
  20562138.008   -17798658.402 8  -5873996.589 9
  24381190.203    30195291.195 5  10160056.676 1
  21967762.225    17555314.288 7   5955212.610 4
  22789121.370    -5872149.224 7  -4948723.543 5
  24064480.817    -7972657.523 5  -1895360.093 2
 94  2  7  2  5  0.0000000  0  8  2  4 13  7 19 27 26 15
  21278392.316     4537154.788 9   -426759.622 9
  24529291.815    -9796709.656 5  -3927005.886 2
  22581981.659   -22453252.983 7 -10338278.000 3
  20562110.187   -17798780.732 8  -5874091.882 9
  24399677.055    30292519.676 5  10235819.117 1
  21983251.961    17636711.427 7   6018638.931 4
  22790079.176    -5867114.265 7  -4944800.143 5
  24070829.701    -7939302.587 5  -1869369.235 2
 94  2  7  2  5 30.0000000  0  8  2  4 13  7 19 27 26 15
  21280658.387     4549062.340 9   -417480.988 9
  24509945.997    -9898359.284 5  -4006213.214 2
  22563417.491   -22550822.191 6 -10414305.869 3
  20562175.812   -17798462.935 8  -5873844.212 9
  24418222.966    30389936.359 5  10311728.200 1
  21998813.199    17718487.158 7   6082360.262 4
  22791141.041    -5861537.430 7  -4940454.514 5
  24077284.863    -7905399.340 5  -1842951.095 2
 94  2  7  2  6  0.0000000  0  8  2  4 13  7 19 27 26 15
  21282953.148     4561143.891 9   -408066.786 9
  24490601.829   -10000041.762 5  -4085446.185 2
  22544918.558   -22648019.582 6 -10490044.032 3
  20562318.303   -17797698.834 8  -5873248.791 9
  24436793.250    30487532.025 5  10387776.754 2
  22014442.249    17800632.225 7   6146369.383 4
  22792296.621    -5855440.018 7  -4935703.260 4
  24083837.756    -7870949.861 5  -1816107.330 2
 94  2  7  2  6 30.0000000  0  8  2  4 13  7 19 27 26 15
  21285287.302     4573381.518 9   -398530.944 9
  24471242.701   -10101752.486 5  -4164701.124 2
  22526490.495   -22744850.183 6 -10565496.391 3
  20562548.184   -17796497.630 8  -5872312.753 9
  24455401.668    30585286.008 5  10463948.722 1
  22030146.487    17883131.942 7   6210654.879 4
  22793554.431    -5848847.998 7  -4930566.605 5
  24090496.836    -7835962.534 5  -1788844.445 2
 94  2  7  2  7  0.0000000  0  8  2  4 13  7 19 27 26 15
  21287638.694     4585760.151 9   -388885.242 9
  24451880.156   -10203496.642 5  -4243982.177 2
  22508139.899   -22841310.426 6 -10640660.122 3
  20562863.926   -17794838.932 8  -5871020.240 9
  24474025.195    30683198.843 4  10540244.359 1
  22045910.204    17965987.126 7   6275217.348 4
  22794903.407    -5841771.110 7  -4925052.090 5
  24097259.824    -7800437.312 5  -1761162.457 2
 94  2  7  2  7 30.0000000  0  8  2  4 13  7 19 27 26 15
  21290022.224     4598285.116 9   -379125.494 9
  24432518.869   -10305274.113 5  -4323289.127 2
  22489851.900   -22937396.637 7 -10715532.429 3
  20563273.532   -17792709.736 8  -5869361.098 9
  24492690.933    30781274.078 5  10616666.617 1
  22061748.150    18049191.875 7   6340052.194 4
  22796341.631    -5834208.844 7  -4919159.384 5
  24104117.607    -7764373.897 5  -1733061.039 2
 94  2  7  2  8  0.0000000  0  8  2  4 13  7 19 27 26 15
  21292427.939     4610934.435 9   -369268.866 9
  24413140.105   -10407083.941 5  -4402621.315 2
  22471637.079   -23033108.416 6 -10790112.966 3
  20563760.994   -17790115.577 8  -5867339.639 9
  24511384.642    30879511.359 5  10693215.184 1
  22077645.754    18132751.343 7   6405163.456 4
  22797868.084    -5826158.612 6  -4912886.460 5
  24111090.270    -7727775.149 5  -1704542.501 2
 94  2  7  2  8 30.0000000  0  8  2  4 13  7 19 27 26 15
  21294861.174     4623709.009 9   -359314.638 9
  24393760.591   -10508923.758 5  -4481976.902 2
  22453497.867   -23128442.453 7 -10864399.148 3
  20564346.279   -17787052.166 8  -5864952.546 9
  24530103.593    30977916.462 4  10769894.434 2
  22093614.499    18216676.312 7   6470559.533 4
  22799504.981    -5817595.442 6  -4906213.808 5
  24118152.151    -7690641.031 4  -1675606.790 2
 94  2  7  2  9  0.0000000  0  8  2  4 13  7 19 27 26 15
  21297320.042     4636627.793 9   -349248.035 9
  24374380.627   -10610784.427 5  -4561348.705 2
  22435431.774   -23223392.829 7 -10938386.396 3
  20565024.530   -17783508.571 8  -5862191.276 9
  24548875.637    31076502.567 4  10846714.820 2
  22109656.034    18300976.558 7   6536248.048 4
  22801229.267    -5808508.880 7  -4899133.358 4
  24125325.645    -7652969.446 5  -1646252.280 2
 94  2  7  2  9 30.0000000  0  8  2  4 13  7 19 27 26 15
  21299803.643     4649697.098 9   -339064.132 9
  24354991.850   -10712662.853 5  -4640734.355 2
  22417435.203   -23317960.854 7 -11012075.673 3
  20565784.264   -17779506.870 8  -5859073.043 9
  24567670.436    31175256.251 4  10923665.715 2
  22125772.636    18385653.190 7   6602229.810 4
  22803060.909    -5798898.827 6  -4891644.990 4
  24132587.727    -7614764.807 5  -1616482.386 2
 94  2  7  2 10  0.0000000  0  8  2  4 13  7 19 27 26 15
  21302322.049     4662913.987 9   -328765.241 9
  24335602.983   -10814556.784 5  -4720132.078 2
  22399511.481   -23412141.919 7 -11085463.463 3
  20566633.156   -17775035.629 8  -5855588.921 9
  24586483.252    31274185.464 4  11000753.381 1
  22141955.613    18470711.744 7   6668509.185 4
  22804990.584    -5788759.542 6  -4883744.213 4
  24139953.208    -7576026.152 5  -1586296.398 2
 94  2  7  2 10 30.0000000  0  8  2  4 13  7 19 27 26 15
  21304867.527     4676290.671 9   -318341.817 9
  24316210.008   -10916474.955 5  -4799548.723 2
  22381662.827   -23505940.764 7 -11158553.411 3
  20567574.025   -17770097.660 8  -5851741.134 9
  24605343.585    31373279.931 4  11077969.880 1
  22158213.538    18556134.194 7   6735072.152 4
  22807011.305    -5778106.384 6  -4875443.034 4
  24147424.816    -7536761.296 5  -1555700.349 2
 94  2  7  2 11  0.0000000  0  8  2  4 13  7 19 27 26 15
  21307446.552     4689855.689 9   -307771.667 9
  24296806.361   -11018404.787 5  -4878974.478 2
  22363889.541   -23599339.393 7 -11231331.501 3
  20568600.064   -17764687.073 8  -5847525.069 9
  24624225.983    31472532.739 4  11155309.746 1
  22174536.578    18641919.244 7   6801917.629 4
  22809141.450    -5766944.038 7  -4866745.082 4
  24155006.987    -7496956.024 5  -1524683.270 2
 94  2  7  2 11 30.0000000  0  8  2  4 13  7 19 27 26 15
  21310067.397     4703606.639 9   -297056.623 9
  24277413.117   -11120356.014 6  -4958416.836 2
  22346186.467   -23692340.970 7 -11303800.245 3
  20569716.641   -17758823.748 8  -5842956.221 9
  24643140.009    31571924.859 4  11232758.137 1
  22190929.589    18728057.302 7   6869038.167 4
  22811358.955    -5755277.251 6  -4857654.064 4
  24162689.288    -7456616.777 5  -1493250.039 2
 94  2  7  2 12  0.0000000  0  8  2  4 13  7 19 27 26 15
  21312719.182     4717538.683 9   -286200.484 9
  24258009.020   -11222326.607 5  -5037874.319 2
  22328571.112   -23784948.266 7 -11375961.706 3
  20570916.561   -17752514.111 8  -5838039.593 9
  24662092.439    31671453.567 4  11310313.051 1
  22207384.568    18814534.422 7   6936422.938 4
  22813677.340    -5743106.104 6  -4848170.046 4
  24170451.994    -7415749.826 5  -1461405.658 2
 94  2  7  2 12 30.0000000  0  9  9  2  4 13  7 19 27 26 15
  24944599.013     6105581.19215  -1415060.008 2
  21315404.183     4731658.486 9   -275198.014 9
  24238599.167   -11324300.169 6  -5117334.119 2
  22311029.506   -23877150.089 7 -11447807.232 3
  20572202.880   -17745767.517 8  -5832782.489 9
  24681058.329    31771113.771 4  11387970.322 1
  22223904.841    18901350.136 7   7004071.530 4
  22816088.930    -5730427.325 7  -4838290.454 4
  24178337.315    -7374347.604 5  -1429144.166 2
 94  2  7  2 13  0.0000000  0  9  9  2  4 13  7 19 27 26 15
  24925417.093     6004771.697 5  -1493612.764 2
  21318123.180     4745954.139 9   -264058.542 9
  24219198.338   -11426273.508 5  -5196793.705 3
  22293553.584   -23968950.269 6 -11519339.781 3
  20573569.394   -17738588.946 8  -5827188.772 9
  24700038.729    31870901.330 4  11465726.922 1
  22240490.019    18988505.525 7   7071984.822 4
  22818596.694    -5717247.117 7  -4828020.123 4
  24186325.046    -7332417.848 5  -1396471.577 2
 94  2  7  2 13 30.0000000  0  9  9  2  4 13  7 19 27 26 15
  24906238.140     5904014.242 5  -1572124.986 2
  21320877.284     4760404.986 9   -252798.136 9
  24199791.123   -11528241.182 5  -5276248.900 3
  22276163.403   -24060344.079 7 -11590555.695 3
  20575016.462   -17730971.663 8  -5821253.198 9
  24719055.044    31970848.231 4  11543607.545 1
  22257142.531    19076011.651 7   7140171.417 4
  22821198.623    -5703557.104 6  -4817352.559 4
  24194390.962    -7289958.969 5  -1363386.749 2
 94  2  7  2 14  0.0000000  0  9  9  2  4 13  7 19 27 26 15
  24887078.344     5803306.224 6  -1650598.695 2
  21323648.595     4774992.270 9   -241431.410 9
  24180391.074   -11630195.810 5  -5355693.973 3
  22258849.969   -24151331.639 7 -11661455.066 3
  20576552.419   -17722904.014 8  -5814966.705 9
  24738106.855    32070964.685 4  11621620.395 1
  22273855.990    19163854.003 7   7208619.982 4
  22823909.586    -5689365.415 7  -4806294.103 4
  24202575.626    -7246974.616 5  -1329892.414 2
 94  2  7  2 14 30.0000000  0  9  9  2  4 13  7 19 27 26 15
  24867915.101     5702639.052 6  -1729040.584 2
  21326458.250     4789732.069 9   -229945.857 9
  24160991.803   -11732134.037 5  -5435126.257 2
  22241611.513   -24241906.591 7 -11732032.895 3
  20578177.054   -17714369.260 8  -5808316.239 9
  24757196.589    32171259.567 4  11699772.224 1
  22290639.421    19252041.841 6   7277337.736 4
  22826698.615    -5674684.446 6  -4794854.358 4
  24210855.803    -7203461.762 5  -1295986.262 2
 94  2  7  2 15  0.0000000  0  9  9  2  4 13  7 19 27 26 15
  24848773.772     5601997.146 6  -1807462.718 2
  21329285.713     4804619.221 9   -218345.454 9
  24141595.231   -11834061.780 6  -5514550.367 2
  22224453.971   -24332074.284 7 -11802293.399 3
  20579890.878   -17705363.734 8  -5801298.911 9
  24776314.265    32271736.797 4  11778066.192 1
  22307485.719    19340574.088 6   7346323.915 4
  22829587.146    -5659522.779 6  -4783040.040 4
  24219237.851    -7159429.405 5  -1261675.312 2
 94  2  7  2 15 30.0000000  0  9  9  2  4 13  7 19 27 26 15
  24829624.679     5501386.759 5  -1885860.385 2
  21332150.440     4819660.549 9   -206624.935 9
  24122201.357   -11935974.016 6  -5593962.359 3
  22207377.552   -24421826.765 7 -11872230.341 3
  20581698.836   -17695880.791 8  -5793909.591 9
  24795473.821    32372393.069 4  11856499.637 1
  22324399.500    19429447.306 7   7415575.759 4
  22832561.387    -5643869.470 6  -4770842.646 4
  24227714.662    -7114873.251 5  -1226956.259 2
 94  2  7  2 16  0.0000000  0  9  9  2  4 13  7 19 27 26 15
  24810476.574     5400802.736 5  -1964237.531 2
  21335045.745     4834867.137 9   -194775.626 9
  24102812.580   -12037870.686 6  -5673362.243 3
  22190375.363   -24511164.300 7 -11941843.979 3
  20583589.238   -17685923.534 8  -5786150.656 9
  24814655.831    32473204.350 4  11935053.921 1
  22341377.676    19518653.109 7   7485086.765 4
  22835631.142    -5627724.389 6  -4758262.032 4
  24236298.080    -7069796.919 5  -1191831.812 2
 94  2  7  2 16 30.0000000  0  9  9  2  4 13  7 19 27 26 15
  24791348.197     5300246.821 5  -2042592.705 2
  21337972.019     4850244.070 9   -182793.588 9
  24083425.272   -12139751.200 6  -5752749.564 3
  22173453.098   -24600080.247 7 -12011129.055 4
  20585574.523   -17675499.214 8  -5778027.789 9
  24833862.305    32574151.319 4  12013713.899 1
  22358413.113    19608203.453 6   7554866.217 4
  22838797.070    -5611076.292 6  -4745289.484 4
  24244969.367    -7024197.651 6  -1156299.888 2
 94  2  7  2 17  0.0000000  0  9  9  2  4 13  7 19 27 26 15
  24772216.042     5199731.805 5  -2120915.989 2
  21340928.752     4865778.275 9   -170688.995 9
  24064039.282   -12241625.526 6  -5832131.981 3
  22156614.955   -24688572.687 7 -12080084.153 4
  20587641.742   -17664621.426 8  -5769551.547 9
  24853094.531    32675220.802 4  12092469.326 1
  22375519.750    19698087.898 6   7624906.043 4
  22842069.454    -5593909.012 6  -4731912.367 4
  24253743.513    -6978076.974 5  -1120361.694 2
 94  2  7  2 17 30.0000000  0  9  9  2  4 13  7 19 27 26 15
  24753106.311     5099256.872 5  -2199208.194 2
  21343915.315     4881468.945 9   -158462.503 9
  24044650.775   -12343494.886 6  -5911510.638 2
  22139853.169   -24776638.838 7 -12148707.091 4
  20589797.040   -17653306.746 8  -5760734.907 9
  24872359.194    32776400.155 4  12171310.396 1
  22392686.945    19788302.117 6   7695202.788 4
  22845435.284    -5576220.896 6  -4718129.409 4
  24262624.115    -6931435.406 5  -1084017.564 2
 94  2  7  2 18  0.0000000  0  9  9  2  4 13  7 19 27 26 15
  24733994.422     4998821.719 5  -2277469.316 2
  21346928.889     4897321.064 9   -146110.177 9
  24025270.122   -12445356.500 6  -5990883.190 2
  22123181.500   -24864272.682 7 -12216993.138 4
  20592031.483   -17641567.686 8  -5751587.543 9
  24891640.526    32877697.339 4  12250243.249 1
  22409915.628    19878850.982 6   7765760.327 4
  22848902.984    -5558017.509 7  -4703944.948 4
  24271600.231    -6884270.758 5  -1047265.868 2
 94  2  7  2 18 30.0000000  0  9  9  2  4 13  7 19 27 26 15
  24714884.781     4898426.098 5  -2355699.581 2
  21349977.718     4913334.774 9   -133631.957 9
  24005887.070   -12547208.944 6  -6070248.599 2
  22106583.071   -24951478.582 7 -12284945.753 4
  20594340.365   -17629418.693 8  -5742120.772 9
  24910931.751    32979109.670 4  12329265.840 1
  22427215.032    19969733.916 7   7836578.194 4
  22852453.725    -5539314.286 6  -4689370.999 4
  24280670.811    -6836591.050 5  -1010112.844 2
 94  2  7  2 19  0.0000000  0  9  9  2  4 13  7 19 27 26 15
  24695786.653     4798072.520 5  -2433897.141 2
  21353055.927     4929523.520 9   -121017.342 9
  23986511.154   -12649042.809 6  -6149599.529 3
  22090073.261   -25038251.625 7 -12352561.073 4
  20596736.756   -17616860.069 8  -5732334.806 9
  24930255.173    33080658.977 5  12408395.089 1
  22444568.578    20060946.960 7   7907653.269 3
  22856106.996    -5520117.756 6  -4674412.685 4
  24289854.654    -6788394.948 5   -972557.386 2
 94  2  7  2 19 30.0000000  0  8  9  2  4 13  7 27 26 15
  24676697.668     4697761.351 5  -2512061.612 2
  21356172.150     4945897.583 9   -108258.322 9
  23967140.574   -12750826.168 6  -6228911.134 3
  22073644.964   -25124584.777 7 -12419833.590 4
  20599205.457   -17603875.525 8  -5722216.937 9
  22461992.846    20152496.775 7   7978990.751 3
  22859857.460    -5500433.387 6  -4659074.226 4
  24299108.917    -6739678.850 5   -934596.796 2
 94  2  7  2 20  0.0000000  0  8  9  2  4 13  7 27 26 15
  24657625.951     4597510.668 4  -2590178.917 2
  21359322.519     4962455.435 9    -95356.071 9
  23947779.977   -12852548.513 6  -6308175.201 3
  22057298.420   -25210477.061 7 -12486762.596 4
  20601758.459   -17590455.291 8  -5711759.581 9
  22479474.254    20244377.718 7   8050586.263 3
  22863690.816    -5480267.081 7  -4643360.241 4
  24308485.286    -6690445.226 5   -896232.898 2
 94  2  7  2 20 30.0000000  0  8  9  2  4 13  7 27 26 15
  24638556.842     4497328.424 4  -2668242.846 2
  21362505.355     4979189.402 8    -82316.612 9
  23928442.524   -12954203.121 5  -6387386.494 3
  22041036.718   -25295930.089 7 -12553349.340 4
  20604398.702   -17576585.891 8  -5700952.224 9
  22497021.826    20336576.284 6   8122429.312 3
  22867621.005    -5459618.821 7  -4627270.698 4
  24317947.275    -6640699.905 5   -857470.264 2
 94  2  7  2 21  0.0000000  0  8  9  2  4 13  7 27 26 15
  24619508.629     4397214.911 5  -2746253.318 2
  21365723.837     4996088.638 9    -69148.361 9
  23909106.540   -13055790.564 6  -6466545.491 2
  22024858.897   -25380944.526 7 -12619594.297 4
  20607122.946   -17562262.697 8  -5689791.279 9
  22514625.249    20429071.610 7   8194503.552 3
  22871643.830    -5438494.654 6  -4610810.344 4
  24327510.865    -6590446.393 5   -818311.669 2
 94  2  7  2 21 30.0000000  0  8  9  2  4 13  7 27 26 15
  24600473.427     4297182.428 5  -2824200.614 2
  21368969.061     5013143.701 8    -55858.695 9
  23889785.875   -13157305.459 5  -6545647.931 3
  22008769.006   -25465512.516 7 -12685491.394 4
  20609937.907   -17547473.698 8  -5678267.350 9
  22532281.496    20521869.893 7   8266813.852 3
  22875758.302    -5416885.145 7  -4593971.798 4
  24337167.360    -6539680.821 5   -778754.021 2
 94  2  7  2 22  0.0000000  0  8  9  2  4 13  7 27 26 15
  24581458.700     4197215.533 5  -2902096.803 2
  21372246.122     5030344.801 9    -42455.221 9
  23870482.119   -13258771.225 6  -6624712.059 3
  21992755.682   -25549640.534 7 -12751045.655 4
  20612829.975   -17532245.299 8  -5666401.032 9
  22549995.933    20614966.176 6   8339356.404 3
  22879959.414    -5394795.946 7  -4576759.464 3
  24346927.913    -6488413.268 5   -738805.235 2
 94  2  7  2 22 30.0000000  0  8  9  2  4 13  7 27 26 15
  24562439.207     4097300.444 5  -2979952.607 2
  21375545.338     5047706.475 9    -28926.643 9
  23851182.980   -13360188.359 6  -6703738.343 3
  21976836.073   -25633323.942 7 -12816253.451 4
  20615812.820   -17516584.440 8  -5654197.757 9
  22567766.161    20708363.082 6   8412133.184 3
  22884252.562    -5372225.487 6  -4559172.113 3
  24356775.046    -6436642.472 4   -698464.344 2
 94  2  7  2 23  0.0000000  0  8  9  2  4 13  7 27 26 15
  24543429.247     3997435.006 5  -3057769.748 2
  21378885.056     5065249.969 9    -15256.369 9
  23831896.911   -13461550.947 6  -6782722.153 3
  21960997.168   -25716553.797 7 -12881107.829 4
  20618872.861   -17500496.959 8  -5641662.037 9
  22585600.934    20802082.714 6   8485161.465 3
  22888643.202    -5349162.790 7  -4541201.196 3
  24366718.652    -6384363.454 4   -657727.410 2
 94  2  7  2 23 30.0000000  0  8  9  2  4 13  7 27 26 15
  24524432.838     3897615.650 5  -3135550.975 2
  21382256.912     5082967.314 9     -1450.641 9
  23812611.112   -13562861.493 6  -6861665.339 3
  21945241.635   -25799335.621 7 -12945613.109 4
  20622010.699   -17484005.295 8  -5628811.363 9
  22603500.162    20896142.613 6   8558454.860 3
  22893117.485    -5325617.138 7  -4522853.962 3
  24376763.768    -6331585.573 4   -616601.802 2
 94  2  7  2 24  0.0000000  0  8  9  2  4 13  7 27 26 15
  24505442.455     3797847.985 5  -3213291.977 2
  21385665.222     5100878.434 9     12506.104 9
  23793344.081   -13664115.987 6  -6940564.908 3
  21929577.659   -25881664.977 7 -13009765.815 4
  20625227.322   -17467123.659 8  -5615656.818 9
  22621464.296    20990544.398 6   8632014.665 3
  22897695.195    -5301595.038 6  -4504135.465 3
  24386912.102    -6278307.724 5   -575086.507 2
 94  2  7  2 24 30.0000000  0  8  9  2  4 13  7 27 26 15
  24486468.680     3698132.439 4  -3290992.318 2
  21389105.221     5118973.483 8     26606.147 9
  23774087.871   -13765317.784 6  -7019423.434 3
  21913992.768   -25963545.547 7 -13073568.832 4
  20628514.696   -17449846.415 8  -5602193.999 9
  22639494.354    21085275.487 6   8705831.043 3
  22902354.870    -5277100.197 7  -4485048.569 3
  24397144.378    -6224537.385 5   -533187.502 2
 94  2  7  2 25  0.0000000  0  8  9  2  4 13  7 27 26 15
  24467503.000     3598480.325 5  -3368643.272 2
  21392583.922     5137242.111 9     40841.451 9
  23754847.701   -13866464.592 6  -7098239.054 3
  21898498.715   -26044970.074 7 -13137016.453 4
  20631880.856   -17432164.453 8  -5588415.821 9
  22657586.289    21180345.646 6   8779911.711 3
  22907107.390    -5252131.917 7  -4465592.779 3
  24407466.173    -6170270.266 5   -490901.420 2
 94  2  7  2 25 30.0000000  0  8  9  2  4 13  7 27 26 15
  24448558.635     3498900.747 5  -3446237.720 2
  21396091.644     5155671.320 9     55201.887 9
  23735601.775   -13967549.497 6  -7177006.487 3
  21883090.432   -26125933.164 7 -13200104.511 4
  20635323.733   -17414078.411 8  -5574322.769 9
  22675742.590    21275741.747 6   8854246.318 3
  22911945.620    -5226700.433 7  -4445776.057 3
  24417884.590    -6115505.048 5   -448227.180 2
 94  2  7  2 26  0.0000000  0  8  9  2  4 13  7 27 26 15
  24429626.711     3399389.638 5  -3523778.748 2
  21399632.193     5174273.076 9     69696.795 9
  23716379.892   -14068570.288 6  -7255723.891 3
  21867776.733   -26206433.710 7 -13262832.166 4
  20638843.056   -17395573.436 8  -5559903.299 9
  22693944.549    21371433.014 6   8928810.926 3
  22916877.986    -5200806.503 7  -4425598.999 4
  24428413.211    -6060244.318 5   -405166.833 2
 94  2  7  2 26 30.0000000  0  8  9  2  4 13  7 27 26 15
  24410695.297     3299950.130 5  -3601264.028 2
  21403201.762     5193046.438 8     84325.380 9
  23697172.669   -14169509.939 6  -7334378.171 3
  21852543.979   -26286470.468 8 -13325198.413 4
  20642443.953   -17376627.742 8  -5545140.380 9
  22712209.614    21467418.330 6   9003604.678 3
  22921891.265    -5174453.052 6  -4405063.832 4
  24439017.081    -6004490.605 5   -361722.351 2
 94  2  7  2 27  0.0000000  0  8  9  2  4 13  7 27 26 15
  24391794.702     3200596.345 5  -3678682.485 2
  21406810.004     5211995.022 8     99090.531 9
  23677984.542   -14270350.099 6  -7412954.891 3
  21837403.260   -26366040.948 8 -13387201.325 4
  20646136.107   -17357252.299 8  -5530042.615 9
  22730531.041    21563697.184 6   9078627.150 3
  22926990.944    -5147651.647 6  -4384179.680 4
  24449720.241    -5948244.844 5   -317894.472 2
 94  2  7  2 27 30.0000000  0  8  9  2  4 13  7 27 26 15
  24372904.569     3101343.067 6  -3756022.650 2
  21410453.711     5231126.677 8    113998.321 9
  23658812.845   -14371081.113 6  -7491446.469 3
  21822351.580   -26445142.437 7 -13448838.805 4
  20649904.619   -17337448.802 8  -5514611.305 9
  22748909.518    21660255.378 6   9153867.289 3
  22932179.722    -5120387.624 6  -4362934.981 4
  24460507.433    -5891507.911 4   -273683.872 2
 94  2  7  2 28  0.0000000  0  8  9  2  4 13  7 27 26 15
  24354043.576     3002198.716 6  -3833277.898 2
  21414124.700     5250453.724 8    129058.390 9
  23639670.527   -14471709.812 6  -7569858.408 3
  21807388.309   -26523773.306 7 -13510109.544 4
  20653757.551   -17317206.308 8  -5498837.901 9
  22767339.349    21757098.916 6   9229329.773 3
  22937452.922    -5092643.379 6  -4341316.099 4
  24471409.086    -5834281.933 4   -229092.136 2
 94  2  7  2 28 30.0000000  0  8  9  2  4 13  7 27 26 15
  24335199.192     2903167.743 6  -3910444.865 2
  21417832.593     5269952.348 8    144252.141 9
  23620531.836   -14572249.159 6  -7648200.695 3
  21792510.509   -26601936.637 7 -13571015.979 4
  20657687.950   -17296540.702 8  -5482734.798 9
  22785816.547    21854239.261 6   9305023.520 3
  22942826.492    -5064411.764 6  -4319317.447 4
  24482381.970    -5776573.153 4   -184124.228 2
 94  2  7  2 29  0.0000000  0  8  9  2  4 13  7 27 26 15
  24316372.046     2804250.118 5  -3987523.469 2
  21421575.532     5289606.765 8    159567.286 9
  23601416.829   -14672710.411 6  -7726482.120 3
  21777728.073   -26679632.614 7 -13631558.232 5
  20661697.644   -17275470.507 8  -5466316.446 9
  22804357.272    21951665.703 6   9380940.248 3
  22948295.665    -5035688.266 6  -4296935.507 4
  24493460.950    -5718385.782 5   -138783.372 2
 94  2  7  2 29 30.0000000  0  8  9  2  4 13  7 27 26 15
  24297567.624     2705442.414 5  -4064516.370 2
  21425348.960     5309431.366 8    175015.050 8
  23582313.724   -14773092.598 6  -7804701.939 3
  21763034.705   -26756851.288 8 -13691728.556 5
  20665786.484   -17253980.623 8  -5449571.065 9
  22822962.392    22049393.122 6   9457091.472 3
  22953856.786    -5006465.733 6  -4274164.689 4
  24504622.193    -5659713.542 5    -93064.710 2
 94  2  7  2 30  0.0000000  0  8  9  2  4 13  7 27 26 15
  24278778.581     2606728.134 5  -4141436.545 2
  21429152.666     5329419.828 8    190590.493 8
  23563226.658   -14873398.049 6  -7882861.978 3
  21748430.405   -26833595.356 8 -13751529.096 5
  20669951.890   -17232079.213 8  -5432505.019 9
  22841612.870    22147422.863 6   9533478.250 3
  22959506.584    -4976772.565 6  -4251027.213 4
  24515865.969    -5600562.779 5    -46973.168 2
 94  2  7  2 30 30.0000000  0  8  9  2  4 13  7 27 26 15
  24260011.633     2508087.925 5  -4218298.977 2
  21432988.301     5349561.171 8    206285.054 8
  23544162.196   -14973611.997 6  -7960950.709 3
  21733917.692   -26909864.415 8 -13810959.481 5
  20674194.673   -17209790.821 8  -5415137.422 9
  22860324.746    22245743.848 6   9610091.997 3
  22965241.554    -4946638.185 6  -4227545.878 4
  24527227.324    -5540936.571 5      -511.173 2
 94  2  7  2 31  0.0000000  0  8  9  2  4 13  7 27 26 15
  24241257.577     2409520.640 5  -4295104.549 2
  21436850.857     5369873.204 9    222112.626 8
  23525104.059   -15073727.107 6  -8038962.379 3
  21719494.497   -26985653.625 8 -13870015.948 5
  20678509.975   -17187119.085 8  -5397471.113 9
  22879083.930    22344350.999 6   9686928.729 3
  22971055.339    -4916074.592 6  -4203730.109 4
  24538662.517    -5480833.660 5     46322.291 2
 94  2  7  2 31 30.0000000  0  8  9  2  4 13  7 27 26 15
  24222516.531     2311022.248 5  -4371856.491 2
  21440749.028     5390364.378 9    238079.789 8
  23506075.003   -15173736.068 6  -8116891.397 3
  21705162.109   -27060961.599 7 -13928697.437 5
  20682895.699   -17164067.113 8  -5379508.534 9
  22897898.095    22443242.420 6   9763986.976 3
  22976952.976    -4885091.128 6  -4179587.139 4
  24550188.248    -5420256.445 5     93525.316 2
 94  2  7  2 32  0.0000000  0  8  9  2  4 13  7 27 26 15
  24203789.485     2212594.921 5  -4448553.079 2
  21444685.393     5411029.856 9    254182.773 8
  23487065.553   -15273635.551 6  -8194735.075 3
  21690925.595   -27135790.549 7 -13987005.656 5
  20687353.613   -17140639.407 8  -5361253.151 9
  22916772.788    22542400.290 6   9841252.821 3
  22982926.161    -4853692.349 6  -4155120.536 4
  24561809.793    -5359210.770 5    141093.412 2
 94  2  7  2 32 30.0000000  0  8  9  2  4 13  7 27 26 15
  24185073.112     2114255.456 5  -4525181.179 2
  21448650.148     5431878.970 9    270428.854 8
  23468076.639   -15373413.262 6  -8272483.885 3
  21676773.562   -27210137.652 7 -14044938.420 5
  20691883.837   -17116829.573 8  -5342700.030 9
  22935700.755    22641828.738 6   9918729.524 3
  22988985.027    -4821868.241 6  -4130322.542 4
  24573514.920    -5297697.499 5    189025.903 2
 94  2  7  2 33  0.0000000  0  8  9  2  4 13  7 27 26 15
  24166386.089     2016031.323 6  -4601719.373 2
  21452654.656     5452912.360 9    286818.519 8
  23449116.175   -15473069.422 6  -8350137.951 3
  21662718.932   -27283999.284 7 -14102492.879 5
  20696492.426   -17092611.319 8  -5323828.654 9
  22954668.054    22741531.918 6   9996420.296 3
  22995116.712    -4789600.906 6  -4105179.178 4
  24585305.847    -5235716.566 5    237322.749 2
 94  2  7  2 33 30.0000000  0  8  9  2  4 13  7 27 26 15
  24147713.846     1917927.786 6  -4678163.612 2
  21456691.601     5474136.575 9    303356.868 8
  23430171.090   -15572591.477 6  -8427687.591 3
  21648761.254   -27357367.584 8 -14159662.932 5
  20701182.200   -17067971.316 8  -5304628.652 9
  22973687.877    22841513.001 6  10074327.657 3
  23001346.339    -4756880.721 6  -4079682.926 4
  24597186.832    -5173263.633 5    285987.429 2
 94  2  7  2 34  0.0000000  0  8  9  2  4 13  7 27 26 15
  24129066.185     1819947.800 6  -4754511.655 2
  21460769.768     5495546.593 9    320040.011 8
  23411261.411   -15671989.777 6  -8505140.756 3
  21634890.757   -27430245.299 8 -14216450.720 5
  20705953.097   -17042915.911 8  -5285104.943 9
  22992772.245    22941767.707 6  10152448.205 3
  23007661.647    -4723704.729 6  -4053831.492 3
  24609165.100    -5110345.019 5    335014.963 2
 94  2  7  2 34 30.0000000  0  8  9  2  4 13  7 27 26 15
  24110451.502     1722094.016 6  -4830761.260 2
  21464874.077     5517129.032 9    336857.509 8
  23392365.342   -15771265.765 6  -8582498.606 3
  21621115.773   -27502630.074 7 -14272854.402 5
  20710795.225   -17017454.681 8  -5265265.006 9
  23011903.800    23042299.234 6  10230784.428 3
  23014065.904    -4690064.425 6  -4027618.234 3
  24621222.452    -5046961.907 4    384404.427 2
 94  2  7  2 35  0.0000000  0  8  9  2  4 13  7 27 26 15
  24091844.943     1624349.913 6  -4906925.441 2
  21469012.922     5538877.425 8    353804.300 8
  23373501.082   -15870430.375 6  -8659769.707 3
  21607435.314   -27574520.085 7 -14328872.546 5
  20715714.669   -16991594.486 8  -5245114.189 9
  23031083.173    23143092.968 6  10309325.013 3
  23020553.383    -4655961.897 6  -4001044.853 3
  24633370.223    -4983116.355 5    434154.278 2
 94  2  7  2 35 30.0000000  0  8  9  2  4 13  7 27 26 15
  24073266.444     1526707.025 6  -4983010.757 2
  21473183.245     5560810.767 8    370895.233 8
  23354646.145   -15969480.627 6  -8736951.705 3
  21593851.777   -27645910.587 7 -14384501.459 5
  20720714.458   -16965349.602 8  -5224663.620 9
  23050310.302    23244146.830 6  10388068.309 3
  23027128.131    -4621408.451 6  -3974120.075 3
  24645610.299    -4918806.911 5    484265.542 2
 94  2  7  2 36  0.0000000  0  8  9  2  4 13  7 27 26 15
  24054704.914     1429171.417 6  -5059012.485 2
  21477393.200     5582927.121 8    388128.772 8
  23335818.759   -16068410.955 6  -8814040.230 3
  21580359.138   -27716802.608 7 -14439741.956 5
  20725778.312   -16938716.716 8  -5203910.709 9
  23069595.411    23345465.214 6  10467017.700 2
  23033781.845    -4586424.100 6  -3946859.530 3
  24657935.756    -4854038.556 5    534734.394 2
 94  2  7  2 36 30.0000000  0  8  9  2  4 13  7 27 26 15
  24036160.053     1331739.379 5  -5134933.482 2
  21481635.653     5605226.802 8    405505.150 8
  23317023.151   -16167215.162 6  -8891030.459 3
  21566964.981   -27787198.216 7 -14494595.631 5
  20730918.524   -16911698.302 8  -5182857.384 9
  23088923.781    23447042.084 6  10546168.486 2
  23040521.389    -4551028.412 6  -3919278.462 3
  24670347.044    -4788816.724 5    585556.671 2
 94  2  7  2 37  0.0000000  0  8  9  2  4 13  7 27 26 15
  24017638.455     1234424.232 5  -5210763.406 2
  21485923.225     5627729.086 8    423039.404 8
  23298243.612   -16265884.947 6  -8967915.990 3
  21553662.920   -27857092.123 7 -14549058.368 5
  20736140.699   -16884282.763 8  -5161494.601 9
  23108302.065    23548878.229 6  10625521.307 2
  23047334.982    -4515232.337 6  -3891385.423 3
  24682842.993    -4723139.656 5    636733.623 2
 94  2  7  2 37 30.0000000  0  8  9  2  4 13  7 27 26 15
  23999139.521     1137229.553 5  -5286499.491 2
  21490240.536     5650427.488 8    440726.468 8
  23279498.339   -16364417.091 6  -9044694.253 3
  21540457.422   -27926491.725 7 -14603135.948 5
  20741425.770   -16856470.514 8  -5139822.702 9
  23127732.544    23650973.054 6  10705075.705 2
  23054221.455    -4479041.707 6  -3863184.922 3
  24695422.285    -4657018.116 5    688256.935 2
 94  2  7  2 38  0.0000000  0  8  9  2  4 13  7 27 26 15
  23980674.734     1040162.907 6  -5362135.774 2
  21494595.351     5673301.510 8    458550.394 8
  23260771.713   -16462802.891 6  -9121358.477 3
  21527346.298   -27995399.330 7 -14656830.139 5
  20746795.922   -16828269.377 8  -5117847.778 9
  23147209.460    23753322.674 6  10784828.646 2
  23061180.417    -4442442.098 6  -3834665.747 3
  24708088.396    -4590458.449 5    740121.643 2
 94  2  7  2 38 30.0000000  0  8  9  2  4 13  7 27 26 15
  23962235.130      943227.390 6  -5437669.868 3
  21498977.627     5696347.085 8    476508.005 8
  23242071.559   -16561043.211 6  -9197909.335 3
  21514333.207   -28063810.187 7 -14710137.256 5
  20752232.089   -16799688.937 8  -5095577.283 9
  23166728.737    23855926.459 6  10864779.639 2
  23068232.555    -4405408.077 6  -3805808.076 3
  24720839.019    -4523459.116 5    792328.954 2
 94  2  7  2 39  0.0000000  0  8  9  2  4 13  7 27 26 15
  23943816.511      846432.322 6  -5513094.594 3
  21503397.977     5719571.696 8    494605.108 8
  23223417.063   -16659120.480 6  -9274333.163 3
  21501405.527   -28131717.107 7 -14763051.707 5
  20757747.191   -16770720.863 8  -5073004.739 9
  23186303.446    23958786.547 6  10944930.315 2
  23075370.164    -4367921.572 6  -3776597.808 3
  24733681.589    -4456016.617 5    844881.635 2
 94  2  7  2 39 30.0000000  0  8  9  2  4 13  7 27 26 15
  23925420.136      749771.865 6  -5588414.376 3
  21507848.846     5742969.952 8    512837.520 8
  23204783.613   -16757026.485 6  -9350623.519 3
  21488576.958   -28199123.027 8 -14815575.762 5
  20763329.056   -16741385.341 8  -5050145.886 9
  23205926.901    24061896.226 6  11025275.514 2
  23082581.521    -4329989.504 6  -3747040.369 3
  24746597.517    -4388137.377 5    897774.550 2
 94  2  7  2 40  0.0000000  0  7  9  2  4 13  7 27 26
  23907054.640      653255.362 6  -5663622.006 2
  21512337.159     5766553.593 8    531214.390 8
  23186185.538   -16854753.902 6  -9426774.720 3
  21475846.271   -28266020.821 8 -14867703.874 5
  20768981.433   -16711693.127 8  -5027009.069 9
  23225591.997    24165259.247 6  11105818.126 2
  23089881.228    -4291626.402 6  -3717147.010 3
 94  2  7  2 40 30.0000000  0  8  9  2  4 13 12  7 27 26
  23888713.907      556876.970 6  -5738722.024 2
  21516862.826     5790331.491 8    549742.630 8
  23167620.260   -16952312.414 6  -9502794.292 3
  21463214.666   -28332412.073 8 -14919437.297 5
  24977291.861    -4396691.17515   -401197.337
  20774699.195   -16681642.090 8  -5003592.665 9
  23245304.610    24268863.253 6  11186548.511 2
  23097259.960    -4252858.020 6  -3686937.911 3
 94  2  7  2 41  0.0000000  0  8  9  2  4 13 12  7 27 26
  23870400.725      460642.162 6  -5813710.171 2
  21521426.446     5814307.356 8    568425.129 8
  23149086.101   -17049699.492 6  -9578680.283 3
  21450673.987   -28398297.791 8 -14970776.780 5
  24959668.741    -4489336.621 5   -473385.128
  20780482.491   -16651235.989 8  -4979899.565 9
  23265074.094    24372702.525 6  11267462.216 2
  23104708.633    -4213708.416 6  -3656431.712 3
 94  2  7  2 41 30.0000000  0  8  9  2  4 13 12  7 27 26
  23852105.021      364546.197 6  -5888590.071 2
  21526024.303     5838475.380 8    587257.381 8
  23130583.660   -17146922.604 6  -9654438.476 3
  21438238.027   -28463672.547 8 -15021718.105 5
  24942023.197    -4582022.422 5   -545607.710
  20786334.320   -16620488.140 8  -4955940.185 9
  23284877.455    24476791.466 6  11348570.429 2
  23112233.124    -4174178.121 6  -3625628.900 3
 94  2  7  2 42  0.0000000  0  8  9  2  4 13 12  7 27 26
  23833848.500      268577.592 6  -5963370.755 2
  21530659.005     5862829.647 8    606234.725 8
  23112116.595   -17243991.068 6  -9730076.217 3
  21425893.053   -28528538.475 8 -15072262.941 5
  24924383.019    -4674750.397 5   -617863.201 1
  20792256.181   -16589393.325 8  -4931710.441 9
  23304737.656    24581125.192 6  11429869.435 2
  23119828.576    -4134257.065 6  -3594521.589 3
 94  2  7  2 42 30.0000000  0  8  9  2  4 13 12  7 27 26
  23815615.273      172736.026 6  -6038052.473 2
  21535328.722     5887366.401 8    625354.296 8
  23093680.348   -17340898.014 6  -9805588.034 3
  21413646.321   -28592887.540 8 -15122405.032 5
  24906730.669    -4767512.192 5   -690145.060 1
  20798236.351   -16557940.705 8  -4907201.886 9
  23324628.166    24685711.457 5  11511365.193 2
  23127511.387    -4093921.308 6  -3563091.143 3
 94  2  7  2 43  0.0000000  0  8  9  2  4 13 12  7 27 26
  23797392.598       77026.595 6  -6112631.190 2
  21540027.130     5912072.731 8    644605.990 8
  23075266.256   -17437639.553 6  -9880970.999 4
  21401501.909   -28656720.117 8 -15172144.674 6
  24889069.236    -4860308.286 5   -762453.679 1
  20804289.730   -16526140.073 8  -4882422.155 9
  23344581.992    24790556.970 5  11593063.005 2
  23135263.630    -4053166.385 6  -3531334.040 3
 94  2  7  2 43 30.0000000  0  8  9  2  4 13 12  7 27 26
  23779212.074      -18557.228 6  -6187112.053 2
  21544763.071     5936948.061 8    663989.383 8
  23056890.747   -17534223.334 6  -9956231.061 3
  21389449.862   -28720035.652 7 -15221481.428 6
  24871407.383    -4953137.583 5   -834788.205 1
  20810409.633   -16493978.789 8  -4857361.392 9
  23364585.404    24895648.381 6  11674952.378 2
  23143095.708    -4011989.973 6  -3499248.518 3
 94  2  7  2 44  0.0000000  0  8  9  2  4 13 12  7 27 26
  23761052.446     -113991.688 6  -6261476.564 2
  21549529.951     5962003.141 8    683512.821 8
  23038538.652   -17630647.677 6 -10031366.903 3
  21377502.953   -28782832.372 8 -15270413.893 6
  24853731.560    -5045998.424 5   -907147.273 1
  20816602.596   -16461431.020 8  -4831999.483 9
  23384622.543    25000971.828 5  11757022.615 2
  23151013.317    -3970404.081 6  -3466843.926 3
 94  2  7  2 44 30.0000000  0  8  9  2  4 13 12  7 27 26
  23742921.298     -209256.174 6  -6335708.560 2
  21554333.615     5987236.408 8    703175.115 8
  23020214.827   -17726902.944 6 -10106370.929 3
  21365650.568   -28845109.966 8 -15318941.851 6
  24836060.533    -5138889.958 5   -979530.185 1
  20822869.368   -16428500.306 8  -4806339.174 9
  23404707.588    25106531.275 5  11839276.670 2
  23159000.028    -3928426.508 6  -3434134.150 3
 94  2  7  2 45  0.0000000  0  8  9  2  4 13 12  7 27 26
  23724829.632     -304332.556 6  -6409794.020 2
  21559168.968     6012665.201 8    722989.758 8
  23001937.740   -17822972.944 6 -10181230.661 3
  21353900.143   -28906860.753 8 -15367059.323 6
  24818377.904    -5231804.109 5  -1051930.760 1
  20829209.588   -16395188.062 8  -4780381.568 9
  23424843.808    25212312.195 5  11921703.387 2
  23167060.967    -3886064.544 6  -3401124.782 3
 94  2  7  2 45 30.0000000  0  8  9  2  4 13 12  7 27 26
  23706772.263     -399227.524 6  -6483738.115 2
  21564047.880     6038299.064 8    742964.201 8
  22983698.966   -17918840.932 6 -10255932.948 4
  21342248.769   -28968083.201 8 -15414765.089 6
  24800691.678    -5324739.511 5  -1124347.900 1
  20835622.689   -16361498.398 8  -4754129.879 9
  23445012.945    25318308.345 6  12004297.761 2
  23175199.283    -3843315.161 6  -3367813.600 3
 94  2  7  2 46  0.0000000  0  8  9  2  4 13 12  7 27 26
  23688747.451     -493944.884 6  -6557543.839 2
  21568966.066     6064123.043 8    763086.791 8
  22965493.020   -18014488.538 6 -10330463.519 4
  21330695.217   -29028788.272 8 -15462067.704 6
  24783001.225    -5417706.290 6  -1196789.511 1
  20842096.287   -16327468.707 8  -4727613.223 9
  23465219.437    25424515.888 6  12087056.865 2
  23183404.903    -3800191.778 6  -3334210.941 4
 94  2  7  2 46 30.0000000  0  8  9  2  4 13 12  7 27 26
  23670751.750     -588496.706 6  -6631220.518 2
  21573913.870     6090131.430 8    783353.076 7
  22947338.098   -18109911.097 6 -10404818.706 4
  21319245.513   -29088976.033 8 -15508967.220 6
  24765306.335    -5510704.174 6  -1269255.339 1
  20848629.604   -16293125.970 8  -4700852.638 9
  23485466.670    25530927.749 6  12169975.189 2
  23191680.883    -3756695.171 6  -3300317.466 3
 94  2  7  2 47  0.0000000  0  8  9  2  4 13 12  7 27 26
  23652796.160     -682892.728 6  -6704775.800 3
  21578894.982     6116327.281 8    803765.432 7
  22929221.550   -18205114.567 6 -10479003.206 4
  21307890.964   -29148645.720 8 -15555463.044 6
  24747601.042    -5603732.055 6  -1341744.656 1
  20855224.409   -16258467.751 8  -4673846.223 9
  23505755.484    25637529.203 6  12253041.270 2
  23200032.082    -3712827.332 6  -3266134.753 3
 94  2  7  2 47 30.0000000  0  8  9  2  4 13 12  7 27 26
  23634859.427     -777121.385 6  -6778200.698 3
  21583919.204     6142716.541 8    824328.491 7
  22911142.896   -18300110.635 6 -10553026.073 4
  21296634.657   -29207793.383 8 -15601552.086 6
  24729890.533    -5696785.384 5  -1414253.602 1
  20861882.080   -16223483.260 8  -4646585.583 9
  23526080.393    25744333.410 6  12336265.335 2
  23208446.627    -3668579.513 6  -3231655.920 3
 94  2  7  2 48  0.0000000  0  8  9  2  4 13 12  7 27 26
  23616961.848     -871171.958 6  -6851486.808 3
  21588981.169     6169295.541 8    845039.385 7
  22893103.274   -18394927.005 6 -10626908.900 4
  21285477.341   -29266420.379 8 -15647235.431 6
  24712184.820    -5789865.143 5  -1486783.303 1
  20868601.628   -16188168.728 8  -4619067.766 9
  23546445.145    25851336.562 6  12419644.389 2
  23216939.567    -3623963.095 6  -3196889.874 3
 94  2  7  2 48 30.0000000  0  8  9  2  4 13 12  7 27 26
  23599097.874     -965044.057 6  -6924633.856 3
  21594071.645     6196067.836 8    865900.928 7
  22875087.277   -18489581.934 6 -10700665.980 4
  21274420.635   -29324526.728 8 -15692513.065 6
  24694467.386    -5882970.803 5  -1559333.071 1
  20875386.321   -16152517.356 8  -4591287.485 9
  23566842.185    25958531.842 5  12503173.170 2
  23225502.389    -3578979.476 7  -3161837.712 3
 94  2  7  2 49  0.0000000  0  8  9  2  4 13 12  7 27 26
  23581270.476    -1058725.679 6  -6997632.508 3
  21599203.912     6223042.162 8    886919.878 7
  22857106.325   -18584067.932 6 -10774291.384 4
  21263463.580   -29382103.851 8 -15737378.316 6
  24676745.545    -5976092.948 5  -1631895.765 1
  20882239.157   -16116512.600 9  -4563231.841 9
  23587287.521    26065931.832 6  12586861.477 2
  23234130.596    -3533612.768 6  -3126487.017 3
 94  2  7  2 49 30.0000000  0  8  9  2  4 13 12  7 27 26
  23563479.293    -1152221.125 6  -7070486.086 3
  21604375.362     6250208.629 8    908088.566 7
  22839166.354   -18678376.817 6 -10847778.779 4
  21252607.586   -29439152.821 8 -15781832.012 6
  24659020.675    -6069232.270 5  -1704471.771 1
  20889154.589   -16080165.984 8  -4534909.795 9
  23607761.457    26173541.930 6  12670713.500 2
  23242832.342    -3487865.996 6  -3090840.177 3
 94  2  7  2 50  0.0000000  0  8  9  2  4 13 12  7 27 26
  23545719.078    -1245553.819 6  -7143212.790 3
  21609577.511     6277553.458 8    929396.226 7
  22821254.564   -18772486.488 6 -10921110.936 4
  21241849.624   -29495675.251 8 -15825875.429 6
  24641293.497    -6162389.684 5  -1777061.912 1
  20896138.015   -16043477.814 9  -4506321.600 9
  23628276.584    26281365.264 6  12754731.678 2
  23251612.723    -3441748.904 6  -3054904.740 3
 94  2  7  2 50 30.0000000  0  8  9  2  4 13 12  7 27 26
  23527990.401    -1338727.268 6  -7215815.447 4
  21614817.583     6305081.951 8    950847.002 7
  22803388.013   -18866362.055 6 -10994260.707 4
  21231197.218   -29551666.012 8 -15869504.558 6
  24623560.024    -6255559.544 5  -1849661.776 2
  20903183.047   -16006446.422 9  -4477465.940 9
  23648835.992    26389404.177 6  12838917.848 2
  23260458.939    -3395258.521 6  -3018678.458 3
 94  2  7  2 51  0.0000000  0  8  9  2  4 13 12  7 27 26
  23510288.226    -1431744.973 6  -7288296.749 4
  21620089.014     6332789.109 8    972437.020 7
  22785574.795   -18959996.131 6 -11067222.277 4
  21220643.025   -29607125.959 8 -15912720.061 6
  24605830.208    -6348741.842 5  -1922271.280 2
  20910297.692   -15969067.826 9  -4448339.777 9
  23669432.603    26497663.387 5  12923275.681 2
  23269377.765    -3348399.499 6  -2982164.938 3
 94  2  7  2 51 30.0000000  0  8  9  2  4 13 12  7 27 26
  23492621.337    -1524598.511 6  -7360650.124 4
  21625394.441     6360679.840 8    994170.055 7
  22767800.879   -19053374.098 6 -11139984.268 4
  21210192.409   -29662052.538 8 -15955519.962 6
  24588089.990    -6441933.388 5  -1994887.999 2
  20917475.653   -15931350.432 9  -4418949.598 9
  23690081.438    26606148.440 6  13007809.473 2
  23278363.384    -3301176.004 6  -2945367.381 3
 94  2  7  2 52  0.0000000  0  8  9  2  4 13 12  7 27 26
  23474988.264    -1617279.961 6  -7432869.390 4
  21630742.349     6388767.146 8   1016056.271 7
  22750079.098   -19146500.907 6 -11212550.593 4
  21199840.126   -29716443.889 8 -15997902.803 6
  24570359.934    -6535131.228 5  -2067509.619 2
  20924713.093   -15893293.827 8  -4389295.079 9
  23710769.936    26714857.083 6  13092517.517 2
  23287419.725    -3253585.742 6  -2908284.049 3
 94  2  7  2 52 30.0000000  0  8  9  2  4 13 12  7 27 26
  23457382.262    -1709765.251 6  -7504935.837 3
  21636122.364     6417055.575 8   1038099.191 7
  22732403.754   -19239391.997 6 -11284933.216 5
  21189593.460   -29770297.171 8 -16039866.352 6
  24552612.970    -6628332.223 5  -2140133.717 2
  20932021.943   -15854903.636 9  -4359380.647 9
  23731500.284    26823778.153 6  13177391.026 2
  23296544.868    -3205629.004 6  -2870915.169 3
 94  2  7  2 53  0.0000000  0  8  9  2  4 13 12  7 27 26
  23439824.977    -1802051.481 6  -7576847.150 3
  21641547.229     6445545.519 8   1060299.145 7
  22714774.129   -19332065.191 6 -11357146.047 5
  21179443.446   -29823612.911 8 -16081411.041 6
  24534886.032    -6721535.653 5  -2212759.766 2
  20939390.512   -15816182.367 8  -4329208.207 9
  23752262.021    26932898.180 6  13262419.650 2
  23305740.072    -3157305.086 6  -2833260.174 3
 94  2  7  2 53 30.0000000  0  8  9  2  4 13 12  7 27 26
  23422301.688    -1894131.353 6  -7648597.664 3
  21647007.079     6474242.643 8   1082660.519 7
  22697176.282   -19424514.226 7 -11429184.246 5
  21169406.155   -29876388.435 8 -16122534.805 6
  24517148.901    -6814737.916 5  -2285384.851 2
  20946819.219   -15777140.276 8  -4298785.785 9
  23773056.435    27042204.789 6  13347593.606 2
  23315004.348    -3108620.951 6  -2795324.446 3
 94  2  7  2 54  0.0000000  0  8  9  2  4 13 12  7 27 26
  23404817.192    -1986013.805 6  -7720194.370 3
  21652508.870     6503139.015 8   1105177.153 7
  22679632.127   -19516738.356 7 -11501047.157 5
  21159458.322   -29928626.255 8 -16163239.566 6
  24499410.211    -6907940.667 5  -2358010.313 2
  20954311.122   -15737770.908 8  -4268108.345 9
  23793888.144    27151679.424 5  13432898.510 2
  23324334.639    -3059589.724 6  -2757118.290 3
 94  2  7  2 54 30.0000000  0  8  9  2  4 13 12  7 27 26
  23387371.580    -2077687.638 6  -7791628.529 3
  21658041.030     6532236.514 8   1127850.548 7
  22662119.931   -19608720.514 6 -11572721.519 5
  21149623.181   -29980329.365 8 -16203527.674 6
  24481682.014    -7001146.094 5  -2430637.865 2
  20961861.875   -15698080.079 8  -4237180.417 9
  23814747.104    27261307.556 5  13518323.035 2
  23333722.580    -3010222.390 6  -2718650.220 3
 94  2  7  2 55  0.0000000  0  9  9  2  4 13 12  7 24 27 26
  23369967.518    -2169140.717 6  -7862890.609 3
  21663620.977     6561553.531 8   1150694.975 7
  22644668.952   -19700429.100 6 -11644182.715 5
  21139887.960   -30031489.817 8 -16243392.908 6
  24463944.314    -7094345.152 5  -2503260.410 2
  20969476.933   -15658074.246 8  -4206007.026 9
  24886868.130     6084861.67915  -1756907.646 2
  23835642.458    27371097.717 6  13603873.804 2
  23343192.904    -2960515.433 6  -2679917.540 3
 94  2  7  2 55 30.0000000  0  9  9  2  4 13 12  7 24 27 26
  23352612.353    -2260370.649 6  -7933978.882 3
  21669241.726     6591086.639 8   1173707.779 7
  22627276.013   -19791859.487 7 -11715427.148 5
  21130258.387   -30082110.563 8 -16282837.624 6
  24446210.720    -7187539.848 5  -2575879.593 2
  20977149.492   -15617763.190 8  -4174595.808 9
  24866351.953     5977042.293 5  -1840922.665 2
  23856568.601    27481058.236 5  13689557.322 2
  23352709.666    -2910480.745 6  -2640929.460 3
 94  2  7  2 56  0.0000000  0  9  9  2  4 13 12  7 24 27 26
  23335283.479    -2351382.470 6  -8004897.155 3
  21674901.988     6620830.533 8   1196884.847 7
  22609923.875   -19883027.233 7 -11786466.898 5
  21120722.198   -30132194.401 8 -16321863.961 6
  24428476.498    -7280731.822 5  -2648496.708 2
  20984876.942   -15577147.735 8  -4142947.391 9
  24845824.504     5869171.981 5  -1924977.387 2
  23877526.522    27591186.038 5  13775371.160 2
  23362296.639    -2860108.757 6  -2601678.557 3
 94  2  7  2 56 30.0000000  0  9  9  2  4 13 12  7 24 27 26
  23318017.173    -2442158.640 6  -8075631.782 3
  21680601.372     6650785.986 8   1220226.752 7
  22592619.105   -19973946.643 7 -11857313.156 5
  21111298.942   -30181736.699 8 -16360468.321 6
  24410743.804    -7373915.301 5  -2721107.148 2
  20992663.631   -15536238.952 8  -4111070.427 9
  24825292.737     5761260.189 5  -2009064.397 2
  23898512.774    27701491.835 5  13861323.683 2
  23371947.857    -2809392.341 6  -2562159.259 3
 94  2  7  2 57  0.0000000  0  9  9  2  4 13 12  7 24 27 26
  23300782.194    -2532721.999 6  -8146200.588 3
  21686339.460     6680931.661 8   1243716.881 7
  22575363.981   -20064633.431 7 -11927978.160 5
  21101970.600   -30230741.073 8 -16398653.527 6
  24393011.530    -7467092.956 6  -2793713.072 2
  21000498.767   -15495047.318 8  -4078973.044 9
  24804746.581     5653301.445 5  -2093188.008 2
  23919539.108    27811981.376 5  13947419.434 2
  23381656.726    -2758334.925 6  -2522374.266 3
 94  2  7  2 57 30.0000000  0  9  9  2  4 13 12  7 24 27 26
  23283587.088    -2623082.812 6  -8216611.577 3
  21692109.235     6711264.181 8   1267352.610 7
  22558150.677   -20155094.880 6 -11998467.555 5
  21092749.194   -30279202.598 8 -16436415.711 6
  24375283.093    -7560258.343 6  -2866309.450 2
  21008394.491   -15453558.247 9  -4046643.896 9
  24784201.774     5545313.238 5  -2177334.644 2
  23940603.365    27922652.058 5  14033656.341 2
  23391441.442    -2706933.875 6  -2482321.496 3
 94  2  7  2 58  0.0000000  0  9  9  2  4 13 12  7 24 27 26
  23266429.336    -2713222.576 6  -8286850.284 3
  21697918.254     6741782.503 8   1291133.111 7
  22540980.934   -20245319.509 7 -12068772.412 5
  21083633.824   -30327119.873 8 -16473753.828 6
  24357559.512    -7653409.209 6  -2938894.547 2
  21016344.687   -15411767.648 8  -4014079.788 9
  24763644.586     5437304.847 5  -2261496.987 2
  23961696.912    28033496.677 5  14120028.766 2
  23401283.089    -2655196.734 6  -2442006.849 3
 94  2  7  2 58 30.0000000  0  9  9  2  4 13 12  7 24 27 26
  23249322.399    -2803133.932 6  -8356911.088 3
  21703762.888     6772491.569 8   1315062.252 7
  22523865.812   -20335281.672 7 -12138872.776 5
  21074616.607   -30374497.289 8 -16510671.254 6
  24339837.461    -7746548.709 6  -3011470.716 2
  21024356.731   -15369676.216 9  -3981281.269 9
  24743084.459     5329267.688 5  -2345681.718 2
  23982826.465    28144517.894 5  14206538.766 2
  23411192.489    -2603145.818 6  -2401447.716 3
 94  2  7  2 59  0.0000000  0  9  9  2  4 13 12  7 24 27 26
  23232257.643    -2892823.145 6  -8426798.759 3
  21709643.077     6803405.989 8   1339151.402 7
  22506801.056   -20424952.284 7 -12208745.926 5
  21065704.107   -30421328.083 8 -16547162.764 6
  24322111.603    -7839668.708 6  -3084031.755 2
  21032428.343   -15327257.224 9  -3948227.504 9
  24722527.390     5221214.213 5  -2429879.130 2
  24003983.298    28255715.431 5  14293186.165 2
  23421157.680    -2550778.488 6  -2360642.011 3
 94  2  7  2 59 30.0000000  0  9  9  2  4 13 12  7 24 27 26
  23215235.157    -2982274.955 6  -8496501.410 4
  21715574.441     6834545.428 8   1363415.877 7
  22489794.849   -20514326.769 7 -12278388.368 5
  21056897.613   -30467612.174 8 -16583228.262 6
  24304398.455    -7932767.907 6  -3156576.542 2
  21040564.890   -15284499.671 9  -3914909.929 9
  24701966.574     5113149.378 5  -2514085.455 2
  24025173.948    28367079.845 5  14379963.604 2
  23431182.020    -2498104.438 6  -2319597.253 3
 94  2  7  3  0  0.0000000  0  9  9  2  4 13 12  7 24 27 26
  23198258.510    -3071485.841 6  -8566016.357 4
  21721534.944     6865912.230 8   1387857.549 7
  22472842.815   -20603388.623 7 -12347787.183 5
  21048196.887   -30513346.994 8 -16618865.762 6
  24286684.768    -8025842.098 6  -3229101.816 2
  21048765.563   -15241407.641 9  -3881331.717 9
  24681397.664     5005064.555 5  -2598307.326 2
  24046404.501    28478634.310 5  14466889.166 2
  23441262.362    -2445121.600 6  -2278311.934 3
 94  2  7  3  0 30.0000000  0  9  9  2  4 13 12  7 24 27 26
  23181322.334    -3160483.504 6  -8635365.159 4
  21727549.411     6897507.671 7   1412477.360 7
  22455957.514   -20692141.850 7 -12416945.507 5
  21039597.070   -30558536.278 8 -16654078.187 6
  24268979.835    -8118893.811 6  -3301609.656 2
  21057026.104   -15197997.644 9  -3847505.741 9
  24660822.788     4896955.985 5  -2682547.710 2
  24067665.392    28590362.649 5  14553950.173 2
  23451405.780    -2391822.644 6  -2236780.294 3
 94  2  7  3  1  0.0000000  0  9  9  2  4 13 12  7 24 27 26
  23164421.894    -3249275.855 6  -8704553.953 4
  21733605.158     6929321.979 8   1437267.726 6
  22439120.210   -20780604.877 6 -12485877.707 5
  21031099.603   -30603179.231 8 -16688864.883 6
  24251278.020    -8211920.942 6  -3374098.319 2
  21065346.484   -15154287.943 9  -3813446.222 9
  24640242.215     4788831.980 5  -2766800.117 2
  24088958.001    28702254.931 5  14641138.920 2
  23461605.079    -2338208.444 6  -2195002.986 3
 94  2  7  3  1 30.0000000  0  9  9  2  4 13 12  7 24 27 26
  23147572.509    -3337847.553 7  -8773570.848 4
  21739701.918     6961353.993 8   1462227.711 6
  22422341.186   -20868781.354 7 -12554586.617 5
  21022708.322   -30647274.360 8 -16723224.713 6
  24233579.472    -8304920.660 6  -3446565.634 2
  21073715.101   -15110301.174 8  -3779170.831 9
  24619668.748     4680693.702 5  -2851063.611 2
  24110276.783    28814307.027 5  14728452.230 2
  23471873.300    -2284277.672 6  -2152979.032 3
 94  2  7  3  2  0.0000000  0  9  9  2  4 13 12  7 24 27 26
  23130759.039    -3426194.419 6  -8842412.519 4
  21745830.395     6993586.193 7   1487343.682 6
  22405615.525   -20956678.644 7 -12623077.982 5
  21014422.838   -30690821.468 8 -16757157.504 6
  24215886.980    -8397891.065 6  -3519010.070 2
  21082136.631   -15066048.469 8  -3744688.189 9
  24599081.550     4572554.417 5  -2935327.940 2
  24131630.010    28926510.781 5  14815883.704 2
  23482195.934    -2230022.581 6  -2110702.332 2
 94  2  7  3  2 30.0000000  0  9  9  2  4 13 12  7 24 27 26
  23113996.203    -3514304.571 6  -8911069.741 4
  21752004.231     7026020.189 7   1512616.924 6
  22388936.332   -21044309.140 7 -12691361.453 5
  21006237.394   -30733818.082 8 -16790661.352 6
  24198203.272    -8490828.212 6  -3591428.541 2
  21090607.746   -15021529.529 9  -3709998.118 9
  24578513.659     4464426.833 5  -3019583.090 2
  24153005.902    29038838.824 5  14903412.041 2
  23492576.428    -2175446.186 6  -2068175.282 3
 94  2  7  3  3  0.0000000  0  9  9  2  4 13 12  7 24 27 26
  23097266.525    -3602176.742 6  -8979541.505 4
  21758212.333     7058635.828 7   1538031.691 6
  22372312.300   -21131687.448 7 -12759448.413 5
  20998160.626   -30776272.635 8 -16823742.808 6
  24180521.064    -8583738.967 6  -3663826.484 2
  21099130.486   -14976736.851 9  -3675094.714 9
  24557941.631     4356304.206 5  -3103834.389 2
  24174405.058    29151300.082 5  14991044.193 2
  23503022.996    -2120563.928 6  -2025409.877 3
 94  2  7  3  3 30.0000000  0  9  9  2  4 13 12  7 24 27 26
  23080596.206    -3689797.309 7  -9047817.280 4
  21764460.907     7091439.917 8   1563593.278 6
  22355731.859   -21218798.444 7 -12827327.081 5
  20990185.697   -30818177.950 8 -16856396.286 6
  24162847.579    -8676614.673 6  -3736197.112 2
  21107710.576   -14931652.148 9  -3639963.784 9
  24537360.069     4248188.064 5  -3188080.649 3
  24195832.034    29263897.258 5  15078782.210 2
  23513529.642    -2065367.925 6  -1982400.019 3
 94  2  7  3  4  0.0000000  0  9  9  2  4 13 12  7 24 27 26
  23063971.575    -3777165.938 7  -9115896.689 4
  21770732.775     7124422.832 8   1589294.250 6
  22339211.795   -21305635.062 7 -12894991.932 5
  20982315.096   -30859536.878 8 -16888624.012 6
  24145181.589    -8769456.518 6  -3808541.400 2
  21116346.517   -14886271.098 9  -3604601.916 9
  24516789.900     4140069.463 5  -3272328.849 3
  24217285.932    29376622.565 5  15166620.126 2
  23524090.551    -2009871.661 6  -1939156.162 3
 94  2  7  3  4 30.0000000  0  9  9  2  4 13 12  7 24 27 26
  23047391.073    -3864276.098 6  -9183774.666 4
  21777043.017     7157588.542 7   1615137.640 6
  22322745.215   -21392172.194 7 -12962423.416 5
  20974549.751   -30900347.396 8 -16920424.403 6
  24127523.903    -8862260.880 6  -3880856.428 2
  21125038.790   -14840595.519 8  -3569010.543 9
  24496210.526     4031936.740 5  -3356588.042 3
  24238767.920    29489486.418 5  15254565.931 2
  23534705.213    -1954078.195 6  -1895680.769 3
 94  2  7  3  5  0.0000000  0  9  9  2  4 13 12  7 24 27 26
  23030870.740    -3951122.850 7  -9251447.461 4
  21783386.715     7190939.537 7   1641125.438 6
  22306337.484   -21478392.352 7 -13029607.932 5
  20966889.994   -30940610.039 8 -16951797.865 6
  24109867.746    -8955026.515 5  -3953141.326 2
  21133786.704   -14794626.947 8  -3533190.863 9
  24475633.671     3923794.824 5  -3440854.390 3
  24260268.586    29602493.436 5  15342623.363 2
  23545377.374    -1897991.494 6  -1851976.816 3
 94  2  7  3  5 30.0000000  0  9  9  2  4 13 12  7 24 27 26
  23014386.802    -4037693.244 6  -9318904.912 4
  21789775.442     7224495.381 7   1667272.834 6
  22289992.199   -21564281.891 7 -13096534.807 5
  20959333.156   -30980319.060 8 -16982739.951 6
  24092224.840    -9047746.055 5  -4025390.216 2
  21142585.852   -14748379.136 8  -3497153.605 9
  24455057.386     3815656.603 5  -3525117.881 3
  24281796.322    29715623.828 5  15430776.851 2
  23556108.565    -1841610.549 6  -1808043.641 3
 94  2  7  3  6  0.0000000  0  9  9  2  4 13 12  7 24 27 26
  22997967.109    -4123999.903 6  -9386156.781 4
  21796201.943     7258267.293 7   1693588.594 6
  22273702.647   -21649849.619 7 -13163210.935 5
  20951881.364   -31019482.525 8 -17013256.926 6
  24074590.598    -9140425.657 5  -4097608.071 2
  21151433.028   -14701873.330 8  -3460915.314 9
  24434477.533     3707532.402 5  -3609370.450 3
  24303341.237    29828873.501 5  15519023.335 2
  23566893.659    -1784941.011 6  -1763885.523 3
 94  2  7  3  6 30.0000000  0  9  9  2  4 13 12  7 24 27 26
  22981596.941    -4210050.799 6  -9453209.393 4
  21802672.364     7292278.510 7   1720090.817 6
  22257487.562   -21735090.155 7 -13229632.095 5
  20944530.933   -31058098.100 8 -17043346.973 6
  24056959.893    -9233061.578 6  -4169791.833 2
  21160333.176   -14655110.532 8  -3424476.769 9
  24413905.895     3599436.496 5  -3693600.968 3
  24324920.898    29942263.978 5  15607379.540 2
  23577735.264    -1727982.825 6  -1719502.560 3
 94  2  7  3  7  0.0000000  0  9  9  2  4 13 12  7 24 27 26
  22965273.062    -4295853.855 6  -9520068.933 4
  21809190.721     7326541.200 7   1746788.992 6
  22241326.770   -21820014.595 7 -13295806.956 5
  20937288.067   -31096169.523 8 -17073012.999 6
  24039343.039    -9325655.024 6  -4241942.551 2
  21169282.581   -14608089.205 8  -3387836.760 9
  24393344.149     3491366.618 5  -3777811.212 3
  24346513.240    30055778.062 5  15695832.062 2
  23588618.030    -1670751.037 5  -1674906.413 3
 94  2  7  3  7 30.0000000  0  9  9  2  4 13 12  7 24 27 26
  22948984.229    -4381401.563 6  -9586729.427 4
  21815765.260     7361066.859 7   1773692.080 6
  22225227.675   -21904613.047 7 -13361727.791 6
  20930146.741   -31133686.498 8 -17102246.988 6
  24021728.883    -9418194.198 6  -4314050.958 2
  21178279.862   -14560808.611 8  -3350994.718 9
  24372787.201     3383322.436 5  -3862001.450 3
  24368142.876    30169428.396 5  15784390.759 2
  23599566.120    -1613241.856 5  -1630094.026 3
 94  2  7  3  8  0.0000000  0  9  9  2  4 13 12  7 24 27 26
  22932754.484    -4466688.715 6  -9653186.896 4
  21822384.528     7395848.134 8   1800794.350 6
  22209188.839   -21988882.771 7 -13427392.477 6
  20923116.158   -31170653.222 8 -17131052.224 7
  24004128.787    -9510681.512 6  -4386119.014 2
  21187327.508   -14513262.648 8  -3313945.910 9
  24352224.766     3275289.490 5  -3946182.928 3
  24389803.570    30283227.770 5  15873065.581 2
  23610561.668    -1555471.194 5  -1585077.954 3
 94  2  7  3  8 30.0000000  0  9  9  2  4 13 12  7 24 27 26
  22916580.441    -4551704.142 7  -9719432.693 4
  21829045.047     7430856.457 8   1828073.540 6
  22193220.993   -22072815.792 7 -13492794.799 6
  20916184.027   -31207066.685 8 -17159426.341 7
  23986547.968    -9603112.093 6  -4458142.773 2
  21196425.340   -14465435.475 8  -3276677.979 9
  24331670.035     3167253.333 5  -4030366.918 3
  24411492.505    30397165.103 5  15961847.938 2
  23621602.005    -1497442.388 5  -1539860.736 3
 94  2  7  3  9  0.0000000  0  9  9  2  4 13 12  7 24 27 26
  22900455.235    -4636435.241 7  -9785456.893 5
  21835749.965     7466085.120 7   1855524.434 6
  22177311.906   -22156418.192 7 -13557939.469 6
  20909362.070   -31242921.266 8 -17187364.950 7
  23968964.241    -9695478.253 6  -4530116.374 2
  21205583.580   -14417325.037 8  -3239189.321 9
  24311110.269     3059224.066 5  -4114545.569 3
  24433195.890    30511219.716 5  16050721.628 2
  23632693.906    -1439150.922 5  -1494438.834 3
 94  2  7  3  9 30.0000000  0  9  9  2  4 13 12  7 24 27 26
  22884386.719    -4720883.787 7  -9851260.950 4
  21842492.087     7501521.194 8   1883136.923 6
  22161465.477   -22239692.248 7 -13622828.307 6
  20902643.241   -31278224.060 8 -17214873.602 7
  23951402.069    -9787785.020 6  -4602043.687 2
  21214789.517   -14368947.239 8  -3201492.323 9
  24290559.376     2951208.007 5  -4198713.919 3
  24454911.627    30625381.683 5  16139679.000 2
  23643830.657    -1380597.670 5  -1448812.915 3
 94  2  7  3 10  0.0000000  0  9  9  2  4 13 12  7 24 27 26
  22868368.988    -4805048.559 7  -9916843.903 4
  21849270.845     7537157.121 8   1910905.144 6
  22145680.714   -22322651.207 7 -13687471.639 6
  20896029.340   -31312979.036 8 -17241955.382 7
  23933841.037    -9880034.461 6  -4673926.327 2
  21224046.808   -14320299.960 8  -3163585.362 9
  24269996.491     2843212.181 5  -4282866.450 3
  24476656.893    30739634.438 5  16228707.084 2
  23655026.256    -1321782.955 5  -1402983.261 3
 94  2  7  3 10 30.0000000  0  9  9  2  4 13 12  7 24 27 26
  22852409.956    -4888921.889 7  -9982199.712 4
  21856095.680     7573002.781 8   1938836.795 6
  22129952.133   -22405285.424 7 -13751861.909 6
  20889520.966   -31347177.470 8 -17268603.517 7
  23916302.069    -9972215.512 6  -4745755.701 2
  21233352.816   -14271390.136 8  -3125473.813 9
  24249455.821     2735245.854 5  -4366996.060 3
  24498413.521    30853979.302 5  16317806.963 2
  23666274.979    -1262689.484 5  -1356936.457 3
 94  2  7  3 11  0.0000000  0  9  9  2  4 13 12  7 24 27 26
  22836508.844    -4972495.737 7 -10047322.167 4
  21862960.927     7609081.397 8   1966949.982 6
  22114295.292   -22487588.411 7 -13815994.062 6
  20883118.238   -31380816.762 8 -17294815.921 7
  23898779.289   -10064323.858 6  -4817528.450 2
  21242709.728   -14222225.482 9  -3087163.683 9
  24228916.170     2627320.643 5  -4451093.587 3
  24520198.600    30968427.396 5  16406987.295 2
  23677565.882    -1203321.160 5  -1310675.454 3
 94  2  7  3 11 30.0000000  0  9  9  2  4 13 12  7 24 27 26
  22820664.003    -5055765.763 7 -10112207.887 4
  21869867.546     7645378.079 7   1995233.084 6
  22098694.602   -22569554.074 7 -13879863.395 6
  20876824.485   -31413902.198 8 -17320596.776 7
  23881266.014   -10156362.434 6  -4889246.763 2
  21252114.307   -14172805.546 9  -3048654.646 9
  24208395.586     2519435.199 6  -4535160.108 3
  24542000.437    31082988.723 5  16496255.831 2
  23688920.162    -1143686.897 6  -1264207.144 3
 94  2  7  3 12  0.0000000  0  9  9  2  4 13 12  7 24 27 26
  22804874.504    -5138733.525 7 -10176858.068 4
  21876812.778     7681880.074 7   2023676.198 6
  22083163.224   -22651173.860 7 -13943463.198 6
  20870635.330   -31446432.442 8 -17345944.984 7
  23863758.943   -10248327.801 6  -4960908.044 2
  21261567.783   -14123124.668 9  -3009942.278 9
  24187874.103     2411596.539 5  -4619190.210 3
  24563825.418    31197687.418 5  16585631.421 2
  23700314.973    -1083788.246 5  -1217532.923 3
 94  2  7  3 12 30.0000000  0  9  9  2  4 13 12  7 24 27 26
  22789142.775    -5221410.800 7 -10241281.901 4
  21883797.043     7718586.597 7   2052278.660 6
  22067700.439   -22732429.251 7 -14006779.047 6
  20864546.845   -31478409.054 8 -17370861.817 7
  23846278.435   -10340219.291 6  -5032511.755 2
  21271072.853   -14073178.783 9  -2971023.411 9
  24167359.785     2303811.533 5  -4703178.482 3
  24585673.243    31312531.479 5  16675120.340 2
  23711767.135    -1023623.804 6  -1170651.553 3
 94  2  7  3 13  0.0000000  0  9  9  2  4 13 12  7 24 27 26
  22773458.053    -5303805.964 6 -10305485.898 4
  21890823.458     7755504.098 7   2081045.542 6
  22052308.105   -22813317.527 7 -14069808.850 6
  20858569.343   -31509830.699 8 -17395346.192 7
  23828809.768   -10432033.286 6  -5104055.116 2
  21280627.718   -14022959.064 9  -2931891.150 9
  24146866.302     2196104.928 5  -4787105.652 3
  24607558.572    31427520.188 5  16764721.920 2
  23723263.906     -963205.321 5  -1123572.258 3
 94  2  7  3 13 30.0000000  0  9  9  2  4 13 12  7 24 27 26
  22757836.558    -5385926.901 6 -10369476.194 5
  21897883.810     7792635.042 7   2109978.727 6
  22036988.260   -22893830.212 7 -14132545.990 6
  20852693.591   -31540700.665 8 -17419400.705 7
  23811344.309   -10523770.853 6  -5175538.902 2
  21290237.985   -13972470.235 9  -2892549.206 9
  24126378.965     2088484.829 5  -4870965.436 3
  24629473.041    31542644.010 5  16854428.724 2
  23734804.896     -902535.981 6  -1076297.447 3
 94  2  7  3 14  0.0000000  0  9  9  2  4 13 12  7 24 27 26
  22742256.014    -5467772.022 7 -10433251.592 5
  21904997.496     7829995.453 7   2139090.743 6
  22021737.878   -22973960.201 7 -14194984.903 6
  20846927.592   -31571014.984 8 -17443022.236 7
  23793908.260   -10615425.646 6  -5246958.196 3
  21299896.219   -13921715.043 8  -2852999.700 9
  24105913.184     1980942.931 5  -4954764.281 3
  24651396.293    31657888.992 5  16944230.028 2
  23746404.916     -841611.556 6  -1028823.897 2
 94  2  7  3 14 30.0000000  0  9  9  2  4 13 12  7 24 27 26
  22726742.683    -5549331.055 7 -10496804.036 5
  21912153.512     7867600.093 7   2168393.052 6
  22006560.255   -23053713.603 7 -14257130.382 6
  20841263.374   -31600777.115 8 -17466213.500 7
  23776480.305   -10706998.870 6  -5318313.917 3
  21309598.192   -13870702.649 8  -2813249.777 9
  24085469.137     1873461.751 5  -5038515.770 3
  24673351.054    31773218.948 5  17034097.480 2
  23758038.212     -780451.325 6   -981166.583 2
 94  2  7  3 15  0.0000000  0  9  9  2  4 13 12  7 24 27 26
  22711282.536    -5630578.906 7 -10560114.041 5
  21919357.704     7905448.331 7   2197885.168 6
  21991457.101   -23133096.571 7 -14318987.218 6
  20835701.654   -31629989.016 8 -17488975.996 7
  23759069.079   -10798490.175 6  -5389605.801 3
  21319353.079   -13819451.709 8  -2773313.975 9
  24065021.402     1766041.930 5  -5122219.491 3
  24695300.359    31888627.926 5  17124026.559 2
  23769718.067     -719073.275 6   -933339.549 2
 94  2  7  3 15 30.0000000  0  9  9  2  4 13 12  7 24 27 26
  22695880.129    -5711479.389 7 -10623153.376 5
  21926605.187     7943527.164 7   2227556.960 6
  21976421.640   -23212107.367 7 -14380554.038 6
  20830247.650   -31658645.468 8 -17511305.698 7
  23741680.577   -10889891.749 6  -5460827.774 3
  21329154.344   -13767954.157 8  -2733186.005 9
  24044590.187     1658669.559 5  -5205886.199 3
  24717282.521    32004121.782 5  17214021.752 2
  23781438.962     -657461.079 5   -885330.081 2
 94  2  7  3 16  0.0000000  0  9  9  2  4 13 12  7 24 27 26
  22680557.827    -5792019.504 7 -10685911.868 5
  21933890.384     7981823.043 7   2257397.895 6
  21961453.152   -23290758.692 7 -14441840.762 6
  20824901.960   -31686748.238 8 -17533203.932 7
  23724298.670   -10981202.944 6  -5531979.297 3
  21339000.697   -13716211.371 8  -2692866.955 9
  24024162.538     1551329.235 5  -5289527.918 3
  24739273.048    32119691.848 5  17304076.348 2
  23793207.855     -595622.598 5   -837144.189 2
 94  2  7  3 16 30.0000000  0  9  9  2  4 13 12  7 24 27 26
  22665293.534    -5872206.821 7 -10748395.469 5
  21941220.099     8020338.584 7   2287410.017 6
  21946555.806   -23369053.745 7 -14502849.854 6
  20819657.871   -31714304.231 8 -17554676.130 7
  23706944.254   -11072428.293 6  -5603063.941 3
  21348889.411   -13664238.494 8  -2652368.610 9
  24003740.886     1444035.971 5  -5373133.021 3
  24761284.080    32235336.490 5  17394189.021 2
  23805017.909     -533567.838 6   -788789.890 2
 94  2  7  3 17  0.0000000  0  9  9  2  4 13 12  7 24 27 26
  22650106.468    -5952048.121 7 -10810609.438 5
  21948589.058     8059068.484 7   2317589.136 6
  21931722.075   -23446996.508 7 -14563584.454 6
  20814518.499   -31741315.649 8 -17575723.975 7
  23689596.464   -11163567.655 6  -5674081.628 2
  21358828.731   -13612037.119 8  -2611692.211 9
  23983339.080     1336804.624 5  -5456689.873 3
  24783292.564    32351053.707 5  17484358.327 2
  23816872.992     -471293.091 6   -740264.098 2
 94  2  7  3 17 30.0000000  0  9  9  2  4 13 12  7 24 27 26
  22634972.824    -6031560.079 7 -10872566.795 5
  21956002.536     8098032.300 7   2347950.538 6
  21916959.155   -23524578.859 7 -14624038.211 6
  20809485.073   -31767777.067 8 -17596343.261 7
  23672270.078   -11254612.893 6  -5745025.975 2
  21368802.706   -13559595.007 8  -2570828.220 9
  23962951.094     1229633.357 5  -5540199.902 3
  24805330.967    32466834.649 4  17574577.285 2
  23828765.279     -408791.594 5   -691561.681 2
 94  2  7  3 18  0.0000000  0  9  9  2  4 13 12  7 24 27 26
  22619896.561    -6110777.427 7 -10934294.574 5
  21963463.051     8137244.710 7   2378505.656 6
  21902264.108   -23601790.556 7 -14684203.147 6
  20804555.436   -31793690.841 8 -17616535.799 7
  23654963.210   -11345563.647 6  -5815896.669 2
  21378827.076   -13506928.470 8  -2529789.368 9
  23942570.154     1122540.555 5  -5623648.781 3
  24827378.633    32582670.791 5  17664839.144 2
  23840702.055     -346083.677 5   -642698.353 2
 94  2  7  3 18 30.0000000  0  9  9  2  4 13 12  7 24 27 26
  22604879.538    -6189699.554 7 -10995792.319 5
  21970978.158     8176712.713 7   2409259.936 6
  21887648.266   -23678625.122 7 -14744074.220 6
  20799724.520   -31819055.260 8 -17636300.261 7
  23637672.680   -11436415.896 6  -5886690.586 2
  21388885.083   -13454046.557 8  -2488582.670 9
  23922208.130     1015544.772 5  -5707022.047 3
  24849427.949    32698578.036 5  17755156.468 2
  23852664.614     -283166.981 5   -593672.351 2
 94  2  7  3 19  0.0000000  0  8  9  2  4 13 12  7 24 26
  22589917.825    -6268322.594 7 -11057057.011 5
  21978528.012     8216421.277 7   2440201.680 6
  21873094.542   -23755072.478 7 -14803643.540 6
  20795002.789   -31843870.414 8 -17655636.727 7
  23620404.274   -11527166.969 6  -5957405.672 3
  21398992.616   -13400942.474 8  -2447202.859 9
  23901861.935      908633.304 5  -5790329.685 3
  23864682.574     -220047.171 5   -544488.108 2
 94  2  7  3 19 30.0000000  0  8  9  2  4 13 12  7 24 26
  22575013.733    -6346643.685 7 -11118086.431 5
  21986131.708     8256353.547 7   2471317.714 6
  21858629.166   -23831117.274 7 -14862899.217 6
  20790387.574   -31868137.698 8 -17674546.295 7
  23603159.792   -11617815.480 6  -6028040.808 3
  21409138.642   -13347630.199 8  -2405660.805 9
  23881538.465      801802.591 6  -5873574.379 3
  23876736.359     -156720.666 5   -495142.801 2
 94  2  7  3 20  0.0000000  0  8  9  2  4 13 12  7 24 26
  22560170.379    -6424652.822 7 -11178872.749 5
  21993771.199     8296493.507 7   2502595.591 6
  21844231.123   -23906758.087 7 -14921840.079 6
  20785873.419   -31891855.881 8 -17693027.978 7
  23585928.172   -11708357.626 6  -6098593.140 3
  21419322.472   -13294116.927 8  -2363962.155 9
  23861225.367      695067.254 5  -5956744.736 3
  23888821.203      -93181.839 5   -445632.039 2
 94  2  7  3 20 30.0000000  0  8  9  2  4 13 12  7 24 26
  22545390.131    -6502334.854 7 -11239404.183 5
  22001447.625     8336841.249 7   2534035.383 6
  21829916.693   -23981997.481 7 -14980468.164 6
  20781464.312   -31915025.226 8 -17711081.998 7
  23568721.224   -11798791.033 6  -6169060.707 3
  21429545.334   -13240387.366 8  -2322094.948 9
  23840928.579      588416.367 6  -6039849.296 3
  23900957.851      -29413.305 6   -395942.275 2
 94  2  7  3 21  0.0000000  0  8  9  2  4 13 12  7 24 26
  22530668.133    -6579691.957 7 -11299682.425 5
  22009160.925     8377383.741 7   2565626.916 6
  21815672.954   -24056838.604 7 -15038785.893 6
  20777156.804   -31937647.316 8 -17728709.593 7
  23551526.507   -11889114.243 6  -6239442.399 3
  21439816.074   -13186433.232 8  -2280052.766 9
  23820647.049      481845.845 5  -6122891.276 3
  23913133.982       34583.925 6   -346074.333 3
 94  2  7  3 21 30.0000000  0  8  9  2  4 13 12  7 24 26
  22516006.453    -6656716.927 7 -11359701.859 5
  22016919.764     8418130.478 7   2597377.598 5
  21801501.405   -24131296.678 7 -15096805.151 6
  20772959.020   -31959725.398 8 -17745913.274 7
  23534361.680   -11979327.805 6  -6309738.627 3
  21450122.549   -13132255.713 8  -2237836.512 9
  23800386.625      375370.404 5  -6205859.102 3
  23925365.124       98805.877 5   -296031.260 3
 94  2  7  3 22  0.0000000  0  8  9  2  4 13 12  7 24 26
  22501414.775    -6733398.484 7 -11419453.721 5
  22024711.220     8459100.691 7   2629302.440 5
  21787406.632   -24205375.421 7 -15154528.804 6
  20768861.696   -31981257.060 8 -17762691.172 7
  23517217.689   -12069426.820 6  -6379945.639 3
  21460480.858   -13077829.434 8  -2195426.416 9
  23780146.107      268993.862 5  -6288749.921 3
  23937615.993      163244.572 5   -245819.316 3
 94  2  7  3 22 30.0000000  0  8  9  2  4 13 12  7 24 26
  22486892.918    -6809726.531 7 -11478930.133 5
  22032552.351     8500298.853 7   2661404.887 5
  21773385.549   -24279067.446 7 -15211951.128 6
  20764866.962   -32002246.241 8 -17779046.370 7
  23500096.931   -12159411.953 6  -6450063.894 3
  21470888.693   -13023149.275 8  -2152818.500 9
  23759916.562      162708.133 5  -6371569.931 3
  23949918.127      227881.715 5   -195452.727 2
 94  2  7  3 23  0.0000000  0  8  9  2  4 13 12  7 24 26
  22472437.016    -6885697.658 7 -11538128.372 5
  22040438.152     8541730.864 7   2693689.587 5
  21759434.347   -24352361.767 7 -15269063.556 6
  20760972.957   -32022692.999 8 -17794978.886 7
  23482988.525   -12249280.446 6  -6520091.265 3
  21481335.621   -12968236.791 8  -2110029.570 9
  23739714.568       56531.927 5  -6454304.636 3
  23962251.918      292695.340 5   -144948.628 2
 94  2  7  3 23 30.0000000  0  8  9  2  4 13 12  7 24 26
  22458049.316    -6961313.833 7 -11597050.058 6
  22048372.549     8583427.960 7   2726180.826 5
  21745567.327   -24425239.448 7 -15325851.331 6
  20757187.628   -32042594.242 8 -17810486.330 7
  23465921.371   -12339026.333 7  -6590023.111 3
  21491825.988   -12913100.243 8  -2067066.012 9
  23719531.640      -49523.588 5  -6536945.278 3
  23974622.284      357676.472 5    -94313.967 2
 94  2  7  3 24  0.0000000  0  8  9  2  4 13 12  7 24 26
  22443725.082    -7036583.062 7 -11655701.393 6
  22056358.361     8625397.167 7   2758884.095 5
  21731783.319   -24497692.851 7 -15382308.489 6
  20753505.637   -32061952.451 8 -17825570.640 7
  23448859.522   -12428649.118 6  -6659859.015 3
  21502360.066   -12857757.772 8  -2023942.002 9
  23699370.147     -155466.364 5  -6619498.046 3
  23987013.726      422822.909 5    -43550.486 2
 94  2  7  3 24 30.0000000  0  8  9  2  4 13 12  7 24 26
  22429465.064    -7111512.416 7 -11714087.892 6
  22064392.619     8667637.003 7   2791798.251 5
  21718073.361   -24569720.139 7 -15438433.614 6
  20749924.586   -32080767.148 8 -17840231.440 7
  23431829.572   -12518145.402 6  -6729596.360 3
  21512925.532   -12802232.962 8  -1980675.940 9
  23679234.497     -261283.768 5  -6701953.127 3
  23999447.438      488142.981 5      7348.232 2
 94  2  7  3 25  0.0000000  0  8  9  2  4 13 12  7 24 26
  22415273.549    -7186100.429 7 -11772208.426 6
  22072484.557     8710149.282 7   2824924.671 5
  21704448.063   -24641327.639 7 -15494231.622 6
  20746450.501   -32099035.302 8 -17854466.351 7
  23414824.444   -12607509.213 7  -6799230.450 3
  21523525.713   -12746530.389 8  -1937271.340 9
  23659125.588     -366963.581 5  -6784301.013 3
  24011907.802      553654.298 5     58395.992 2
 94  2  7  3 25 30.0000000  0  8  9  2  4 13 12  7 24 26
  22401143.731    -7260340.862 7 -11830058.097 5
  22080617.537     8752914.789 7   2858248.434 5
  21690898.044   -24712526.468 7 -15549711.213 6
  20743072.800   -32116762.300 8 -17868279.581 7
  23397844.050   -12696742.780 7  -6868763.105 3
  21534161.930   -12690635.536 8  -1893716.900 9
  23639036.795     -472528.480 6  -6866559.347 3
  24024422.488      619365.738 5    109599.693 2
 94  2  7  3 26  0.0000000  0  8  9  2  4 13 12  7 24 26
  22387085.863    -7334215.461 7 -11887622.704 5
  22088808.346     8795907.946 7   2891749.573 5
  21677432.925   -24783315.370 7 -15604871.369 6
  20739804.672   -32133942.532 8 -17881666.765 7
  23380884.850   -12785837.503 6  -6938187.540 3
  21544838.169   -12634529.992 8  -1849998.308 9
  23618967.879     -577977.360 5  -6948727.249 3
  24036965.895      685297.515 5    160975.087 2
 94  2  7  3 26 30.0000000  0  8  9  2  4 13 12  7 24 26
  22373097.037    -7407719.027 7 -11944898.197 5
  22097024.908     8839103.032 7   2925408.083 5
  21664040.447   -24853686.001 7 -15659705.586 6
  20736638.564   -32150579.247 8 -17894630.430 7
  23363964.624   -12874793.387 7  -7007503.783 3
  21555558.567   -12578200.939 8  -1806105.538 9
  23598933.228     -683317.434 6  -7030810.407 3
  24049547.884      751439.736 5    212514.505 2
 94  2  7  3 27  0.0000000  0  8  9  2  4 13 12  7 24 26
  22359183.789    -7480852.972 7 -12001885.683 6
  22105282.901     8882496.318 7   2959221.022 5
  21650730.171   -24923631.903 7 -15714208.851 7
  20733578.732   -32166680.653 8 -17907176.949 7
  23347059.987   -12963615.624 7  -7076715.909 3
  21566320.847   -12521645.885 8  -1762036.683 9
  23578898.998     -788563.256 6  -7112820.099 3
  24062177.031      817764.827 5    264196.361 2
 94  2  7  3 27 30.0000000  0  8  9  2  4 13 12  7 24 26
  22345335.656    -7553612.342 7 -12058581.271 6
  22113580.317     8926098.471 7   2993196.712 5
  21637500.960   -24993134.359 7 -15768366.573 7
  20730614.294   -32182243.657 8 -17919303.965 7
  23330181.881   -13052297.827 7  -7145818.900 3
  21577127.046   -12464849.755 8  -1717779.941 9
  23558888.631     -893708.076 6  -7194751.123 3
  24074815.352      884262.581 5    316012.760 2
 94  2  7  3 28  0.0000000  0  8  9  2  4 13 12  7 24 26
  22331561.602    -7625997.736 7 -12114985.472 6
  22121920.243     8969924.295 7   3027346.706 5
  21624360.277   -25062189.861 7 -15822176.030 7
  20727753.135   -32197269.746 8 -17931012.581 7
  23313337.682   -13140838.391 6  -7214811.565 3
  21587979.353   -12407825.284 8  -1673345.293 8
  23538908.273     -998726.790 6  -7276583.886 3
  24087508.775      950911.301 5    367946.814 2
 94  2  7  3 28 30.0000000  0  8  9  2  4 13 12  7 24 26
  22317861.386    -7698004.090 7 -12171094.297 6
  22130307.087     9014000.566 7   3061691.847 5
  21611305.035   -25130796.023 7 -15875635.341 7
  20724998.342   -32211761.456 8 -17942304.819 7
  23296511.950   -13229236.691 6  -7283693.338 3
  21598868.265   -12350593.021 8  -1628748.730 8
  23518945.033    -1103607.730 6  -7358309.269 3
  24100210.322     1017678.833 5    419973.449 2
 94  2  7  3 29  0.0000000  0  8  9  2  4 13 12  7 24 26
  22304228.324    -7769633.535 7 -12226909.454 6
  22138742.857     9058341.631 7   3096243.337 5
  21598331.876   -25198972.611 7 -15928759.923 7
  20722337.864   -32225721.411 8 -17953182.684 7
  23279719.556   -13317491.938 7  -7352463.628 3
  21609796.059   -12293168.592 8  -1584002.426 8
  23499019.567    -1208329.566 6  -7439910.643 3
  24112937.621     1084565.143 5    472092.663 2
 94  2  7  3 29 30.0000000  0  8  9  2  4 13 12  7 24 26
  22290672.309    -7840878.980 7 -12282425.372 6
  22147233.100     9102949.853 7   3131002.967 5
  21585439.241   -25266723.106 7 -15981552.502 7
  20719784.472   -32239146.723 8 -17963643.974 7
  23262950.544   -13405598.104 7  -7421117.806 3
  21620757.461   -12235557.559 8  -1539110.700 8
  23479124.710    -1312885.127 6  -7521382.473 3
  24125697.207     1151586.473 5    524317.034 2
 94  2  7  3 30  0.0000000  0  9  9  2  4 13 12  7 24 26  5
  22277189.173    -7911744.168 7 -12337644.984 6
  22155772.688     9147816.145 7   3165963.714 5
  21572628.600   -25334049.588 7 -16034014.659 7
  20717333.668   -32252039.655 8 -17973690.406 7
  23246216.010   -13493554.031 6  -7489654.859 3
  21631754.808   -12177786.803 8  -1494094.533 8
  23459257.674    -1417284.373 6  -7602732.518 3
  24138474.752     1218734.790 5    576640.405 2
  24928774.019    -4114158.76815   -142267.935
 94  2  7  3 30 30.0000000  0  9  9  2  4 13 12  7 24 26  5
  22263771.542    -7982236.526 7 -12392574.093 6
  22164355.416     9192930.235 7   3201117.526 5
  21559895.875   -25400943.250 7 -16086139.572 7
  20714979.968   -32264401.448 8 -17983322.960 7
  23229507.856   -13581357.622 7  -7558073.222 3
  21642777.667   -12119858.742 8  -1448955.792 8
  23439420.407    -1521545.455 6  -7683974.855 3
  24151280.506     1286025.363 5    629074.558 2
  24913545.162    -4194177.755 5   -204621.163
 94  2  7  3 31  0.0000000  0  9  9  2  4 13 12  7 24 26  5
  22250425.111    -8052363.240 7 -12447218.265 6
  22172984.372     9238277.806 7   3236453.282 5
  21547251.738   -25467400.805 7 -16137924.648 7
  20712728.377   -32276234.954 8 -17992543.887 7
  23212826.415   -13669008.228 7  -7626372.408 3
  21653831.914   -12061768.044 8  -1403690.326 8
  23419596.331    -1625679.269 6  -7765118.081 3
  24164116.180     1353479.742 5    681636.392 2
  24898300.655    -4274253.179 5   -267017.356 1
 94  2  7  3 31 30.0000000  0  9  9  2  4 13 12  7 24 26  5
  22237153.929    -8122123.231 7 -12501576.690 6
  22181659.707     9283857.220 7   3271969.681 5
  21534697.059   -25533391.250 7 -16189345.748 7
  20710575.297   -32287538.597 8 -18001351.926 7
  23196176.091   -13756501.160 7  -7694548.696 3
  21664914.971   -12003515.601 8  -1358298.819 8
  23399804.902    -1729694.635 6  -7846169.001 3
  24176975.958     1421085.752 5    734316.388 2
  24883053.361    -4354390.812 5   -329462.196 1
 94  2  7  3 32  0.0000000  0  9  9  2  4 13 12  7 24 26  5
  22223948.790    -8191512.020 7 -12555645.889 6
  22190370.056     9329660.057 7   3307660.192 5
  21522222.695   -25598918.865 7 -16240406.191 7
  20708525.076   -32298314.858 8 -18009749.000 7
  23179560.304   -13843835.310 7  -7762601.262 3
  21676030.586   -11945094.971 8  -1312776.260 8
  23380036.288    -1833582.407 6  -7927120.436 3
  24189869.342     1488833.015 4    787106.463 2
  24867791.226    -4434602.539 5   -391964.864 1
 94  2  7  3 32 30.0000000  0  9  9  2  4 13 12  7 24 26  5
  22210814.253    -8260522.373 7 -12609420.163 6
  22199138.116     9375690.113 7   3343527.762 5
  21509842.646   -25663985.174 7 -16291107.192 7
  20706575.616   -32308563.391 8 -18017734.870 7
  23162974.586   -13931006.751 7  -7830527.046 3
  21687186.793   -11886484.306 8  -1267105.613 8
  23360298.492    -1937320.005 6  -8007954.945 3
  24202791.116     1556726.369 5    840010.340 2
  24852520.968    -4514882.732 5   -454520.795 1
 94  2  7  3 33  0.0000000  0  9  9  2  4 13 12  7 24 26  5
  22197752.656    -8329146.183 7 -12662893.245 6
  22207935.706     9421950.069 7   3379574.472 5
  21497546.958   -25728599.465 7 -16341455.964 7
  20704728.355   -32318287.481 8 -18025312.078 7
  23146411.143   -14018015.588 7  -7898326.133 4
  21698371.630   -11827682.677 8  -1221286.157 8
  23340594.183    -2040890.185 6  -8088658.933 4
  24215741.461     1624747.744 5    893013.968 2
  24837238.747    -4595211.970 5   -517115.017 1
 94  2  7  3 33 30.0000000  0  9  9  2  4 13 12  7 24 26  5
  22184772.512    -8397366.345 7 -12716051.822 6
  22216781.023     9468438.176 7   3415798.953 5
  21485335.812   -25792770.731 7 -16391459.522 7
  20702977.237   -32327485.791 8 -18032479.594 7
  23129885.893   -14104856.751 7  -7965994.539 4
  21709601.556   -11768685.864 8  -1175314.612 8
  23320907.861    -2144291.350 6  -8169231.247 4
  24228696.662     1692886.938 4    946109.482 2
  24821940.158    -4675565.816 5   -579728.386 2
 94  2  7  3 34  0.0000000  0  9  9  2  4 13 12  7 24 26  5
  22171873.102    -8465171.157 7 -12768886.741 6
  22225670.678     9515150.408 7   3452198.050 5
  21473206.119   -25856516.359 7 -16441131.422 7
  20701323.462   -32336166.064 8 -18039243.438 7
  23113390.023   -14191534.601 7  -8033535.702 4
  21720869.765   -11709486.039 8  -1129184.891 8
  23301268.098    -2247525.250 6  -8249673.231 4
  24241690.777     1761140.222 4    999293.850 2
  24806643.338    -4755942.287 5   -642359.393 2
 94  2  7  3 34 30.0000000  0  9  9  2  4 13 12  7 24 26  5
  22159050.259    -8532556.168 7 -12821394.549 6
  22234605.963     9562104.765 7   3488785.866 5
  21461159.379   -25919827.812 7 -16490464.993 7
  20699768.468   -32344327.698 8 -18045603.171 7
  23096929.079   -14278044.941 7  -8100946.372 4
  21732170.382   -11650092.931 8  -1082904.554 8
  23281660.981    -2350588.018 6  -8329981.852 4
  24254698.382     1829509.367 5   1052568.464 2
  24791340.702    -4836335.479 5   -705003.455 2
 94  2  7  3 35  0.0000000  0  9  9  2  4 13 12  7 24 26  5
  22146303.593    -8599508.461 7 -12873565.140 6
  22243590.203     9609308.305 7   3525567.832 5
  21449195.951   -25982694.130 7 -16539451.696 7
  20698317.413   -32351968.714 8 -18051557.201 7
  23080497.244   -14364382.083 7  -8168222.024 4
  21743508.442   -11590511.849 8  -1036477.742 8
  23262071.703    -2453490.177 6  -8410165.344 4
  24267727.872     1898002.941 4   1105940.113 2
  24776041.393    -4916757.922 5   -767670.238 2
 94  2  7  3 35 30.0000000  0  9  9  2  4 13 12  7 24 26  5
  22133651.872    -8666034.178 7 -12925403.358 6
  22252618.243     9656758.186 7   3562541.726 5
  21437317.214   -26045104.353 7 -16588083.010 7
  20696959.383   -32359094.912 8 -18057110.068 7
  23064108.070   -14450548.182 7  -8235364.436 4
  21754877.891   -11530755.288 8   -989914.184 8
  23242514.022    -2556237.055 6  -8490227.828 4
  24280793.726     1966613.812 5   1159403.117 2
  24760729.014    -4997239.188 5   -830382.890 2
 94  2  7  3 36  0.0000000  0  9  9  2  4 13 12  7 24 26  5
  22121068.893    -8732148.405 7 -12976920.916 6
  22261703.393     9704478.117 7   3599726.081 5
  21425531.953   -26107029.368 7 -16636336.253 7
  20695701.364   -32365700.753 8 -18062257.485 7
  23047738.293   -14536534.144 7  -8302366.472 5
  21766284.665   -11470824.009 8   -943214.518 8
  23223002.750    -2658798.928 6  -8570146.155 4
  24293874.181     2035351.610 5   1212965.001 1
  24745395.019    -5077782.709 4   -893144.017 2
 94  2  7  3 36 30.0000000  0  9  9  2  4 13 12  7 24 26  5
  22108564.219    -8797869.865 7 -13028132.453 6
  22270831.954     9752468.754 7   3637121.385 5
  21413846.163   -26168460.245 7 -16684204.440 7
  20694544.525   -32371781.281 8 -18066995.543 7
  23031419.210   -14622331.455 7  -8369221.500 5
  21777721.957   -11410730.417 8   -896388.352 8
  23203526.733    -2761169.331 6  -8649915.297 4
  24306973.552     2104223.898 4   1266631.728 2
  24730055.779    -5158381.562 4   -955948.244 2
 94  2  7  3 37  0.0000000  0  9  9  2  4 13 12  7 24 26  5
  22096129.578    -8863210.937 7 -13079047.568 6
  22280016.575     9800712.220 7   3674713.681 5
  21402251.869   -26229389.086 8 -16731681.446 7
  20693489.106   -32377344.820 8 -18071330.768 7
  23015121.893   -14707944.582 7  -8435932.994 5
  21789184.881   -11350478.883 8   -849439.102 8
  23184078.087    -2863362.532 6  -8729546.331 4
  24320101.014     2173210.576 4   1320387.552 2
  24714719.985    -5239055.153 4  -1018810.730 2
 94  2  7  3 37 30.0000000  0  9  9  2  4 13 12  7 24 26  5
  22083765.687    -8928172.962 7 -13129667.316 6
  22289241.669     9849215.106 7   3712508.116 5
  21390753.599   -26289816.427 8 -16778767.646 7
  20692527.431   -32382387.749 8 -18075260.323 7
  22998866.966   -14793366.344 7  -8502495.385 5
  21800683.571   -11290074.763 8   -802370.947 8
  23164672.671    -2965352.405 6  -8809018.945 4
  24333242.537     2242295.709 4   1374220.109 2
  24699341.382    -5319784.320 4  -1081716.531 2
 94  2  7  3 38  0.0000000  0  9  9  2  4 13 12  7 24 26  5
  22071479.293    -8992748.242 7 -13179985.727 6
  22298520.995     9897968.577 7   3750497.812 5
  21379344.908   -26349754.172 8 -16825472.352 7
  20691666.697   -32386911.675 8 -18078785.464 7
  22982649.903   -14878594.450 7  -8568906.886 5
  21812202.257   -11229519.006 8   -755184.691 8
  23145302.630    -3067139.226 6  -8888333.356 4
  24346414.218     2311484.653 4   1428133.488 2
  24683982.415    -5400560.024 5  -1144658.558 2
 94  2  7  3 38 30.0000000  0  9  9  2  4 13 12  7 24 26  5
  22059269.346    -9056909.154 7 -13229981.249 6
  22307840.943     9946959.786 7   3788672.765 5
  21368029.901   -26409211.821 8 -16871802.958 7
  20690904.175   -32390915.309 8 -18081905.171 7
  22966467.825   -14963623.690 7  -8635163.439 5
  21823754.069   -11168812.011 8   -707880.544 8
  23125971.803    -3168728.901 6  -8967494.122 4
  24359602.448     2380778.163 4   1482128.421 2
  24668602.042    -5481383.389 5  -1207637.785 2
 94  2  7  3 39  0.0000000  0  9  9  2  4 13 12  7 24 26  5
  22047138.933    -9120638.693 7 -13279640.610 6
  22317214.914     9996190.910 7   3827034.658 5
  21356807.230   -26468202.286 8 -16917769.506 7
  20690240.495   -32394404.945 8 -18084624.361 7
  22950328.498   -15048456.711 7  -8701267.044 5
  21835335.592   -11107957.674 8   -660461.593 8
  23106674.252    -3270118.846 6  -9046499.243 4
  24372806.627     2450157.032 4   1536189.836 2
  24653207.669    -5562257.116 5  -1270656.290 2
 94  2  7  3 39 30.0000000  0  9  9  2  4 13 12  7 24 26  5
  22035094.591    -9183937.366 7 -13328964.258 6
  22326623.780    10045650.913 7   3865574.894 5
  21345668.201   -26526747.477 8 -16963389.129 7
  20689670.979   -32397385.639 8 -18086946.981 7
  22934215.343   -15133095.009 7  -8767218.950 5
  21846944.695   -11046968.945 8   -612937.936 8
  23087415.135    -3371313.367 6  -9125352.092 5
  24386032.241     2519627.326 4   1590322.528 2
  24637814.166    -5643168.877 5  -1333704.347 2
 94  2  7  3 40  0.0000000  0  9  9  2  4 13 12  7 24 26  5
  22023135.361    -9246787.224 7 -13377938.162 6
  22336078.665    10095345.862 7   3904298.217 5
  21334616.412   -26584819.615 8 -17008640.130 7
  20689204.622   -32399845.451 8 -18088863.730 8
  22918156.750   -15217522.290 7  -8833006.440 5
  21858576.462   -10985823.599 8   -565292.226 7
  23068195.561    -3472317.661 6  -9204056.716 5
  24399263.192     2589211.070 4   1644543.551 2
  24622405.853    -5724113.964 5  -1396778.405 2
 94  2  7  3 40 30.0000000  0  9  9  2  4 13 12  7 24 26  5
  22011258.453    -9309209.807 7 -13426579.152 6
  22345581.426    10145267.259 7   3943197.987 5
  21323646.976   -26642429.761 7 -17053531.128 7
  20688835.577   -32401802.183 8 -18090388.453 8
  22902124.629   -15301752.751 7  -8898640.545 4
  21870242.017   -10924535.330 8   -517535.160 7
  23049007.164    -3573152.533 6  -9282629.342 5
  24412508.892     2658872.337 4   1698824.998 2
  24606991.454    -5805103.065 5  -1459886.681 2
 94  2  7  3 41  0.0000000  0  9  9  2  4 13 12  7 24 26  5
  21999459.491    -9371211.944 7 -13474892.510 6
  22355123.340    10195427.638 7   3982283.957 5
  21312781.179   -26699558.345 8 -17098046.889 7
  20688557.610   -32403253.299 8 -18091519.205 8
  22886135.408   -15385780.079 7  -8964116.377 4
  21881933.653   -10863094.570 8   -469659.234 7
  23029850.606    -3673814.368 6  -9361067.118 4
  24425786.160     2728599.945 4   1753158.201 2
  24591580.593    -5886123.137 4  -1523019.207 2
 94  2  7  3 41 30.0000000  0  9  9  2  4 13 12  7 24 26  5
  21987737.456    -9432795.303 7 -13522879.545 6
  22364718.647    10245825.443 7   4021554.954 5
  21302005.648   -26756172.505 8 -17142161.804 7
  20688377.614   -32404194.491 8 -18092252.613 8
  22870193.165   -15469595.876 7  -9029427.367 4
  21893657.456   -10801485.753 8   -421652.372 7
  23010725.976    -3774300.767 6  -9439368.200 5
  24439071.163     2798414.572 4   1807559.218 2
  24576155.911    -5967166.745 5  -1586169.985 2
 94  2  7  3 42  0.0000000  0  9  9  2  4 13 12  7 24 26  5
  21976100.053    -9493957.222 8 -13570538.210 6
  22374351.489    10296473.418 6   4061020.877 5
  21291329.200   -26812272.928 7 -17185876.399 7
  20688291.364   -32404632.483 8 -18092593.880 8
  22854276.883   -15553203.061 7  -9094575.830 4
  21905412.139   -10739700.692 8   -373508.186 7
  22991642.537    -3874598.118 6  -9517521.968 5
  24452382.878     2868298.715 5   1862014.343 2
  24560728.711    -6048243.810 5  -1649346.864 2
 94  2  7  3 42 30.0000000  0  9  9  2  4 13 12  7 24 26  5
  21964545.332    -9554700.845 8 -13617870.915 6
  22384040.062    10347382.161 6   4100689.983 5
  21280751.712   -26867866.106 7 -17229195.745 7
  20688307.823   -32404568.808 8 -18092544.277 8
  22838406.380   -15636598.947 7  -9159559.620 4
  21917200.218   -10677748.280 8   -325233.598 7
  22972602.718    -3974698.092 6  -9595521.935 5
  24465691.984     2938250.199 4   1916521.975 2
  24545288.380    -6129354.076 5  -1712549.638 2
 94  2  7  3 43  0.0000000  0  9  9  2  4 13 12  7 24 26  5
  21953059.413    -9615023.602 7 -13664875.657 6
  22393782.597    10398557.385 6   4140566.768 5
  21270268.210   -26922952.992 7 -17272120.567 7
  20688414.249   -32404004.369 8 -18092104.468 8
  22822579.617   -15719780.648 7  -9224376.514 4
  21929023.253   -10615630.554 8   -276830.176 7
  22953593.988    -4074596.081 6  -9673364.508 5
  24479013.771     3008285.552 4   1971094.954 2
  24529848.619    -6210502.299 5  -1775782.006 2
 94  2  7  3 43 30.0000000  0  9  9  2  4 13 12  7 24 26  5
  21941667.510    -9674907.423 7 -13711538.416 6
  22403569.112    10450002.081 7   4180653.515 4
  21259882.859   -26977536.183 8 -17314652.899 7
  20688616.249   -32402934.501 8 -18091270.808 8
  22806789.638   -15802739.368 7  -9289019.683 4
  21940874.589   -10553342.159 7   -228293.813 7
  22934619.523    -4174279.689 6  -9751040.036 5
  24492361.551     3078420.149 4   2025745.266 2
  24514406.040    -6291686.265 5  -1839042.192 2
 94  2  7  3 44  0.0000000  0  9  9  2  4 13 12  7 24 26  5
  21930359.308    -9734343.935 8 -13757852.587 7
  22413412.168    10501712.034 7   4220946.961 4
  21249584.689   -27031642.695 7 -17356813.784 7
  20688915.052   -32401367.416 8 -18090049.668 8
  22791048.046   -15885479.273 7  -9353492.319 4
  21952754.644   -10490899.864 7   -179637.518 7
  22915687.360    -4273747.758 6  -9828547.609 5
  24505724.230     3148635.638 3   2080458.655 2
  24498948.471    -6372922.045 5  -1902342.797 2
 94  2  7  3 44 30.0000000  0  9  9  2  4 13 12  7 24 26  5
  21919130.732    -9793335.982 8 -13803820.442 7
  22423294.436    10553675.518 6   4261437.940 4
  21239382.272   -27085257.883 8 -17398591.846 7
  20689309.129   -32399304.716 8 -18088442.373 8
  22775341.439   -15967998.192 7  -9417792.780 4
  21964668.007   -10428315.363 8   -130870.401 7
  22896798.786    -4373008.963 6  -9905893.987 5
  24519102.169     3218937.391 4   2135239.204 2
  24483479.420    -6454202.895 5  -1965678.506 2
 94  2  7  3 45  0.0000000  0  9  9  2  4 13 12  7 24 26  5
  21907992.482    -9851877.567 7 -13849437.266 7
  22433234.805    10605868.645 6   4302107.883 4
  21229273.870   -27138380.659 8 -17439986.197 7
  20689792.275   -32396754.265 8 -18086455.013 8
  22759684.388   -16050299.603 7  -9481923.728 5
  21976603.944   -10365596.204 7    -81998.346 7
  22877951.404    -4472055.582 6  -9983073.160 5
  24532497.945     3289312.743 4   2190077.065 2
  24467994.270    -6535523.718 5  -2029045.326 2
 94  2  7  3 45 30.0000000  0  9  9  2  4 13 12  7 24 26  5
  21896942.552    -9909941.688 7 -13894682.028 7
  22443209.319    10658300.825 6   4342964.118 4
  21219261.521   -27190991.208 8 -17480981.402 7
  20690373.812   -32393704.209 8 -18084078.343 8
  22744067.690   -16132367.574 7  -9545872.818 5
  21988565.603   -10302737.449 7    -33017.498 7
  22859154.657    -4570855.359 6 -10060059.983 5
  24545902.176     3359764.963 4   2244974.902 2
  24452519.163    -6616866.245 5  -2092429.068 1
 94  2  7  3 46  0.0000000  0  9  9  2  4 13 12  7 24 26  5
  21885981.960    -9967550.273 7 -13939571.852 7
  22453233.330    10710969.235 6   4384004.422 4
  21209345.825   -27243100.271 8 -17521585.833 7
  20691046.547   -32390169.519 8 -18081324.051 8
  22728490.324   -16214213.040 7  -9609648.493 5
  22000547.228   -10239770.804 7     16047.398 7
  22840394.664    -4669417.952 6 -10136861.993 5
  24559314.201     3430270.592 3   2299914.395 2
  24437043.337    -6698245.273 5  -2155841.362 2
 94  2  7  3 46 30.0000000  0  9  9  2  4 13 12  7 24 26  5
  21875100.963   -10024708.186 7 -13984110.494 7
  22463302.519    10763889.099 6   4425240.647 4
  21199527.233   -27294698.666 8 -17561792.353 7
  20691811.797   -32386149.392 8 -18078191.484 7
  22712959.605   -16295831.154 7  -9673247.003 5
  22012547.470   -10176706.687 7     65188.253 7
  22821690.522    -4767733.615 6 -10213471.596 5
  24572736.988     3500823.484 4   2354890.596 1
  24421543.497    -6779653.520 5  -2219276.234 2
 94  2  7  3 47  0.0000000  0  9  9  2  4 13 12  7 24 26  5
  21864313.111   -10081409.049 7 -14028292.984 7
  22473415.628    10817069.378 6   4466679.790 4
  21189805.113   -27345800.631 8 -17601612.040 7
  20692668.754   -32381645.617 8 -18074682.051 7
  22697472.357   -16377219.424 7  -9736666.426 5
  22024567.619   -10113538.314 7    114410.354 7
  22803025.864    -4865795.696 6 -10289883.598 5
  24586167.750     3571410.206 4   2409893.198 1
  24406047.465    -6861104.761 5  -2282744.716 2
 94  2  7  3 47 30.0000000  0  9  9  2  4 13 12  7 24 26  5
  21853612.199   -10137657.853 7 -14072123.262 7
  22483593.852    10870520.593 6   4508330.066 4
  21180174.340   -27396411.179 8 -17641048.799 7
  20693613.699   -32376658.477 8 -18070795.970 7
  22682026.330   -16458373.951 7  -9799903.728 5
  22036604.646   -10050256.736 7    163720.658 7
  22784417.266    -4963613.175 6 -10366105.006 5
  24599607.386     3642026.274 4   2464918.730 1
  24390535.634    -6942614.043 5  -2346258.391 2
 94  2  7  3 48  0.0000000  0  9  9  2  4 13 12  7 24 26  5
  21842987.494   -10193465.127 7 -14115609.470 7
  22493814.047    10924230.689 6   4550182.064 4
  21170636.084   -27446529.716 8 -17680102.200 7
  20694657.397   -32371190.729 8 -18066535.401 8
  22666628.450   -16539293.230 7  -9862957.713 5
  22048678.967    -9986852.839 8    213126.285 7
  22765837.569    -5061205.275 6 -10442150.783 5
  24613058.414     3712667.127 4   2519963.509 1
  24375008.932    -7024188.889 5  -2409823.191 2
 94  2  7  3 48 30.0000000  0  9  9  2  4 13 12  7 24 26  5
  21832456.205   -10248808.839 7 -14158734.447 7
  22504079.060    10978185.083 7   4592224.435 4
  21161195.949   -27496138.495 8 -17718758.363 7
  20695791.392   -32365235.848 8 -18061895.230 8
  22651276.797   -16619966.490 7  -9925819.968 5
  22060764.980    -9923298.962 7    262648.779 7
  22747316.451    -5158567.581 6 -10518017.497 5
  24626498.020     3783336.201 4   2575030.368 1
  24359474.557    -7105818.128 5  -2473430.398 2
 94  2  7  3 49  0.0000000  0  9  9  2  4 13 12  7 24 26  5
  21822013.295   -10303684.394 7 -14201494.628 7
  22514387.964    11032355.888 6   4634435.403 4
  21151854.326   -27545231.330 8 -17757012.499 7
  20697019.641   -32358795.264 8 -18056876.595 8
  22635971.223   -16700391.045 7  -9988488.467 5
  22072893.504    -9859582.735 7    312297.789 7
  22728827.230    -5255709.507 6 -10593712.483 5
  24639946.710     3854037.280 3   2630122.069 1
  24343933.436    -7187493.244 5  -2537073.351 2
 94  2  7  3 49 30.0000000  0  9  9  2  4 13 12  7 24 26  5
  21811662.960   -10358095.811 7 -14243893.146 7
  22524737.609    11086738.106 6   4676811.173 4
  21142611.035   -27593802.617 8 -17794860.235 8
  20698333.002   -32351876.299 8 -18051485.189 8
  22620712.866   -16780569.756 7 -10050965.372 5
  22085048.559    -9795720.249 8    362060.760 7
  22710379.591    -5352639.229 6 -10669242.127 5
  24653410.149     3924770.589 3   2685238.916 1
  24328382.421    -7269212.310 5  -2600750.476 2
 94  2  7  3 50  0.0000000  0  9  9  2  4 13 12  7 24 26  5
  21801400.614   -10412031.378 7 -14285920.892 6
  22535130.124    11141347.613 6   4719363.990 4
  21133467.305   -27641840.784 8 -17832292.560 8
  20699741.637   -32344478.884 8 -18045720.975 8
  22605507.573   -16860498.576 7 -10113247.557 5
  22097223.311    -9731715.943 7    411934.246 7
  22691982.108    -5449346.921 6 -10744598.752 5
  24666865.734     3995536.677 3   2740381.274 1
  24312835.814    -7350961.453 5  -2664451.008 2
 94  2  7  3 50 30.0000000  0  9  9  2  4 13 12  7 24 26  5
  21791228.117   -10465480.380 7 -14327569.486 6
  22545565.210    11196201.553 6   4762107.285 4
  21124430.361   -27689341.499 8 -17869306.078 8
  20701240.090   -32336601.416 8 -18039582.679 8
  22590341.372   -16940171.492 7 -10175330.330 5
  22109432.868    -9667584.068 8    461907.166 7
  22673620.659    -5545816.431 6 -10819769.794 5
  24680352.857     4066333.632 4   2795547.697 1
  24297261.656    -7432729.645 5  -2728166.513 2
 94  2  7  3 51  0.0000000  0  9  9  2  4 13 12  7 24 26  5
  21781147.146   -10518460.298 7 -14368852.565 6
  22556058.636    11251319.728 6   4805056.508 4
  21115491.599   -27736311.863 8 -17905906.345 8
  20702829.559   -32328251.839 9 -18033076.518 7
  22575233.421   -17019591.992 7 -10237216.447 5
  22121654.987    -9603339.007 7    511968.219 7
  22655315.152    -5642043.146 6 -10894751.623 5
  24693821.753     4137160.745 4   2850737.622 1
  24281701.618    -7514525.189 5  -2791903.266 2
 94  2  7  3 51 30.0000000  0  9  9  2  4 13 12  7 24 26  5
  21771151.795   -10570973.467 7 -14409771.932 6
  22566595.831    11306729.592 6   4848232.995 4
  21106657.615   -27782747.322 8 -17942089.810 8
  20704509.836   -32319429.962 8 -18026202.347 7
  22560169.330   -17098755.652 7 -10298902.429 5
  22133901.689    -9538982.252 8    562116.367 7
  22637047.538    -5738010.362 6 -10969531.257 5
  24707302.520     4208010.998 4   2905945.623 1
  24266132.316    -7596346.112 5  -2855659.802 2
 94  2  7  3 52  0.0000000  0  9  9  2  4 13 12  7 24 26  5
  21761244.164   -10623030.065 8 -14450335.532 6
  22577193.944    11362411.905 6   4891621.785 4
  21097923.192   -27828646.744 8 -17977855.561 8
  20706276.213   -32310137.606 8 -18018961.538 8
  22545153.235   -17177659.841 8 -10360386.223 5
  22146168.417    -9474519.456 7    612347.112 7
  22618840.453    -5833708.318 6 -11044101.076 5
  24720795.519     4278879.001 4   2961167.351 1
  24250562.055    -7678188.963 5  -2919433.449 2
 94  2  7  3 52 30.0000000  0  9  9  2  4 13 12  7 24 26  5
  21751426.171   -10674641.001 8 -14490551.851 6
  22587846.020    11418352.455 6   4935211.796 4
  21089287.010   -27874015.784 8 -18013208.049 8
  20708132.258   -32300376.062 8 -18011355.155 8
  22530186.846   -17256301.589 7 -10421665.509 5
  22158459.668    -9409956.631 7    662655.834 7
  22600681.064    -5929133.014 6 -11118457.968 5
  24734292.925     4349758.011 4   3016397.774 1
  24234982.771    -7760056.851 5  -2983226.596 2
 94  2  7  3 53  0.0000000  0  9  9  2  4 13 12  7 24 26  5
  21741689.422   -10725803.109 8 -14530418.484 6
  22598535.719    11474559.861 6   4979009.764 4
  21080754.078   -27918848.002 8 -18048142.224 8
  20710082.019   -32290141.047 8 -18003379.821 8
  22515273.341   -17334672.170 7 -10482733.489 5
  22170760.632    -9345275.766 7    713056.532 7
  22582575.099    -6024270.894 6 -11192591.364 5
  24747789.642     4420651.041 4   3071639.097 2
  24219401.687    -7841947.682 5  -3047037.633 2
 94  2  7  3 53 30.0000000  0  9  9  2  4 13 12  7 24 26  5
  21732039.372   -10776512.225 8 -14569932.087 6
  22609277.103    11531002.011 6   5022990.621 4
  21072323.134   -27963159.726 8 -18082670.817 8
  20712118.659   -32279442.100 8 -17995042.985 8
  22500410.560   -17412776.723 7 -10543594.157 5
  22183089.717    -9280485.424 7    763542.511 7
  22564527.413    -6119124.704 7 -11266503.390 5
  24761265.762     4491546.772 4   3126882.496 1
  24203812.479    -7923875.167 5  -3110877.193 2
 94  2  7  3 54  0.0000000  0  9  9  2  4 13 12  7 24 26  5
  21722481.719   -10826747.717 8 -14609076.662 6
  22620061.178    11587676.554 6   5067152.577 4
  21063991.482   -28006947.233 8 -18116790.932 8
  20714242.478   -32268274.426 8 -17986340.903 8
  22485600.123   -17490606.216 7 -10604240.511 5
  22195443.474    -9215584.607 7    814114.601 7
  22546526.794    -6213695.014 6 -11340194.521 5
  24774758.851     4562455.437 4   3182136.004 1
  24188210.350    -8005844.174 5  -3174749.138 2
 94  2  7  3 54 30.0000000  0  9  9  2  4 13 12  7 24 26  5
  21713014.753   -10876488.287 8 -14647835.562 6
  22630891.960    11644606.514 6   5111513.588 4
  21055759.931   -28050212.098 8 -18150503.795 8
  20716456.146   -32256639.771 8 -17977274.943 8
  22470843.409   -17568157.735 7 -10664670.283 5
  22207813.091    -9150563.586 7    864780.349 7
  22528590.961    -6307973.739 6 -11413658.459 5
  24788259.915     4633377.139 4   3237399.609 1
  24172597.099    -8087864.197 5  -3238660.828 2
 94  2  7  3 55  0.0000000  0  9  9  2  4 13 12  7 24 26  5
  21703644.739   -10925727.614 8 -14686203.904 7
  22641776.314    11701787.621 6   5156070.295 4
  21047625.332   -28092952.151 8 -18183807.718 8
  20718758.222   -32244541.953 8 -17967848.072 8
  22456140.777   -17645430.716 8 -10724883.016 5
  22220212.267    -9085413.729 7    915546.497 7
  22510707.801    -6401956.823 7 -11486892.018 5
  24801755.792     4704320.219 4   3292679.913 1
  24156978.452    -8169933.776 5  -3302611.109 3
 94  2  7  3 55 30.0000000  0  9  9  2  4 13 12  7 24 26  5
  21694371.529   -10974456.341 8 -14724174.348 7
  22652704.829    11759211.758 6   5200816.344 4
  21039591.764   -28135159.902 8 -18216696.857 8
  20721150.446   -32231979.692 8 -17958059.282 8
  22441488.841   -17722419.317 8 -10784874.138 5
  22232636.416    -9020142.251 7    966407.396 7
  22492873.328    -6495656.526 7 -11559904.743 5
  24815260.872     4775288.444 4   3347979.802 1
  24141363.072    -8252038.534 5  -3366588.854 2
 94  2  7  3 56  0.0000000  0  9  9  2  4 13 12  7 24 26  5
  21685195.871   -11022670.215 8 -14761743.615 7
  22663683.498    11816908.846 6   5245775.110 4
  21031665.881   -28176819.626 8 -18249158.970 8
  20723627.991   -32218947.736 8 -17947904.516 8
  22426895.963   -17799113.850 7 -10844636.080 6
  22245078.672    -8954748.739 7   1017363.397 6
  22475096.654    -6589079.760 7 -11632702.034 5
  24828779.414     4846282.031 4   3403299.448 1
  24125726.407    -8334157.575 4  -3430577.677 2
 94  2  7  3 56 30.0000000  0  9  9  2  4 13 12  7 24 26  5
  21676118.845   -11070376.953 8 -14798917.733 7
  22674716.910    11874887.046 6   5290952.918 4
  21023843.156   -28217920.598 8 -18281185.682 8
  20726198.351   -32205444.255 8 -17937382.314 7
  22412361.815   -17875508.033 8 -10904164.002 6
  22257546.621    -8889227.047 7   1068419.264 6
  22457369.117    -6682227.320 7 -11705284.532 5
  24842283.355     4917298.940 4   3458637.251 1
  24110105.062    -8416271.938 5  -3494562.844 2
 94  2  7  3 57  0.0000000  0  9  9  2  4 13 12  7 24 26  5
  21667130.018   -11117596.614 8 -14835712.274 7
  22685801.137    11933127.687 6   5336335.230 4
  21016128.537   -28258472.929 8 -18312784.885 8
  20728853.283   -32191482.611 8 -17926503.115 7
  22397874.464   -17951610.639 8 -10963464.757 6
  22270035.645    -8823597.928 7   1119558.884 6
  22439693.354    -6775128.325 7 -11777674.904 5
  24855803.156     4988322.984 4   3513980.637 1
  24094484.525    -8498366.432 5  -3558532.579 2
 94  2  7  3 57 30.0000000  0  9  9  2  4 13 12  7 24 26  5
  21658241.591   -11164316.343 8 -14872117.254 7
  22696938.127    11991644.474 6   5381932.697 4
  21008516.926   -28298468.983 8 -18343950.624 8
  20731597.584   -32177060.667 9 -17915265.213 7
  22383451.719   -18027415.141 8 -11022533.184 6
  22282539.869    -8757873.504 7   1170772.750 6
  22422056.563    -6867791.138 6 -11849879.675 5
  24869318.099     5059341.224 3   3569319.527 1
  24078869.356    -8580431.502 5  -3622479.300 2
 94  2  7  3 58  0.0000000  0  9  9  2  4 13 12  7 24 26  5
  21649446.700   -11210542.712 8 -14908137.844 7
  22708123.803    12050446.164 6   5427752.180 4
  21001012.102   -28337914.291 8 -18374687.214 8
  20734434.310   -32162182.424 9 -17903671.794 7
  22369078.619   -18102920.886 8 -11081368.819 6
  22295066.816    -8692052.244 7   1222062.065 6
  22404472.896    -6960199.650 6 -11921886.294 5
  24882836.701     5130347.523 3   3624649.104 1
  24063255.325    -8662487.011 5  -3686418.621 2
 94  2  7  3 58 30.0000000  0  9  9  2  4 13 12  7 24 26  5
  21640742.646   -11256273.168 7 -14943771.982 7
  22719370.547    12109518.117 6   5473782.239 4
  20993607.018   -28376809.539 8 -18404995.191 8
  20737347.453   -32146849.005 9 -17891723.683 7
  22354769.405   -18178124.422 8 -11139969.002 6
  22307616.608    -8626131.277 7   1273429.052 6
  22386938.365    -7052334.828 7 -11993679.925 5
  24896339.173     5201332.566 3   3679962.121 1
  24047638.236    -8744542.084 5  -3750357.657 2
 94  2  7  3 59  0.0000000  0  9  9  2  4 13 12  7 24 26  5
  21632132.936   -11301501.942 7 -14979015.201 7
  22730656.174    12168854.039 6   5520018.017 4
  20986314.507   -28415153.665 8 -18434873.699 9
  20740351.403   -32131062.812 9 -17879422.738 7
  22340517.302   -18253023.866 8 -11198332.212 6
  22320178.902    -8560117.428 7   1324868.429 6
  22369464.032    -7144175.356 7 -12065243.938 5
  24909840.356     5272286.831 3   3735251.113 1
  24032019.349    -8826614.140 5  -3814309.842 2
 94  2  7  3 59 30.0000000  0  9  9  2  4 13 12  7 24 26  5
  21623628.843   -11346223.798 8 -15013863.396 7
  22741992.586    12228453.077 6   5566458.822 3
  20979121.257   -28452946.716 8 -18464322.802 9
  20743441.005   -32114826.400 9 -17866770.975 7
  22326323.778   -18327616.850 8 -11256456.604 6
  22332752.917    -8494001.399 7   1376387.434 6
  22352044.202    -7235691.009 6 -12136554.795 5
  24923331.167     5343203.713 3   3790511.011 1
  24016390.509    -8908746.073 5  -3878308.715 2
 94  2  7  4  0  0.0000000  0  9  9  2  4 13 12  7 24 26  5
  21615207.223   -11390456.565 8 -15048330.496 7
  22753385.989    12288300.677 6   5613093.297 3
  20972033.293   -28490197.717 8 -18493349.550 9
  20746613.528   -32098149.130 8 -17853775.706 7
  22312186.795   -18401908.293 8 -11314346.052 6
  22345357.511    -8427777.253 7   1427990.701 6
  22334698.210    -7326872.786 7 -12207605.516 6
  24936819.189     5414084.102 3   3845742.492 1
  24000751.835    -8990951.929 5  -3942365.208 2
 94  2  7  4  0 30.0000000  0  8  9  2  4 13 12  7 24  5
  21606887.893   -11434186.239 8 -15082405.588 7
  22764816.446    12348388.821 6   5659915.207 3
  20965049.178   -28526899.056 8 -18521947.978 9
  20749869.274   -32081033.385 8 -17840438.767 7
  22298108.361   -18475895.839 8 -11371998.708 6
  22357977.754    -8361444.036 7   1479678.918 6
  22317407.620    -7417718.323 7 -12278394.225 6
  23985097.842    -9073221.046 6  -4006470.990 2
 94  2  7  4  1  0.0000000  0  8  9  2  4 13 12  7 24  5
  21598662.097   -11477409.413 8 -15116086.015 7
  22776301.704    12408726.201 6   5706931.355 3
  20958168.552   -28563048.613 8 -18550116.456 9
  20753210.611   -32063480.677 8 -17826761.316 7
  22284087.367   -18549576.426 8 -11429412.163 6
  22370621.741    -8294999.604 7   1531453.801 6
  22300185.803    -7508226.707 7 -12348920.209 6
  23969428.020    -9155542.356 5  -4070617.422 2
 94  2  7  4  1 30.0000000  0  8  9  2  4 13 12  7 24  5
  21590536.403   -11520118.221 8 -15149365.603 7
  22787834.001    12469312.491 6   5754141.441 3
  20951396.450   -28598647.876 8 -18577856.115 9
  20756636.550   -32045494.765 8 -17812746.329 7
  22270121.895   -18622949.383 8 -11486585.889 6
  22383289.591    -8228440.974 7   1583317.684 6
  22283023.194    -7598415.882 7 -12419197.456 6
  23953751.663    -9237897.919 6  -4134790.579 3
 94  2  7  4  2  0.0000000  0  8  9  2  4 13 12  7 24  5
  21582506.462   -11562310.216 8 -15182242.495 7
  22799409.317    12530156.804 6   5801552.593 3
  20944725.139   -28633685.310 8 -18605157.994 9
  20760141.603   -32027073.205 8 -17798391.864 7
  22256222.408   -18696007.406 8 -11543514.212 6
  22395975.339    -8161782.357 7   1635259.485 6
  22265923.392    -7688304.221 7 -12489240.287 6
  23938086.128    -9320252.771 6  -4198963.159 3
 94  2  7  4  2 30.0000000  0  8  9  2  4 13 12  7 24  5
  21574579.499   -11603978.874 8 -15214711.614 7
  22811040.485    12591268.972 6   5849172.451 3
  20938166.759   -28668155.108 8 -18632017.551 9
  20763727.361   -32008222.697 8 -17783703.160 8
  22242376.193   -18768752.835 8 -11600198.989 6
  22408673.858    -8095040.118 7   1687266.451 6
  22248872.306    -7777894.596 7 -12559050.965 6
  23922411.029    -9402605.947 6  -4263134.456 3
 94  2  7  4  3  0.0000000  0  8  9  2  4 13 12  7 24  5
  21566747.961   -11645124.338 8 -15246773.020 7
  22822723.038    12652650.926 6   5897002.515 3
  20931717.204   -28702054.370 8 -18658432.544 9
  20767399.578   -31988943.534 8 -17768680.426 8
  22228593.925   -18841180.925 8 -11656636.449 6
  22421388.596    -8028227.459 7   1739328.284 6
  22231880.399    -7867185.574 7 -12628628.305 6
  23906746.124    -9484954.010 5  -4327301.777 3
 94  2  7  4  3 30.0000000  0  8  9  2  4 13 12  7 24  5
  21559016.404   -11685750.983 8 -15278430.161 7
  22834448.880    12714299.603 6   5945040.457 3
  20925374.555   -28735383.260 8 -18684403.087 9
  20771144.886   -31969234.823 8 -17753322.986 8
  22214876.081   -18913286.391 8 -11712822.517 6
  22434116.854    -7961348.015 7   1791442.155 6
  22214947.492    -7956168.666 7 -12697965.753 6
  23891074.503    -9567298.008 5  -4391465.907 3
 94  2  7  4  4  0.0000000  0  8  9  2  4 13 12  7 24  5
  21551380.090   -11725871.664 8 -15309693.034 7
  22846231.053    12776214.093 6   5993285.479 3
  20919138.272   -28768149.174 8 -18709934.938 9
  20774977.702   -31949100.719 8 -17737634.080 8
  22201214.269   -18985068.639 8 -11768756.755 6
  22446854.436    -7894406.894 7   1843604.076 6
  22198073.583    -8044833.876 7 -12767055.491 6
  23875402.583    -9649644.275 6  -4455631.826 3
 94  2  7  4  4 30.0000000  0  8  9  2  4 13 12  7 24  5
  21543844.717   -11765482.864 8 -15340558.909 7
  22858055.557    12838372.212 6   6041720.380 3
  20913006.947   -28800362.648 7 -18735036.328 9
  20778892.632   -31928544.123 9 -17721615.940 8
  22187613.735   -19056525.769 8 -11824437.645 6
  22459604.519    -7827388.423 7   1895826.289 6
  22181267.488    -8133170.086 7 -12835888.868 6
  23859732.011    -9732005.261 6  -4519809.183 2
 94  2  7  4  5  0.0000000  0  8  9  2  4 13 12  7 24  5
  21536400.270   -11804592.367 8 -15371033.854 7
  22869931.056    12900755.628 6   6090330.792 3
  20906981.928   -28832028.511 7 -18759711.004 9
  20782885.688   -31907560.855 9 -17705265.347 8
  22174081.223   -19127649.069 8 -11879858.411 6
  22472375.198    -7760285.757 7   1948114.097 6
  22164519.283    -8221178.536 7 -12904466.855 6
  23844050.048    -9814387.561 5  -4584003.158 2
 94  2  7  4  5 30.0000000  0  8  9  2  4 13 12  7 24  5
  21529052.537   -11843206.567 8 -15401122.867 7
  22881846.487    12963371.327 6   6139122.270 3
  20901061.476   -28863144.151 7 -18783956.950 9
  20786957.319   -31886150.913 8 -17688582.268 8
  22160614.036   -19198433.710 8 -11935015.301 6
  22485165.664    -7693077.683 7   2000484.039 6
  22147834.993    -8308858.144 7 -12972788.617 6
  23828372.311    -9896786.943 5  -4648210.453 2
 94  2  7  4  6  0.0000000  0  8  9  2  4 13 12  7 24  5
  21521805.834   -11881299.280 8 -15430805.529 7
  22893810.005    13026226.271 6   6188100.125 3
  20895250.419   -28893689.080 8 -18807758.174 9
  20791109.444   -31864311.957 8 -17671564.906 8
  22147211.005   -19268872.928 8 -11989903.003 6
  22497974.776    -7625757.589 7   2052941.242 6
  22131212.041    -8396212.781 7 -13040857.140 6
  23812697.483    -9979203.334 6  -4712430.960 2
 94  2  7  4  6 30.0000000  0  8  9  2  4 13 12  7 24  5
  21514655.004   -11918868.909 8 -15460080.579 7
  22905815.134    13089316.607 6   6237261.408 3
  20889545.549   -28923663.049 7 -18831114.506 9
  20795351.688   -31842051.806 8 -17654219.326 8
  22133871.919   -19338969.442 8 -12044523.670 6
  22510807.752    -7558343.829 7   2105471.454 6
  22114651.086    -8483239.213 7 -13108669.919 6
  23797008.564   -10061645.314 5  -4776671.483 3
 94  2  7  4  7  0.0000000  0  8  9  2  4 13 12  7 24  5
  21507609.492   -11955911.616 8 -15488945.015 7
  22917870.868    13152676.424 6   6286632.683 3
  20883949.443   -28953062.618 7 -18854023.238 9
  20799668.009   -31819371.951 9 -17636546.707 8
  22120593.332   -19408720.102 8 -12098874.826 6
  22523645.675    -7490849.889 6   2158064.158 6
  22098152.967    -8569926.102 7 -13176218.114 6
  23781314.459   -10144087.274 5  -4840911.912 3
 94  2  7  4  7 30.0000000  0  8  9  2  4 13 12  7 24  5
  21500658.834   -11992409.328 8 -15517384.808 7
  22929984.552    13216320.362 6   6336225.393 3
  20878465.339   -28981891.799 8 -18876487.524 9
  20804060.359   -31796281.554 9 -17618554.186 8
  22107387.954   -19478129.520 8 -12152960.091 6
  22536502.394    -7423283.927 7   2210712.963 6
  22081721.462    -8656272.464 7 -13243500.977 6
  23765635.163   -10226524.205 6  -4905148.474 3
 94  2  7  4  8  0.0000000  0  8  9  2  4 13 12  7 24  5
  21493823.506   -12028349.829 8 -15545390.406 7
  22942146.203    13280247.517 6   6386038.733 3
  20873084.544   -29010161.618 8 -18898515.938 9
  20808530.804   -31772776.666 9 -17600238.697 8
  22094244.783   -19547188.773 8 -12206772.530 6
  22549375.692    -7355654.397 7   2263411.268 6
  22065359.240    -8742268.033 7 -13310510.478 6
  23749938.899   -10308957.374 6  -4969382.099 3
 94  2  7  4  8 30.0000000  0  8  9  2  4 13 12  7 24  5
  21487086.000   -12063747.404 8 -15572972.938 7
  22954367.842    13344466.833 6   6436079.730 3
  20867809.246   -29037884.405 8 -18920118.098 9
  20813086.330   -31748854.803 9 -17581598.276 8
  22081171.403   -19615890.867 8 -12260306.628 6
  22562256.365    -7287952.151 7   2316166.269 6
  22049060.423    -8827903.045 7 -13377239.042 6
  23734249.291   -10391377.674 6  -5033605.689 3
 94  2  7  4  9  0.0000000  0  8  9  2  4 13 12  7 24  5
  21480453.991   -12098613.150 8 -15600141.066 7
  22966637.088    13408958.436 6   6486332.943 3
  20862638.246   -29065063.622 8 -18941296.696 9
  20817717.974   -31724526.339 9 -17562641.029 8
  22068168.895   -19684241.229 8 -12313566.660 6
  22575158.923    -7220168.553 7   2368984.714 6
  22032829.779    -8913202.275 7 -13443705.955 6
  23718575.512   -10473793.730 6  -5097825.957 3
 94  2  7  4  9 30.0000000  0  8  9  2  4 13 12  7 24  5
  21473920.944   -12132951.014 8 -15626897.864 7
  22978963.145    13473705.626 6   6536785.290 3
  20857570.045   -29091685.333 8 -18962040.874 9
  20822421.657   -31699787.177 9 -17543363.776 8
  22055227.993   -19752231.130 8 -12366545.819 6
  22588074.132    -7152291.265 7   2421876.118 6
  22016665.300    -8998162.533 7 -13509908.727 6
  23702888.332   -10556212.136 6  -5162048.094 3
 94  2  7  4 10  0.0000000  0  8  9  2  4 13 12  7 24  5
  21467483.021   -12166779.523 8 -15653257.738 8
  22991326.526    13538698.949 6   6587429.406 3
  20852611.447   -29117752.218 8 -18982352.709 9
  20827207.664   -31674643.177 9 -17523771.036 8
  22042361.141   -19819861.587 8 -12419244.894 6
  22601004.360    -7084323.001 7   2474838.404 6
  22000562.158    -9082786.166 7 -13575849.207 6
  23687202.651   -10638630.950 6  -5226270.542 3
 94  2  7  4 10 30.0000000  0  8  9  2  4 13 12  7 24  5
  21461144.539   -12200085.018 8 -15679210.077 8
  23003743.660    13603942.919 6   6638268.861 3
  20847764.163   -29143240.185 8 -19002213.451 9
  20832067.060   -31649095.409 8 -17503863.684 8
  22029558.504   -19887128.975 8 -12471661.062 6
  22613959.562    -7016261.565 7   2527873.317 6
  21984521.612    -9167072.396 7 -13641526.742 6
  23671523.625   -10721038.124 6  -5290483.882 3
 94  2  7  4 11  0.0000000  0  8  9  2  4 13 12  7 24  5
  21454903.280   -12232866.046 8 -15704753.745 8
  23016206.692    13669426.348 6   6689294.912 3
  20843023.245   -29168143.753 8 -19021618.815 9
  20837006.201   -31623153.988 8 -17483649.588 8
  22016825.539   -19954038.450 8 -12523798.351 6
  22626923.757    -6948135.166 7   2580958.818 6
  21968544.443    -9251018.700 7 -13706939.436 6
  23655843.580   -10803439.312 6  -5354692.582 3
 94  2  7  4 11 30.0000000  0  8  9  2  4 13 12  7 24  5
  21448770.365   -12265106.667 8 -15729876.325 8
  23028713.284    13735169.489 6   6740523.333 3
  20838398.047   -29192458.218 8 -19040565.147 9
  20842017.741   -31596814.225 8 -17463125.090 8
  22004163.684   -20020580.843 8 -12575649.571 6
  22639898.594    -6879948.564 6   2634091.256 6
  21952638.834    -9334603.628 7 -13772070.546 6
  23640165.064   -10885827.953 6  -5418891.518 3
 94  2  7  4 12  0.0000000  0  8  9  2  4 13 12  7 24  5
  21442740.490   -12296797.632 8 -15754570.583 8
  23041280.074    13801183.188 6   6791962.567 3
  20833883.233   -29216183.203 8 -19059052.135 9
  20847105.069   -31570078.266 8 -17442291.865 8
  21991567.754   -20086753.302 8 -12627212.543 6
  22652880.387    -6811705.499 7   2687267.675 6
  21936801.189    -9417826.867 7 -13836919.770 6
  23624484.929   -10968210.477 6  -5483085.650 3
 94  2  7  4 12 30.0000000  0  8  9  2  4 13 12  7 24  5
  21436812.633   -12327935.275 8 -15778833.713 7
  23053892.193    13867462.847 6   6843609.041 3
  20829482.789   -29239306.609 8 -19077070.353 9
  20852267.885   -31542948.887 8 -17421152.103 8
  21979049.141   -20152553.837 8 -12678485.711 7
  22665879.208    -6743411.502 7   2740483.786 6
  21921035.373    -9500680.951 7 -13901481.377 6
  23608813.698   -11050588.973 6  -5547276.732 3
 94  2  7  4 13  0.0000000  0  8  9  2  4 13 12  7 24  5
  21430993.092   -12358529.188 8 -15802673.121 7
  23066556.445    13934010.897 6   6895464.666 2
  20825193.269   -29261843.485 8 -19094631.540 9
  20857504.840   -31515429.631 8 -17399708.509 8
  21966599.839   -20217981.475 8 -12729468.310 7
  22678888.132    -6675063.095 7   2793742.269 6
  21905341.747    -9583162.817 7 -13965752.940 6
  23593141.508   -11132965.898 6  -5611466.486 3
 94  2  7  4 13 30.0000000  0  8  9  2  4 13 12  7 24  5
  21425272.063   -12388577.344 8 -15826087.284 7
  23079273.461    14000827.794 6   6947529.748 2
  20821014.012   -29283803.080 8 -19111742.892 9
  20862812.965   -31487522.830 8 -17377962.949 8
  21954218.921   -20283033.282 8 -12780158.044 7
  22691907.879    -6606642.829 7   2847056.782 6
  21889713.806    -9665275.304 7 -14029736.679 6
  23577468.688   -11215325.909 6  -5675643.096 3
 94  2  7  4 14  0.0000000  0  8  9  2  4 13 12  7 24  5
  21419655.721   -12418078.041 8 -15849074.856 7
  23092037.425    14067899.732 6   6999793.588 2
  20816945.708   -29305189.341 8 -19128407.508 9
  20868194.959   -31459232.225 8 -17355918.317 8
  21941913.339   -20347708.509 8 -12830554.376 7
  22704939.557    -6538152.038 6   2900426.242 5
  21874159.824    -9747018.117 7 -14093432.352 6
  23561798.956   -11297662.224 6  -5739801.261 3
 94  2  7  4 14 30.0000000  0  8  9  2  4 13 12  7 24  5
  21414152.191   -12447017.829 8 -15871625.357 7
  23104845.728    14135222.350 6   7052252.740 2
  20812986.289   -29325992.884 8 -19144618.047 9
  20873657.328   -31430550.938 8 -17333569.260 8
  21929678.869   -20411995.773 8 -12880648.344 7
  22717993.450    -6469583.115 7   2953856.566 5
  21858672.696    -9828386.762 7 -14156836.464 6
  23546136.599   -11379967.771 6  -5803935.396 3
 94  2  7  4 15  0.0000000  0  8  9  2  4 13 12  7 24  5
  21408752.269   -12475402.436 8 -15893743.223 7
  23117700.649    14202790.168 6   7104903.017 2
  20809131.978   -29346226.812 8 -19160384.715 9
  20879189.068   -31401484.354 9 -17310919.979 8
  21917522.735   -20475895.242 8 -12930440.139 7
  22731053.759    -6400935.148 6   3007348.499 5
  21843257.038    -9909387.142 7 -14219953.615 7
  23530471.454   -11462256.639 6  -5868056.624 3
 94  2  7  4 15 30.0000000  0  8  9  2  4 13 12  7 24  5
  21403453.647   -12503241.250 8 -15915435.817 7
  23130605.515    14270591.763 6   7157735.396 2
  20805394.495   -29365894.957 8 -19175710.559 9
  20884790.510   -31372043.906 9 -17287979.367 8
  21905432.525   -20539413.704 8 -12979935.093 7
  22744132.055    -6332214.671 7   3060896.895 5
  21827920.225    -9990017.263 7 -14282782.288 7
  23514813.503   -11544547.880 6  -5932179.667 3
 94  2  7  4 16  0.0000000  0  8  9  2  4 13 12  7 24  5
  21398262.321   -12530530.973 8 -15936700.545 7
  23143555.470    14338641.008 6   7210760.759 2
  20801761.250   -29384982.533 8 -19190583.970 9
  20890461.175   -31342224.538 8 -17264743.482 8
  21893416.303   -20602541.462 8 -13029125.560 7
  22757224.471    -6263411.609 6   3114509.718 5
  21812645.889   -10070271.091 7 -14345317.688 7
  23499152.405   -11626868.831 6  -5996325.845 3
 94  2  7  4 16 30.0000000  0  8  9  2  4 13 12  7 24  5
  21393169.297   -12557287.305 8 -15957549.639 8
  23156551.083    14406948.523 6   7263987.394 2
  20798236.381   -29403499.969 8 -19205013.120 9
  20896210.385   -31312031.918 8 -17241216.759 8
  21881481.356   -20665278.981 8 -13078011.960 7
  22770333.466    -6194525.991 6   3168186.798 5
  21797444.223   -10150153.246 7 -14407563.490 7
  23483479.166   -11709225.612 6  -6060499.933 3
 94  2  7  4 17  0.0000000  0  8  9  2  4 13 12  7 24  5
  21388177.543   -12583510.978 8 -15977983.675 8
  23169604.407    14475521.535 6   7317420.906 2
  20794818.836   -29421471.644 8 -19219017.016 9
  20902022.731   -31281471.837 8 -17217403.709 8
  21869618.358   -20727627.589 8 -13126595.323 7
  22783455.802    -6125562.082 6   3221924.909 5
  21782316.066   -10229654.061 7 -14469512.161 7
  23467803.738   -11791605.797 6  -6124692.308 3
 94  2  7  4 17 30.0000000  0  8  9  2  4 13 12  7 24  5
  21383292.545   -12609193.865 8 -15997996.331 8
  23182704.947    14544363.434 6   7371063.901 2
  20791499.984   -29438894.550 8 -19232593.294 9
  20907911.884   -31250548.004 9 -17193307.192 8
  21857827.341   -20789585.952 8 -13174874.564 7
  22796590.429    -6056531.941 6   3275714.632 5
  21767262.048   -10308780.470 7 -14531169.076 7
  23452121.624   -11873997.034 6  -6188893.262 3
 94  2  7  4 18  0.0000000  0  8  9  2  4 13 12  7 24  5
  21378508.367   -12634327.258 8 -16017580.794 8
  23195856.812    14613465.385 6   7424909.560 2
  20788293.524   -29455760.064 8 -19245735.237 9
  20913866.482   -31219258.291 9 -17168925.593 8
  21846111.152   -20851147.413 8 -13222844.555 7
  22809740.555    -5987450.122 6   3329544.640 5
  21752270.357   -10387545.254 7 -14592544.215 7
  23436439.660   -11956382.674 6  -6253089.861 3
 94  2  7  4 18 30.0000000  0  8  9  2  4 13 12  7 24  5
  21373832.983   -12658899.863 8 -16036728.287 8
  23209050.319    14682815.180 6   7478948.333 2
  20785190.402   -29472064.865 8 -19258440.272 9
  20919885.475   -31187600.611 8 -17144257.265 7
  21834472.249   -20912305.033 8 -13270499.859 7
  22822886.754    -5918335.067 6   3383400.518 5
  21737356.311   -10465934.755 7 -14653626.905 7
  23420777.483   -12038726.495 6  -6317253.894 4
 94  2  7  4 19  0.0000000  0  8  9  2  4 13 12  7 24  5
  21369267.714   -12682902.508 8 -16055431.648 8
  23222287.895    14752397.612 5   7533168.427 2
  20782196.435   -29487784.014 8 -19270688.962 9
  20925981.065   -31155578.617 9 -17119305.062 7
  21822915.610   -20973057.668 8 -13317839.589 7
  22836041.917    -5849201.833 6   3437270.567 5
  21722509.959   -10543945.565 7 -14714414.522 7
  23405115.905   -12121031.093 6  -6381387.354 4
 94  2  7  4 19 30.0000000  0  8  9  2  4 13 12  7 24  5
  21364806.802   -12706338.569 8 -16073693.524 7
  23235574.606    14822223.113 5   7587577.872 2
  20779327.031   -29502883.065 8 -19282454.435 9
  20932144.258   -31123192.089 9 -17094068.795 7
  21811429.631   -21033400.341 8 -13364859.862 7
  22849199.448    -5780039.721 6   3491163.113 5
  21707740.954   -10621572.234 7 -14774902.818 7
  23389456.126   -12203301.523 6  -6445494.190 4
 94  2  7  4 20  0.0000000  0  8  9  2  4 13 12  7 24  5
  21360454.205   -12729211.674 8 -16091516.723 7
  23248914.981    14892296.349 5   7642180.352 2
  20776564.624   -29517365.825 8 -19293739.707 9
  20938377.993   -31090444.760 9 -17068551.381 7
  21800027.175   -21093331.769 8 -13411559.692 7
  22862375.297    -5710841.741 7   3545083.623 5
  21693043.928   -10698780.192 7 -14835064.846 7
  23373812.896   -12285533.826 6  -6509571.293 4
 94  2  7  4 20 30.0000000  0  8  9  2  4 13 12  7 24  5
  21356205.427   -12751521.890 8 -16108901.309 7
  23262292.080    14962624.194 5   7696981.289 2
  20773930.347   -29531239.858 8 -19304550.626 9
  20944676.572   -31057340.891 8 -17042756.147 7
  21788698.198   -21152851.719 8 -13457938.872 7
  22875552.704    -5641601.606 7   3599036.968 5
  21678435.072   -10775549.936 7 -14894885.391 7
  23358172.034   -12367726.588 6  -6573617.590 4
 94  2  7  4 21  0.0000000  0  8  9  2  4 13 12  7 24  5
  21352066.462   -12773265.829 7 -16125844.646 7
  23275727.369    15033222.593 5   7751993.010 2
  20771400.339   -29544511.889 8 -19314892.463 9
  20951042.215   -31023877.133 9 -17016680.501 7
  21777452.803   -21211951.886 8 -13503990.984 8
  22888741.354    -5572296.164 7   3653041.174 5
  21663912.166   -10851880.042 7 -14954363.393 7
  23342531.502   -12449890.692 6  -6637641.571 4
 94  2  7  4 21 30.0000000  0  8  9  2  4 13 12  7 24  5
  21348038.720   -12794456.534 8 -16142356.885 8
  23289213.263    15104087.817 5   7807212.629 2
  20768984.521   -29557205.793 8 -19324783.806 9
  20957480.138   -30990062.216 9 -16990331.194 7
  21766286.314   -21270636.330 8 -13549719.130 8
  22901942.625    -5502916.560 7   3707103.200 5
  21649469.094   -10927771.284 7 -15013499.400 7
  23326907.428   -12532021.901 6  -6701639.933 4
 94  2  7  4 22  0.0000000  0  8  9  2  4 13 12  7 24  5
  21344114.497   -12815084.503 7 -16158430.627 8
  23302740.768    15175202.421 5   7862626.574 2
  20766675.190   -29569334.462 8 -19334234.711 9
  20963978.470   -30955889.083 8 -16963702.771 7
  21755200.708   -21328893.130 8 -13595114.043 8
  22915156.397    -5433469.317 7   3761217.941 5
  21635112.903   -11003225.819 7 -15072295.115 7
  23311281.735   -12614109.925 6  -6765604.664 4
 94  2  7  4 22 30.0000000  0  8  9  2  4 13 12  7 24  5
  21340288.336   -12835158.172 7 -16174072.462 8
  23316325.953    15246570.627 5   7918238.139 2
  20764477.501   -29580897.102 8 -19343244.544 9
  20970555.646   -30921359.506 8 -16936796.600 7
  21744197.665   -21386719.416 8 -13640173.504 8
  22928382.341    -5363956.509 6   3815383.771 5
  21620827.493   -11078284.250 7 -15130782.192 7
  23295670.403   -12696161.529 6  -6829540.969 4
 94  2  7  4 23  0.0000000  0  8  9  2  4 13 12  7 24  5
  21336577.085   -12854692.154 8 -16189293.736 8
  23329955.418    15318196.568 5   7974050.565 2
  20762385.280   -29591887.707 8 -19351808.644 9
  20977187.715   -30886479.064 9 -16909617.045 7
  21733271.879   -21444115.774 8 -13684897.953 8
  22941623.155    -5294382.903 6   3869596.946 5
  21606617.060   -11152951.493 7 -15188964.446 7
  23280061.918   -12778191.785 6  -6893460.654 4
 94  2  7  4 23 30.0000000  0  8  9  2  4 13 12  7 24  5
  21332962.907   -12873674.544 8 -16204085.221 8
  23343635.577    15390083.781 5   8030066.497 2
  20760410.577   -29602281.291 8 -19359907.530 9
  20983894.162   -30851246.108 9 -16882162.778 7
  21722436.060   -21501075.943 8 -13729282.503 8
  22954874.761    -5224751.344 6   3923855.303 5
  21592482.415   -11227221.653 7 -15246837.273 7
  23264454.243   -12860195.507 6  -6957359.667 4
 94  2  7  4 24  0.0000000  0  8  9  2  4 13 12  7 24  5
  21329455.845   -12892102.335 8 -16218444.549 8
  23357371.678    15462245.357 5   8086296.287 2
  20758544.039   -29612089.468 8 -19367550.258 9
  20990665.005   -30815667.863 9 -16854439.461 7
  21711678.578   -21557602.560 8 -13773329.219 8
  22968130.594    -5155077.143 7   3978146.889 5
  21578424.248   -11301113.777 7 -15304415.545 7
  23248851.755   -12942182.833 6  -7021245.865 4
 94  2  7  4 24 30.0000000  0  8  9  2  4 13 12  7 24  5
  21326058.117   -12909965.574 8 -16232363.945 8
  23371151.518    15534688.512 5   8142745.486 2
  20756792.532   -29621306.220 8 -19374732.131 9
  20997500.693   -30779744.539 9 -16826447.267 7
  21701004.647   -21613690.896 8 -13817034.439 8
  22981392.993    -5085358.887 6   4032472.787 5
  21564438.330   -11374613.922 7 -15361688.348 7
  23233255.112   -13024149.865 6  -7085116.279 4
 94  2  7  4 25  0.0000000  0  8  9  2  4 13 12  7 24  5
  21322769.424   -12927242.686 7 -16245826.625 8
  23384994.255    15607397.204 5   8199401.578 2
  20755145.532   -29629927.621 8 -19381450.086 9
  21004401.945   -30743474.904 9 -16798185.205 7
  21690415.198   -21669335.060 8 -13860393.541 8
  22994678.086    -5015592.128 6   4086836.506 5
  21550530.598   -11447699.168 7 -15418637.872 7
  23217664.765   -13106093.071 6  -7148968.175 4
 94  2  7  4 25 30.0000000  0  8  9  2  4 13 12  7 24  5
  21319593.752   -12943932.832 7 -16258831.939 8
  23398875.396    15680353.502 5   8256250.609 2
  20753616.800   -29637979.525 8 -19387724.302 9
  21011367.563   -30706874.144 8 -16769665.125 7
  21679908.312   -21724545.435 8 -13903414.620 8
  23007961.290    -4945784.276 6   4141232.225 4
  21536699.433   -11520395.341 7 -15475284.233 7
  23202076.996   -13188005.535 6  -7212796.090 4
 94  2  7  4 26  0.0000000  0  8  9  2  4 13 12  7 24  5
  21316523.698   -12960043.482 7 -16271385.681 8
  23412802.554    15753564.044 5   8313297.768 2
  20752193.236   -29645462.832 8 -19393555.433 9
  21018395.598   -30669935.657 9 -16740881.898 7
  21669489.864   -21779310.985 8 -13946089.093 8
  23021248.751    -4875935.757 6   4195659.657 5
  21522941.388   -11592683.993 7 -15531613.024 7
  23186495.613   -13269870.010 6  -7276586.584 4
 94  2  7  4 26 30.0000000  0  8  9  2  4 13 12  7 24  5
  21313566.935   -12975586.898 7 -16283497.424 8
  23426780.527    15827009.901 5   8370528.303 2
  20750875.108   -29652368.124 8 -19398936.163 9
  21025488.297   -30632668.144 9 -16711842.275 7
  21659154.579   -21833635.361 9 -13988419.783 8
  23034544.936    -4806048.859 6   4250116.979 5
  21509265.066   -11664544.132 7 -15587607.902 7
  23170924.543   -13351702.841 6  -7340352.389 4
 94  2  7  4 27  0.0000000  0  8  9  2  4 13 12  7 24  5
  21310715.129   -12990572.417 7 -16295174.464 8
  23440803.829    15900708.714 5   8427955.889 2
  20749676.988   -29658691.597 8 -19403863.534 9
  21032640.986   -30595078.929 8 -16682552.003 7
  21648896.041   -21887521.196 8 -14030408.752 8
  23047857.370    -4736115.478 6   4304610.507 4
  21495670.767   -11735986.942 7 -15643277.591 7
  23155355.061   -13433512.136 6  -7404099.914 4
 94  2  7  4 27 30.0000000  0  8  9  2  4 13 12  7 24  5
  21307971.968   -13004997.001 7 -16306414.389 8
  23454884.721    15974691.555 5   8485604.844 2
  20748586.133   -29664413.009 8 -19408321.770 9
  21039857.290   -30557155.040 8 -16653000.902 7
  21638728.850   -21940951.061 8 -14072042.434 8
  23061178.918    -4666125.377 6   4359148.215 4
  21482158.101   -11806996.545 7 -15698609.715 7
  23139792.355   -13515282.386 6  -7467817.030 4
 94  2  7  4 28  0.0000000  0  8  9  2  4 13 12  7 24  5
  21305333.854   -13018875.359 8 -16317228.693 8
  23469008.633    16048936.329 5   8543457.894 2
  20747608.539   -29669543.042 8 -19412319.198 9
  21047134.152   -30518916.220 8 -16623204.424 7
  21628645.690   -21993939.878 8 -14113332.428 8
  23074499.746    -4596112.906 6   4413703.380 5
  21468731.566   -11877574.359 7 -15753605.387 7
  23124238.343   -13597035.467 6  -7531520.762 4
 94  2  7  4 28 30.0000000  0  8  9  2  4 13 12  7 24  5
  21302802.707   -13032182.197 8 -16327597.664 8
  23483190.406    16123448.296 5   8601519.072 2
  20746748.645   -29674074.550 8 -19415850.227 9
  21054475.200   -30480358.729 9 -16593159.627 7
  21618650.040   -22046479.201 8 -14154272.183 7
  23087829.688    -4526056.145 6   4468293.057 5
  21455378.361   -11947723.190 7 -15808266.790 7
  23108690.866   -13678761.659 6  -7595203.516 4
 94  2  7  4 29  0.0000000  0  8  9  2  4 13 12  7 24  5
  21300375.947   -13044903.452 8 -16337510.329 8
  23497420.474    16198213.670 5   8659777.781 2
  20745998.654   -29678018.821 8 -19418923.674 9
  21061869.761   -30441483.863 8 -16562867.520 7
  21608735.813   -22098565.464 8 -14194858.880 7
  23101166.555    -4455945.681 6   4522924.579 4
  21442109.756   -12017452.427 7 -15862601.256 7
  23093149.445   -13760435.820 6  -7658845.728 4
 94  2  7  4 29 30.0000000  0  8  9  2  4 13 12  7 24  5
  21298072.881   -13057017.527 8 -16346949.874 8
  23511688.976    16273218.232 5   8718222.883 2
  20745356.708   -29681380.111 8 -19421542.872 9
  21069329.197   -30402285.842 9 -16532323.592 7
  21598912.874   -22150188.543 8 -14235084.643 7
  23114517.752    -4385792.403 6   4577589.444 4
  21428926.113   -12086739.967 7 -15916591.511 7
  23077617.408   -13842034.370 6  -7722429.052 4
 94  2  7  4 30  0.0000000  0  8  9  2  4 13 12  7 24  5
  21295884.006   -13068534.372 8 -16355924.040 8
  23526005.655    16348440.639 5   8776837.703 2
  20744822.868   -29684179.679 8 -19423724.333 9
  21076844.934   -30362778.366 8 -16501538.543 7
  21589176.724   -22201357.477 8 -14274956.548 7
  23127877.134    -4315606.571 6   4632279.696 4
  21415822.814   -12155585.054 7 -15970237.008 7
  23062107.435   -13923559.487 6  -7785955.138 4
 94  2  7  4 30 30.0000000  0  8  9  2  4 13 12  7 24  5
  21293804.196   -13079445.305 8 -16364426.070 8
  23540359.688    16423895.480 5   8835633.622 2
  20744400.281   -29686411.467 8 -19425463.405 9
  21084426.205   -30322953.135 9 -16470505.888 7
  21579528.054   -22252059.023 9 -14314464.247 7
  23141241.072    -4245356.980 6   4687019.636 4
  21402806.186   -12223976.889 7 -16023529.335 8
  23046606.636   -14005007.216 6  -7849420.940 4
 94  2  7  4 31  0.0000000  0  8  9  2  4 13 12  7 24  5
  21291846.941   -13089752.702 8 -16372457.848 8
  23554761.898    16499581.738 5   8894609.921 2
  20744084.629   -29688075.212 8 -19426759.832 9
  21092066.716   -30282809.632 8 -16439225.242 7
  21569967.732   -22302288.290 8 -14353603.944 7
  23154622.788    -4175056.871 6   4741798.905 4
  21389881.263   -12291909.537 7 -16076463.840 8
  23031121.247   -14086380.583 6  -7912828.783 4
 94  2  7  4 31 30.0000000  0  8  9  2  4 13 12  7 24  5
  21289992.395   -13099481.109 8 -16380038.411 8
  23569221.308    16575516.426 5   8953779.811 2
  20743875.374   -29689170.047 8 -19427612.935 9
  21099761.789   -30242359.040 8 -16407705.296 7
  21560500.796   -22352051.808 9 -14392380.707 7
  23168003.905    -4104730.819 6   4796598.392 4
  21377038.334   -12359401.283 7 -16129054.783 8
  23015647.279   -14167705.441 6  -7976198.815 4
 94  2  7  4 32  0.0000000  0  8  9  2  4 13 12  7 24  5
  21288246.524   -13108649.423 8 -16387182.562 8
  23583711.746    16651700.167 5   9013143.682 2
  20743774.943   -29689688.997 8 -19428017.303 9
  21107522.756   -30201604.188 9 -16375948.268 7
  21551115.103   -22401347.663 9 -14430793.066 7
  23181394.794    -4034360.188 6   4851432.635 4
  21364277.728   -12426460.355 7 -16181308.577 8
  23000170.194   -14248994.000 6  -8039540.586 5
 94  2  7  4 32 30.0000000  0  8  9  2  4 13 12  7 24  5
  21286614.154   -13117248.488 8 -16393883.140 8
  23598255.668    16728134.253 5   9072702.660 2
  20743787.265   -29689617.196 8 -19427961.359 9
  21115331.240   -30160543.092 9 -16343952.610 7
  21541827.383   -22450169.534 8 -14468836.091 7
  23194793.359    -3963938.031 6   4906307.031 4
  21351598.006   -12493097.143 7 -16233233.328 8
  22984711.725   -14330250.823 6  -8102857.620 5
 94  2  7  4 33  0.0000000  0  8  9  2  4 13 12  7 24  5
  21285084.493   -13125287.499 8 -16400147.318 8
  23612846.117    16804822.611 5   9132459.856 2
  20743915.606   -29688950.894 8 -19427442.158 9
  21123204.570   -30119177.597 9 -16311719.739 7
  21532625.763   -22498514.573 8 -14506507.557 7
  23208198.159    -3893490.836 6   4961200.927 4
  21338998.779   -12559312.758 7 -16284829.885 8
  22969256.015   -14411468.750 6  -8166144.342 5
 94  2  7  4 33 30.0000000  0  8  9  2  4 13 12  7 24  5
  21283657.900   -13132780.791 8 -16405986.258 8
  23627497.934    16881767.883 5   9192417.102 2
  20744154.061   -29687691.767 8 -19426460.999 9
  21131130.243   -30077513.468 9 -16279254.196 7
  21523520.077   -22546383.838 8 -14543808.284 7
  23221615.940    -3823024.340 6   5016109.885 4
  21326479.326   -12625098.000 7 -16336091.095 8
  22953810.708   -14492648.258 6  -8229401.122 5
 94  2  7  4 34  0.0000000  0  8  9  2  4 13 12  7 24  5
  21282334.137   -13139720.289 7 -16411393.659 7
  23642183.357    16958952.602 5   9252561.022 2
  20744507.366   -29685847.400 8 -19425023.830 9
  21139114.556   -30035552.944 8 -16246557.684 7
  21514500.941   -22593775.149 8 -14580736.571 7
  23235024.068    -3752537.967 6   5071034.331 4
  21314048.821   -12690423.872 7 -16386994.367 8
  22938374.814   -14573785.650 6  -8292625.101 5
 94  2  7  4 34 30.0000000  0  8  9  2  4 13 12  7 24  5
  21281120.247   -13146108.874 7 -16416371.786 7
  23656920.914    17036384.131 5   9312897.279 2
  20744969.197   -29683426.997 8 -19423137.807 9
  21147156.128   -29993304.723 9 -16213636.995 7
  21505571.892   -22640692.534 8 -14617295.577 8
  23248434.474    -3682057.754 6   5125953.929 4
  21301705.256   -12755283.520 7 -16437534.339 8
  22922938.470   -14654879.342 6  -8355815.031 5
 94  2  7  4 35  0.0000000  0  8  9  2  4 13 12  7 24  5
  21280007.777   -13151945.880 7 -16420920.132 7
  23671701.072    17114076.566 5   9373436.808 2
  20745536.104   -29680436.725 8 -19420807.716 9
  21155248.906   -29950765.881 9 -16180489.852 7
  21496738.088   -22687128.688 8 -14653479.596 8
  23261843.561    -3611581.721 6   5180870.298 4
  21289453.968   -12819653.753 7 -16487692.930 8
  22907519.244   -14735914.599 7  -8418959.391 5
 94  2  7  4 35 30.0000000  0  8  9  2  4 13 12  7 24  5
  21279004.162   -13157230.989 7 -16425038.407 7
  23686533.004    17192015.372 5   9434168.295 2
  20746211.746   -29676878.167 8 -19418034.791 9
  21163397.565   -29907939.629 9 -16147118.749 7
  21487992.003   -22733082.141 8 -14689287.481 8
  23275267.667    -3541090.086 6   5235798.855 4
  21277303.829   -12883527.725 7 -16537464.823 8
  22892112.970   -14816891.489 7  -8482058.345 5
 94  2  7  4 36  0.0000000  0  8  9  2  4 13 12  7 24  5
  21278105.444   -13161953.987 7 -16428718.651 7
  23701408.227    17270190.295 5   9495083.811 2
  20746995.434   -29672758.530 8 -19414824.677 9
  21171603.514   -29864828.253 9 -16113525.459 7
  21479337.204   -22778550.872 8 -14724717.657 8
  23288674.386    -3470573.939 6   5290746.502 4
  21265237.632   -12946918.243 7 -16586860.022 8
  22876714.370   -14897804.639 7  -8545107.584 5
 94  2  7  4 36 30.0000000  0  8  9  2  4 13 12  7 24  5
  21277312.403   -13166120.584 7 -16431965.368 7
  23716332.345    17348601.072 5   9556183.059 2
  20747891.723   -29668080.183 8 -19411179.210 9
  21179861.507   -29821438.874 9 -16079715.563 7
  21470778.759   -22823537.371 8 -14759772.097 8
  23302099.692    -3400034.792 6   5345712.054 4
  21253257.776   -13009849.387 7 -16635897.254 8
  22861331.629   -14978640.452 7  -8608096.562 5
 94  2  7  4 37  0.0000000  0  8  9  2  4 13 12  7 24  5
  21276625.159   -13169719.273 7 -16434769.545 7
  23731295.946    17427236.365 5   9617457.282 2
  20748885.206   -29662836.367 8 -19407093.114 9
  21188171.994   -29777773.859 9 -16045690.860 7
  21462310.102   -22868039.661 8 -14794449.214 8
  23315532.583    -3329460.329 6   5400705.119 4
  21241372.324   -13072332.931 7 -16684585.713 8
  22845965.077   -15059394.933 7  -8671022.161 5
 94  2  7  4 37 30.0000000  0  8  9  2  4 13 12  7 24  5
  21276047.669   -13172745.935 7 -16437127.973 8
  23746296.121    17506084.488 5   9678897.332 2
  20749995.337   -29657015.539 8 -19402557.410 9
  21196529.878   -29733837.208 9 -16011454.518 7
  21453935.729   -22912057.207 8 -14828748.603 8
  23328972.039    -3258848.995 6   5455726.938 4
  21229567.636   -13134377.622 7 -16732932.219 8
  22830608.269   -15140072.177 7  -8733887.562 5
 94  2  7  4 38  0.0000000  0  8  9  2  4 13 12  7 24  5
  21275590.095   -13175181.894 7 -16439026.146 8
  23761347.801    17585159.269 5   9740514.054 2
  20751210.396   -29650611.852 8 -19397567.525 9
  21204944.422   -29689627.566 9 -15977005.442 7
  21445652.194   -22955584.323 8 -14862665.847 8
  23342415.482    -3188200.451 6   5510777.765 4
  21217842.573   -13195974.754 7 -16780929.959 8
  22815270.527   -15220662.595 7  -8796685.329 5
 94  2  7  4 38 30.0000000  0  8  9  2  4 13 12  7 24  5
  21275236.220   -13177027.311 7 -16440464.136 8
  23776445.110    17664477.782 5   9802320.652 2
  20752541.504   -29643618.883 8 -19392118.456 9
  21213405.495   -29645146.659 9 -15942344.989 7
  21437462.254   -22998618.166 8 -14896198.709 8
  23355868.399    -3117510.961 6   5565860.454 3
  21206211.255   -13257117.742 7 -16828573.826 8
  22799954.460   -15301169.556 7  -8859418.033 5
 94  2  7  4 39  0.0000000  0  8  9  2  4 13 12  7 24  5
  21275001.213   -13178275.908 7 -16441437.067 8
  23791572.127    17744039.200 5   9864316.552 2
  20753988.033   -29636033.453 8 -19386207.746 9
  21221923.138   -29600393.223 9 -15907472.160 7
  21429367.318   -23041152.792 8 -14929342.591 8
  23369326.352    -3046781.116 6   5620974.578 3
  21194659.952   -13317802.319 7 -16875860.495 8
  22784647.417   -15381613.146 7  -8922101.405 5
 94  2  7  4 39 30.0000000  0  8  9  2  4 13 12  7 24  5
  21274873.951   -13178938.023 7 -16441953.014 8
  23806765.189    17823857.670 5   9926512.748 2
  20755539.489   -29627860.782 8 -19379839.420 9
  21230489.108   -29555364.299 9 -15872384.693 7
  21421369.005   -23083181.352 8 -14962092.122 8
  23382793.059    -2976015.460 6   5676116.662 3
  21183210.339   -13378009.981 7 -16922775.522 8
  22769348.588   -15461994.402 7  -8984736.159 5
 94  2  7  4 40  0.0000000  0  8  9  2  4 13 12  7 24  5
  21274858.032   -13179017.316 7 -16442014.821 8
  23822002.051    17903929.299 5   9988906.179 2
  20757201.688   -29619127.837 8 -19373034.536 9
  21239111.649   -29510073.093 9 -15837092.850 7
  21413467.855   -23124712.620 9 -14994454.161 8
  23396256.948    -2905227.978 6   5731275.740 3
  21171832.525   -13437760.447 7 -16969334.301 8
  22754062.710   -15542329.664 7  -9047335.123 5
 94  2  7  4 40 30.0000000  0  8  9  2  4 13 12  7 24  5
  21274952.047   -13178515.557 7 -16441623.839 8
  23837291.616    17984257.958 5  10051499.865 2
  20758970.074   -29609831.087 8 -19365790.312 9
  21247780.478   -29464518.538 8 -15801595.801 7
  21405658.171   -23165741.017 8 -15026424.344 8
  23409740.384    -2834424.812 5   5786447.020 3
  21160546.958   -13497063.931 7 -17015544.788 8
  22738784.417   -15622613.898 7  -9109894.296 5
 94  2  7  4 41  0.0000000  0  8  9  2  4 13 12  7 24  5
  21275161.062   -13177439.123 7 -16440785.059 8
  23852619.075    18064830.745 5  10114283.825 2
  20760848.304   -29599970.751 8 -19358106.926 9
  21256499.971   -29418703.231 9 -15765895.544 7
  21397949.878   -23206264.847 9 -15058001.338 8
  23423211.558    -2763612.220 5   5841625.657 3
  21149350.429   -13555913.368 7 -17061401.473 8
  22723516.677   -15702844.364 7  -9172411.527 5
 94  2  7  4 41 30.0000000  0  8  9  2  4 13 12  7 24  5
  21275475.845   -13175784.925 7 -16439496.088 8
  23868009.191    18145654.481 5  10177263.368 2
  20762830.232   -29589546.488 8 -19349984.133 9
  21265267.731   -29372626.686 9 -15729991.754 7
  21390334.520   -23246279.401 8 -15089181.511 8
  23436691.696    -2692785.298 6   5896815.455 3
  21138238.472   -13614301.405 7 -17106898.622 8
  22708266.864   -15783008.610 7  -9234877.203 5
 94  2  7  4 42  0.0000000  0  8  9  2  4 13 12  7 24  5
  21275901.760   -13173544.898 7 -16437750.637 8
  23883431.564    18226713.177 5  10240425.922 2
  20764923.083   -29578556.423 8 -19341420.430 9
  21274084.478   -29326294.089 9 -15693888.415 7
  21382816.294   -23285785.391 8 -15119965.399 8
  23450177.410    -2621949.591 6   5952012.134 3
  21127214.774   -13672237.444 7 -17152043.569 8
  22693020.649   -15863094.771 7  -9297281.999 5
 94  2  7  4 42 30.0000000  0  8  9  2  4 13 12  7 24  5
  21276431.103   -13170745.207 7 -16435569.056 8
  23898902.534    18308011.671 5  10303775.348 2
  20767122.900   -29566996.542 8 -19332412.735 9
  21282947.602   -29279703.416 9 -15657584.000 7
  21375395.142   -23324776.499 8 -15150348.090 8
  23463654.310    -2551109.822 6   6007211.904 3
  21116278.345   -13729700.706 7 -17196820.107 8
  22677803.693   -15943084.000 6  -9359611.308 5
 94  2  7  4 43  0.0000000  0  8  9  2  4 13 12  7 24  5
  21277073.618   -13167391.717 7 -16432955.963 8
  23914405.971    18389530.098 5  10367296.183 2
  20769430.373   -29554878.010 8 -19322969.722 9
  21291862.440   -29232858.332 9 -15621081.315 7
  21368074.390   -23363252.231 8 -15180329.174 8
  23477130.281    -2480271.036 6   6062410.952 3
  21105436.530   -13786677.595 7 -17241217.661 8
  22662596.211   -16022983.557 6  -9421870.716 5
 94  2  7  4 43 30.0000000  0  8  9  2  4 13 12  7 24  5
  21277814.136   -13163472.672 7 -16429902.156 8
  23929966.009    18471276.726 5  10430994.812 2
  20771843.372   -29542202.687 8 -19313092.843 9
  21300825.755   -29185754.341 9 -15584376.920 7
  21360851.790   -23401203.843 8 -15209901.847 8
  23490611.558    -2409423.342 6   6117616.966 3
  21094685.943   -13843161.457 7 -17285231.048 8
  22647413.162   -16102784.151 7  -9484052.993 5
 94  2  7  4 44  0.0000000  0  8  9  2  4 13 12  7 24  5
  21278664.407   -13158998.835 7 -16426416.051 8
  23945567.808    18553241.730 5  10494863.607 2
  20774355.693   -29528984.970 8 -19302793.313 9
  21309839.195   -29138398.606 8 -15547476.330 7
  21353730.610   -23438634.213 8 -15239068.378 8
  23504097.212    -2338564.740 6   6172831.457 3
  21084034.437   -13899149.499 7 -17328858.088 8
  22632243.364   -16182487.870 7  -9546159.824 5
 94  2  7  4 44 30.0000000  0  8  9  2  4 13 12  7 24  5
  21279625.122   -13153973.868 7 -16422500.526 8
  23961200.366    18635427.337 5  10558904.375 2
  20776974.140   -29515222.945 8 -19292069.655 9
  21318896.465   -29090793.144 8 -15510381.181 7
  21346708.121   -23475541.255 8 -15267827.110 8
  23517585.774    -2267680.178 6   6228066.164 3
  21073474.607   -13954633.213 7 -17372092.132 9
  22617093.142   -16262104.029 7  -9608198.390 5
 94  2  7  4 45  0.0000000  0  8  9  2  4 13 12  7 24  5
  21280688.606   -13148374.484 7 -16418137.393 8
  23976893.542    18717828.393 5  10623112.962 2
  20779698.684   -29500917.150 8 -19280922.270 9
  21328004.700   -29042942.907 9 -15473095.259 7
  21339784.175   -23511925.802 8 -15296178.704 8
  23531081.112    -2196752.321 6   6283334.615 3
  21063012.870   -14009620.167 8 -17414939.103 9
  22601959.559   -16341646.386 7  -9670179.456 5
 94  2  7  4 45 30.0000000  0  8  9  2  4 13 12  7 24  5
  21281865.171   -13142205.580 7 -16413330.456 8
  23992600.628    18800462.091 4  10687502.777 2
  20782526.087   -29486058.701 8 -19269344.255 9
  21337153.856   -28994856.380 9 -15435625.236 7
  21332959.100   -23547792.111 8 -15324126.466 8
  23544590.269    -2125774.221 5   6338642.262 3
  21052640.350   -14064121.305 7 -17457407.500 9
  22586834.850   -16421113.004 7  -9732101.526 5
 94  2  7  4 46  0.0000000  0  8  9  2  4 13 12  7 24  5
  21283151.191   -13135454.291 7 -16408069.713 8
  24008388.269    18883334.858 5  10752078.970 2
  20785459.736   -29470634.921 8 -19257325.711 9
  21346346.662   -28946530.277 8 -15397968.529 6
  21326231.697   -23583132.555 8 -15351664.489 8
  23558105.273    -2054749.930 6   6393985.863 3
  21042365.863   -14118129.689 7 -17499491.922 9
  22571730.916   -16500485.657 7  -9793950.336 5
 94  2  7  4 46 30.0000000  0  8  9  2  4 13 12  7 24  5
  21284546.365   -13128109.340 7 -16402346.396 8
  24024199.203    18966456.148 5  10816848.718 2
  20788501.910   -29454635.732 8 -19244858.804 9
  21355592.321   -28897964.366 9 -15360124.963 6
  21319607.453   -23617943.199 8 -15378789.641 8
  23571624.894    -1983692.907 5   6449354.957 3
  21032179.005   -14171658.573 7 -17541202.739 9
  22556648.567   -16579758.041 7  -9855721.038 5
 94  2  7  4 47  0.0000000  0  8  9  2  4 13 12  7 24  5
  21286056.480   -13120163.076 7 -16396154.510 8
  24040063.620    19049835.503 5  10881819.678 2
  20791658.514   -29438061.978 8 -19231944.181 9
  21364881.001   -28849159.186 9 -15322094.930 6
  21313086.877   -23652220.034 8 -15405498.869 8
  23585150.060    -1912616.902 5   6504738.882 3
  21022083.524   -14224715.461 8 -17582545.736 9
  22541585.255   -16658928.566 7  -9917412.350 5
 94  2  7  4 47 30.0000000  0  8  9  2  4 13 12  7 24  5
  21287684.713   -13111622.607 7 -16389499.606 8
  24055982.150    19133464.310 5  10946984.845 1
  20794921.306   -29420916.907 8 -19218584.383 9
  21374213.030   -28800117.266 9 -15283880.437 6
  21306665.143   -23685961.782 8 -15431791.143 8
  23598666.443    -1841552.112 5   6560114.015 3
  21012072.615   -14277302.235 8 -17623522.423 9
  22526533.935   -16737989.512 7  -9979018.312 5
 94  2  7  4 48  0.0000000  0  8  9  2  4 13 12  7 24  5
  21289422.340   -13102482.617 7 -16382377.546 8
  24071941.452    19217335.185 5  11012338.846 1
  20798291.303   -29403210.930 8 -19204787.502 9
  21383591.887   -28750835.617 8 -15245479.131 6
  21300349.685   -23719161.370 8 -15457660.931 8
  23612198.385    -1770508.117 5   6615472.995 3
  21002156.649   -14329421.785 8 -17664135.048 9
  22511514.873   -16816939.789 7 -10040538.026 6
 94  2  7  4 48 30.0000000  0  8  9  2  4 13 12  7 24  5
  21291276.106   -13092754.475 7 -16374797.212 8
  24087946.741    19301441.848 5  11077876.480 1
  20801766.797   -29384944.584 8 -19190553.992 9
  21393008.428   -28701317.970 8 -15206893.960 6
  21294132.559   -23751818.658 8 -15483108.179 9
  23625714.948    -1699472.983 5   6670825.031 3
  20992327.864   -14381072.811 7 -17704382.577 9
  22496507.022   -16895791.464 7 -10101980.908 6
 94  2  7  4 49  0.0000000  0  8  9  2  4 13 12  7 24  5
  21293232.132   -13082447.938 7 -16366766.126 8
  24103989.056    19385768.389 5  11143585.442 1
  20805348.957   -29366128.711 8 -19175892.273 9
  21402477.283   -28651573.214 8 -15168131.799 6
  21288024.557   -23783938.188 8 -15508136.370 9
  23639229.682    -1628436.545 5   6726178.096 3
  20982589.256   -14432239.563 7 -17744252.758 9
  22481521.626   -16974542.747 7 -10163345.539 6
 94  2  7  4 49 30.0000000  0  8  9  2  4 13 12  7 24  5
  21295303.488   -13071567.433 7 -16358287.841 8
  24120077.058    19470309.155 5  11209461.311 1
  20809030.528   -29346774.644 8 -19160811.161 9
  21411986.820   -28601604.043 8 -15129194.768 6
  21282011.710   -23815518.894 8 -15532744.718 9
  23652751.491    -1557392.257 5   6781537.271 3
  20972948.710   -14482910.574 7 -17783736.629 9
  22466560.304   -17053178.536 7 -10224620.178 6
 94  2  7  4 50  0.0000000  0  8  9  2  4 13 12  7 24  5
  21297482.200   -13060114.957 7 -16349363.872 8
  24136206.912    19555075.087 5  11275512.709 2
  20812818.136   -29326876.209 8 -19145305.885 9
  21421539.437   -28551412.898 8 -15090084.786 6
  21276104.899   -23846559.378 8 -15556932.112 9
  23666273.810    -1486317.674 6   6836920.081 3
  20963403.857   -14533066.163 7 -17822818.900 9
  22451617.029   -17131696.036 7 -10285802.655 6
 94  2  7  4 50 30.0000000  0  8  9  2  4 13 12  7 24  5
  21299773.574   -13048085.567 7 -16339990.287 8
  24152383.383    19640062.826 4  11341736.858 1
  20816709.862   -29306422.931 8 -19129368.252 9
  21431130.967   -28500994.411 8 -15050797.647 6
  21270300.138   -23877050.109 8 -15580691.111 9
  23679808.150    -1415190.069 5   6892344.169 3
  20953961.714   -14582682.520 7 -17861480.974 9
  22436699.146   -17210092.093 7 -10346890.466 6
 94  2  7  4 51  0.0000000  0  8  9  2  4 13 12  7 24  5
  21302167.117   -13035497.099 7 -16330181.122 8
  24168602.724    19725267.947 5  11408130.409 1
  20820706.815   -29285426.837 8 -19113007.654 9
  21440767.765   -28450361.464 8 -15011343.387 6
  21264601.323   -23907000.108 8 -15604028.768 9
  23693343.300    -1344041.125 5   6947784.929 3
  20944617.873   -14631775.695 7 -17899735.372 9
  22421794.305   -17288379.450 7 -10407893.582 6
 94  2  7  4 51 30.0000000  0  8  9  2  4 13 12  7 24  5
  21304667.536   -13022362.628 7 -16319946.491 8
  24184855.493    19810681.223 5  11474686.147 1
  20824808.215   -29263884.317 8 -19096221.271 9
  21450441.019   -28399520.885 8 -14971727.320 7
  21259004.617   -23936412.420 8 -15626947.468 9
  23706882.916    -1272885.299 5   7003231.035 3
  20935372.723   -14680359.009 7 -17937592.492 9
  22406920.192   -17366573.202 7 -10468823.763 6
 94  2  7  4 52  0.0000000  0  8  9  2  4 13 12  7 24  5
  21307273.841   -13008683.098 7 -16309287.115 8
  24201143.307    19896297.665 4  11541400.324 1
  20829014.483   -29241772.503 8 -19078991.282 9
  21460154.294   -28348463.817 8 -14931942.592 6
  21253509.422   -23965274.470 8 -15649437.377 9
  23720431.467    -1201705.221 5   7058696.019 3
  20926228.244   -14728428.706 7 -17975049.365 9
  22392056.242   -17444667.552 7 -10529676.480 6
 94  2  7  4 52 30.0000000  0  8  9  2  4 13 12  7 24  5
  21309980.098   -12994464.693 7 -16298207.863 8
  24217471.054    19982118.028 5  11608273.204 1
  20833326.009   -29219095.671 8 -19061321.024 9
  21469911.849   -28297187.880 8 -14891987.321 6
  21248128.177   -23993579.746 8 -15671493.434 9
  23733985.893    -1130504.263 5   7114177.295 3
  20917173.882   -14776003.274 7 -18012120.440 9
  22377220.742   -17522652.806 7 -10590444.185 6
 94  2  7  4 53  0.0000000  0  8  9  2  4 13 12  7 24  5
  21312787.234   -12979714.856 7 -16286714.497 8
  24233845.358    20068155.106 5  11675315.055 1
  20837745.099   -29195864.407 8 -19043218.738 9
  21479712.514   -28245702.696 8 -14851869.003 6
  21242845.954   -24021334.155 8 -15693120.254 9
  23747529.437    -1059293.216 5   7169666.421 3
  20908215.004   -14823092.654 7 -18048813.441 9
  22362410.156   -17600511.983 7 -10651113.682 6
 94  2  7  4 53 30.0000000  0  8  9  2  4 13 12  7 24  5
  21315695.101   -12964418.843 7 -16274795.542 8
  24250260.374    20154415.734 4  11742531.093 1
  20842273.195   -29172083.313 8 -19024688.009 9
  21489548.105   -28194007.506 8 -14811587.020 6
  21237671.716   -24048533.117 8 -15714314.248 9
  23761092.648     -988050.106 5   7225180.517 3
  20899350.711   -14869685.731 8 -18085119.720 9
  22347614.558   -17678231.595 7 -10711674.407 6
 94  2  7  4 54  0.0000000  0  8  9  2  4 13 12  7 24  5
  21318709.694   -12948580.863 8 -16262454.284 8
  24266716.432    20240911.505 4  11809930.437 1
  20846897.793   -29147769.904 8 -19005742.494 9
  21499425.398   -28142113.648 8 -14771150.258 6
  21232596.979   -24075184.278 8 -15735081.377 9
  23774654.779     -916784.538 6   7280712.130 3
  20890574.466   -14915793.635 8 -18121047.929 9
  22332849.360   -17755813.841 7 -10772128.079 6
 94  2  7  4 54 30.0000000  0  8  9  2  4 13 12  7 24  5
  21321834.131   -12932173.650 7 -16249669.456 8
  24283225.223    20327676.334 4  11877539.237 1
  20851628.608   -29122924.623 8 -18986382.541 9
  21509340.314   -28090014.226 8 -14730553.307 6
  21227631.546   -24101277.177 8 -15755413.532 9
  23788211.484     -845501.319 5   7336257.503 3
  20881894.545   -14961402.025 7 -18156586.921 9
  22318116.120   -17833242.434 7 -10832462.047 6
 94  2  7  4 55  0.0000000  0  8  9  2  4 13 12  7 24  5
  21325067.753   -12915175.547 7 -16236424.177 8
  24299797.930    20414704.907 5  11945353.756 1
  20856458.354   -29097539.942 8 -18966602.267 9
  21519289.436   -28037710.591 8 -14689797.235 6
  21222773.949   -24126809.405 8 -15775308.751 9
  23801781.739     -774203.575 5   7391814.215 3
  20873313.945   -15006498.099 7 -18191726.688 9
  22303407.133   -17910524.549 7 -10892681.871 6
 94  2  7  4 55 30.0000000  0  8  9  2  4 13 12  7 24  5
  21328408.370   -12897592.552 7 -16222723.178 8
  24316407.721    20501975.807 5  12013357.060 1
  20861392.279   -29071620.262 8 -18946405.115 9
  21529283.977   -27985210.448 8 -14648888.011 6
  21218019.871   -24151784.940 8 -15794770.201 9
  23815356.582     -702907.110 5   7447369.845 3
  20864825.472   -15051088.990 7 -18226472.829 9
  22288725.546   -17987686.440 7 -10952807.988 6
 94  2  7  4 56  0.0000000  0  8  9  2  4 13 12  7 24  5
  21331872.052   -12879421.906 7 -16208564.217 8
  24333051.269    20589478.576 4  12081541.004 1
  20866427.683   -29045153.155 8 -18925781.386 9
  21539311.375   -27932506.841 8 -14607820.267 6
  21213377.494   -24176193.058 8 -15813789.512 9
  23828911.128     -631610.911 5   7502925.372 3
  20856437.609   -15095162.581 7 -18260815.843 9
  22274070.162   -18064720.205 7 -11012834.273 6
 94  2  7  4 56 30.0000000  0  8  9  2  4 13 12  7 24  5
  21335436.345   -12860673.572 8 -16193955.160 8
  24349735.859    20677183.859 4  12149882.625 1
  20871568.464   -29018140.030 8 -18904732.205 9
  21549377.057   -27879606.854 8 -14566599.516 6
  21208837.257   -24200037.336 8 -15832369.485 9
  23842479.165     -560320.926 5   7558476.022 3
  20848153.204   -15138724.188 7 -18294759.940 9
  22259432.076   -18141635.859 7 -11072768.549 6
 94  2  7  4 57  0.0000000  0  8  9  2  4 13 12  7 24  5
  21339111.590   -12841365.069 7 -16178909.578 8
  24366467.605    20765075.876 4  12218369.980 1
  20876812.493   -28990578.547 8 -18883255.714 9
  21559480.542   -27826517.128 8 -14525230.900 6
  21204409.293   -24223320.610 8 -15850512.287 9
  23856052.628     -489035.513 5   7614023.052 2
  20839958.767   -15181772.916 7 -18328304.396 9
  22244815.005   -18218456.327 7 -11132628.640 6
 94  2  7  4 57 30.0000000  0  8  9  2  4 13 12  7 24  5
  21342891.674   -12821513.280 7 -16163440.656 8
  24383228.072    20853154.712 4  12287002.765 1
  20882163.339   -28962468.905 8 -18861352.109 9
  21569619.583   -27773239.731 8 -14483716.035 6
  21200085.506   -24246041.780 8 -15868217.099 9
  23869617.997     -417750.341 5   7669569.968 2
  20831866.589   -15224311.405 8 -18361451.251 9
  22230219.010   -18295177.481 7 -11192411.364 6
 94  2  7  4 58  0.0000000  0  8  9  2  4 13 12  7 24  5
  21346771.258   -12801112.068 7 -16147543.636 8
  24400024.005    20941430.100 4  12355788.716 1
  20887617.014   -28933808.688 8 -18839019.465 9
  21579794.179   -27719774.244 8 -14442054.607 6
  21195869.045   -24268196.789 8 -15885480.731 9
  23883176.171     -346463.741 5   7725117.960 2
  20823865.098   -15266336.205 7 -18394197.823 9
  22215636.595   -18371780.170 7 -11252101.760 6
 94  2  7  4 58 30.0000000  0  8  9  2  4 13 12  7 24  5
  21350756.009   -12780166.976 7 -16131222.787 8
  24416869.283    21029910.427 3  12424734.464 1
  20893172.528   -28904616.821 8 -18816272.556 9
  21590002.982   -27666128.488 8 -14400252.708 6
  21191759.550   -24289789.795 8 -15902306.456 9
  23896742.020     -275185.762 5   7780659.297 2
  20815964.488   -15307857.519 8 -18426552.076 9
  22201078.163   -18448268.383 7 -11311702.962 6
 94  2  7  4 59  0.0000000  0  8  9  2  4 13 12  7 24  5
  21354846.767   -12758671.455 7 -16114473.046 8
  24433742.592    21118604.878 4  12493847.039 1
  20898821.907   -28874910.538 8 -18793124.806 9
  21600241.854   -27612305.124 8 -14358312.422 6
  21187756.751   -24310820.098 8 -15918693.705 9
  23910295.127     -203911.812 5   7836197.422 2
  20808158.342   -15348862.487 7 -18458503.973 9
  22186549.052   -18524633.149 7 -11371207.973 6
 94  2  7  4 59 30.0000000  0  8  9  2  4 13 12  7 24  5
  21359040.114   -12736619.417 7 -16097289.638 8
  24450655.503    21207500.769 3  12563116.538 1
  20904569.258   -28844710.210 8 -18769592.057 9
  21610519.609   -27558310.190 8 -14316238.421 6
  21183862.537   -24331290.286 8 -15934644.503 9
  23923873.297     -132649.163 5   7891726.746 2
  20800455.564   -15389363.227 8 -18490062.980 9
  22172046.502   -18600850.801 7 -11430598.329 6
 94  2  7  5  0  0.0000000  0  8  9  2  4 13 12  7 24  5
  21363349.841   -12713999.560 7 -16079663.770 8
  24467604.660    21296608.557 3  12632551.114 1
  20910407.866   -28814015.001 8 -18745673.718 9
  21620826.054   -27504133.047 8 -14274022.454 6
  21180076.848   -24351186.440 8 -15950147.999 9
  23937423.407      -61387.136 5   7947255.564 2
  20792849.170   -15429342.775 8 -18521215.863 9
  22157577.348   -18676900.576 8 -11489857.898 6
 94  2  7  5  0 30.0000000  0  8  9  2  4 13 12  7 24  5
  21367761.107   -12690818.242 7 -16061600.424 8
  24484609.188    21385921.488 4  12702145.642 1
  20916339.949   -28782838.251 8 -18721380.141 9
  21631171.262   -27449780.946 8 -14231670.149 6
  21176402.981   -24370512.206 8 -15965207.040 9
  23950988.656        9881.829 5   8002789.851 2
  20785339.789   -15468800.943 8 -18551962.471 9
  22143130.350   -18752791.970 7 -11548994.037 6
 94  2  7  5  1  0.0000000  0  8  9  2  4 13 12  7 24  5
  21372280.808   -12667074.389 7 -16043098.738 8
  24501635.990    21475419.240 4  12771884.094 1
  20922367.756   -28751172.802 8 -18696705.766 9
  21641546.449   -27395259.510 8 -14189185.935 6
  21172829.245   -24389270.045 8 -15979823.538 9
  23964550.877       81148.618 5   8058322.458 2
  20777930.418   -15507742.045 8 -18582306.172 9
  22128721.485   -18828528.132 7 -11608009.225 6
 94  2  7  5  1 30.0000000  0  8  9  2  4 13 12  7 24  5
  21376904.537   -12642776.669 7 -16024165.455 8
  24518695.590    21565095.795 3  12841761.900 1
  20928491.527   -28719007.350 8 -18671641.775 9
  21651950.267   -27340569.617 8 -14146570.415 6
  21169364.574   -24407457.288 8 -15993995.428 9
  23978109.230      152405.326 5   8113847.124 2
  20770617.071   -15546174.059 8 -18612253.187 9
  22114342.779   -18904098.779 7 -11666895.413 6
 94  2  7  5  2  0.0000000  0  8  9  2  4 13 12  7 24  5
  21381627.557   -12617942.322 7 -16004814.030 8
  24535805.315    21654960.403 4  12911786.225 1
  20934705.595   -28686337.363 8 -18646184.639 9
  21662389.310   -27285717.032 8 -14103828.134 6
  21166013.434   -24425076.475 8 -16007724.643 9
  23991670.072      223647.665 5   8169360.644 2
  20763401.336   -15584098.320 8 -18641804.532 9
  22099989.586   -18979515.409 7 -11725661.606 6
 94  2  7  5  2 30.0000000  0  8  9  2  4 13 12  7 24  5
  21386459.762   -12592557.194 8 -15985033.407 8
  24552938.215    21745035.613 3  12981974.685 1
  20941023.751   -28653141.608 8 -18620317.793 9
  21672865.437   -27230688.845 8 -14060949.028 6
  21162772.677   -24442111.581 8 -16020998.749 9
  24005225.398      294889.334 5   8224873.678 2
  20756279.527   -15621503.353 8 -18670951.295 9
  22085667.630   -19054775.070 7 -11784305.498 6
 94  2  7  5  3  0.0000000  0  8  9  2  4 13 12  7 24  5
  21391391.018   -12566635.853 8 -15964834.978 8
  24570121.449    21835311.595 4  13052319.550 1
  20947441.288   -28619410.212 8 -18594033.612 9
  21683366.088   -27175495.931 8 -14017941.580 6
  21159642.664   -24458570.157 8 -16033823.622 9
  24018789.088      366127.914 5   8280384.274 2
  20749256.019   -15658407.091 8 -18699707.453 9
  22071374.905   -19129883.554 7 -11842831.560 6
 94  2  7  5  3 30.0000000  0  7  9  4 13 12  7 24  5
  21396422.225   -12540196.197 8 -15944232.677 8
  20953963.783   -28585150.936 8 -18567338.061 9
  21693897.587   -27120142.177 8 -13974808.770 6
  21156616.679   -24474452.891 8 -16046199.772 9
  24032337.939      437385.416 5   8335909.599 2
  20742331.413   -15694814.338 8 -18728076.718 9
  22057112.009   -19204844.766 7 -11901242.895 6
 94  2  7  5  4  0.0000000  0  7  9  4 13 12  7 24  5
  21401550.535   -12513230.807 7 -15923220.668 8
  20960583.170   -28550355.037 8 -18540224.384 9
  21704464.612   -27064625.996 8 -13931549.415 6
  21153708.572   -24489754.861 8 -16058123.386 9
  24045901.689      508674.800 5   8391459.736 2
  20735497.914   -15730714.283 8 -18756050.698 9
  22042874.446   -19279663.429 7 -11959543.137 6
 94  2  7  5  4 30.0000000  0  7  9  4 13 12  7 24  5
  21406789.168   -12485730.131 7 -15901791.601 7
  20967310.093   -28515021.898 8 -18512692.052 9
  21715056.429   -27008952.232 8 -13888167.274 6
  21150902.815   -24504478.012 7 -16069595.977 9
  24059475.542      579999.356 5   8447037.306 2
  20728767.153   -15766098.896 8 -18783623.106 9
  22028661.555   -19354337.109 7 -12017730.418 6
 94  2  7  5  5  0.0000000  0  7  9  4 13 12  7 24  5
  21412120.917   -12457682.448 7 -15879936.269 7
  20974129.352   -28479174.691 8 -18484759.152 9
  21725679.425   -26953127.145 8 -13844667.219 6
  21148213.826   -24518625.620 7 -16080620.090 9
  24073056.530      651350.990 5   8502636.065 2
  20722129.778   -15800968.414 8 -18810794.126 9
  22014481.462   -19428854.834 7 -12075796.156 6
 94  2  7  5  5 30.0000000  0  7  9  4 13 12  7 24  5
  21417568.656   -12429076.049 7 -15857645.571 7
  20981042.387   -28442837.254 8 -18456444.288 9
  21736336.058   -26897149.822 8 -13801048.517 6
  21145633.842   -24532193.345 8 -16091192.364 9
  24086633.441      722708.752 5   8558239.484 2
  20715596.671   -15835308.987 8 -18837553.030 9
  22000337.074   -19503208.833 8 -12133734.322 7
 94  2  7  5  6  0.0000000  0  7  9  4 13 12  7 24  5
  21423117.245   -12399897.172 7 -15834908.802 7
  20988050.095   -28406017.471 8 -18427753.535 9
  21747017.903   -26841022.714 9 -13757313.115 6
  21143160.644   -24545180.850 8 -16101312.492 9
  24100217.127      794055.228 5   8613834.126 2
  20709163.335   -15869109.252 7 -18863890.870 9
  21986214.151   -19577388.238 8 -12191536.450 7
 94  2  7  5  6 30.0000000  0  7  9  4 13 12  7 24  5
  21428780.534   -12370153.386 7 -15811731.827 7
  20995145.853   -28368737.759 8 -18398704.411 9
  21757723.402   -26784747.717 8 -13713462.471 6
  21140798.070   -24557586.974 8 -16110979.607 9
  24113789.541      865384.424 5   8669415.318 2
  20702831.778   -15902388.510 8 -18889822.747 9
  21972138.415   -19651389.403 8 -12249199.682 7
 94  2  7  5  7  0.0000000  0  7  9  4 13 12  7 24  5
  21434545.933   -12339857.823 7 -15788124.901 7
  21002326.272   -28330999.249 8 -18369297.789 9
  21768460.978   -26728321.502 8 -13669493.984 6
  21138550.166   -24569405.366 8 -16120188.741 9
  24127355.449      936694.490 5   8724981.609 2
  20696592.827   -15935161.802 8 -18915360.364 9
  21958082.766   -19725211.635 7 -12306723.476 7
 94  2  7  5  7 30.0000000  0  7  9  4 13 12  7 24  5
  21440408.404   -12309042.608 7 -15764113.069 7
  21009595.040   -28292789.672 8 -18339524.093 9
  21779225.296   -26671750.310 8 -13625412.529 6
  21136406.980   -24580639.464 8 -16128942.594 9
  24140917.640     1007984.585 5   8780532.379 2
  20690454.157   -15967426.092 7 -18940501.372 9
  21944074.064   -19798862.095 8 -12364113.454 7
 94  2  7  5  8  0.0000000  0  7  9  4 13 12  7 24  5
  21446371.726   -12277725.913 7 -15739710.466 7
  21016957.163   -28254093.617 8 -18309371.325 9
  21790017.974   -26615036.914 8 -13581220.259 6
  21134385.599   -24591288.974 8 -16137240.918 9
  24154493.172     1079255.985 5   8836068.549 2
  20684409.441   -15999188.874 7 -18965251.568 9
  21930087.846   -19872343.863 8 -12421371.959 7
 94  2  7  5  8 30.0000000  0  7  9  4 13 12  7 24  5
  21452420.548   -12245928.033 7 -15714932.908 7
  21024417.259   -28214905.411 8 -18278835.065 9
  21800837.154   -26558186.538 8 -13536921.267 6
  21132472.144   -24601356.205 8 -16145085.522 9
  24168038.395     1150504.656 5   8891586.945 2
  20678457.242   -16030455.477 7 -18989615.143 9
  21916141.831   -19945669.810 8 -12478509.042 7
 94  2  7  5  9  0.0000000  0  7  9  4 13 12  7 24  5
  21458561.197   -12213644.811 7 -15689777.172 7
  21031975.476   -28175203.506 8 -18247898.506 9
  21811679.059   -26501196.919 8 -13492513.766 6
  21130665.055   -24610836.203 8 -16152472.527 9
  24181580.021     1221727.825 4   8947085.575 2
  20672610.599   -16061190.102 7 -19013564.190 9
  21902211.554   -20018834.802 8 -12535520.726 7
 94  2  7  5  9 30.0000000  0  7  9  4 13 12  7 24  5
  21464803.566   -12180859.523 7 -15664230.228 7
  21039627.919   -28134978.942 8 -18216554.704 9
  21822554.030   -26444062.477 8 -13447993.417 6
  21128974.495   -24619720.517 7 -16159395.381 9
  24195149.586     1292937.006 5   9002573.280 2
  20666868.615   -16091368.155 7 -19037079.552 9
  21888325.498   -20091824.016 8 -12592395.429 7
 94  2  7  5 10  0.0000000  0  7  9  4 13 12  7 24  5
  21471139.709   -12147560.490 7 -15638282.927 7
  21047375.305   -28094244.374 8 -18184813.470 9
  21833454.244   -26386789.126 8 -13403364.812 6
  21127398.067   -24628012.208 8 -16165856.439 9
  24208697.447     1364133.775 5   9058051.300 2
  20661229.758   -16121014.680 8 -19060180.717 9
  21874467.981   -20164635.679 8 -12649131.779 7
 94  2  7  5 10 30.0000000  0  7  9  4 13 12  7 24  5
  21477577.752   -12113737.239 7 -15611927.156 7
  21055224.441   -28053011.887 8 -18152684.264 9
  21844379.041   -26329379.492 8 -13358630.033 6
  21125932.142   -24635711.329 7 -16171855.751 9
  24222238.024     1435329.015 4   9113528.115 2
  20655685.606   -16150132.807 8 -19082870.161 9
  21860645.330   -20237264.308 8 -12705725.505 7
 94  2  7  5 11  0.0000000  0  7  9  4 13 12  7 24  5
  21484114.337   -12079374.445 7 -15585150.967 7
  21063164.355   -28011287.767 8 -18120171.952 9
  21855326.262   -26271836.334 8 -13313791.199 5
  21124582.056   -24642817.981 8 -16177393.401 9
  24235799.855     1506535.066 5   9169013.295 2
  20650246.202   -16178726.135 8 -19105150.650 9
  21846862.822   -20309700.604 8 -12762169.374 7
 94  2  7  5 11 30.0000000  0  7  9  4 13 12  7 24  5
  21490754.770   -12044470.197 7 -15557952.870 7
  21071194.805   -27969090.721 8 -18087291.135 9
  21866301.814   -26214170.633 8 -13268856.880 5
  21123338.247   -24649340.307 7 -16182475.731 9
  24249349.485     1577763.984 5   9224516.395 2
  20644900.663   -16206822.091 8 -19127043.591 9
  21833113.800   -20381950.659 8 -12818468.114 7
 94  2  7  5 12  0.0000000  0  7  9  4 13 12  7 24  5
  21497501.180   -12009020.615 7 -15530329.808 7
  21079316.303   -27926416.348 8 -18054038.376 9
  21877299.341   -26156375.174 8 -13223821.442 5
  21122209.948   -24655268.403 8 -16187095.026 9
  24262897.675     1649024.971 4   9280044.463 2
  20639649.828   -16234409.197 8 -19148540.023 9
  21819398.475   -20454011.324 8 -12874619.275 7
 94  2  7  5 12 30.0000000  0  7  9  4 13 12  7 24  5
  21504352.007   -11973030.444 7 -15502285.529 7
  21087529.177   -27883257.902 8 -18020408.417 9
  21888324.358   -26098448.989 8 -13178684.152 5
  21121197.969   -24660599.001 7 -16191248.741 9
  24276469.280     1720317.208 5   9335596.848 2
  20634495.196   -16261466.230 8 -19169623.406 9
  21805724.671   -20525895.804 8 -12930633.130 7
 94  2  7  5 13  0.0000000  0  7  9  4 13 12  7 24  5
  21511301.256   -11936506.843 7 -15473825.614 7
  21095833.728   -27839621.527 8 -17986406.035 9
  21899370.901   -26040399.968 8 -13133451.166 5
  21120294.634   -24665337.092 7 -16194940.779 9
  24290039.116     1791625.986 5   9391162.106 2
  20629453.197   -16287983.948 8 -19190286.574 9
  21792077.039   -20597616.431 8 -12986519.329 7
 94  2  7  5 13 30.0000000  0  7  9  4 13 12  7 24  5
  21518351.056   -11899456.705 7 -15444955.370 7
  21104226.688   -27795508.240 8 -17952032.047 9
  21910439.179   -25982226.247 7 -13088120.994 5
  21119508.189   -24669478.380 7 -16198167.750 9
  24303613.598     1862934.701 5   9446727.330 2
  20624513.906   -16313959.814 8 -19210527.485 9
  21778457.138   -20669167.927 8 -13042273.739 7
 94  2  7  5 14  0.0000000  0  8  9  4 13 12  7 24 20  5
  21525496.639   -11861894.213 7 -15415685.910 7
  21112713.393   -27750921.644 8 -17917289.225 9
  21921531.709   -25923928.656 7 -13042694.279 5
  21118834.165   -24673021.344 8 -16200928.490 9
  24317175.070     1934227.652 5   9502280.345 2
  20619669.920   -16339394.348 8 -19230346.598 9
  24750575.193   -28126919.20515   -800637.478 2
  21764877.349   -20740543.234 8 -13097890.845 7
 94  2  7  5 14 30.0000000  0  8  9  4 13 12  7 24 20  5
  21532741.183   -11823828.039 7 -15386023.979 7
  21121284.399   -27705882.192 8 -17882193.545 9
  21932644.896   -25865516.282 7 -12997178.126 5
  21118269.206   -24675972.498 8 -16203228.117 9
  24330739.180     2005492.565 5   9557811.451 2
  20614932.869   -16364304.237 8 -19249756.885 9
  24731570.060   -28226764.994 5   -878439.372 2
  21751330.897   -20811728.912 8 -13153360.194 7
 94  2  7  5 15  0.0000000  0  8  9  4 13 12  7 24 20  5
  21540085.709   -11785258.411 7 -15355969.738 7
  21129939.647   -27660399.383 8 -17846752.382 9
  21943786.803   -25806985.495 7 -12951569.721 5
  21117819.997   -24678325.762 7 -16205061.816 9
  24344299.362     2076734.360 5   9613324.567 2
  20610293.131   -16388686.800 8 -19268756.277 9
  24712572.632   -28326635.130 5   -956260.279 2
  21737827.345   -20882692.683 8 -13208656.647 7
 94  2  7  5 15 30.0000000  0  8  9  4 13 12  7 24 20  5
  21547517.564   -11746191.512 7 -15325527.999 7
  21138676.019   -27614473.909 8 -17810966.303 9
  21954946.217   -25748334.457 7 -12905867.623 5
  21117487.318   -24680076.767 8 -16206426.247 9
  24357852.829     2147963.956 5   9668828.082 2
  20605747.468   -16412558.564 8 -19287357.652 9
  24693565.580   -28426524.165 5  -1034095.910 2
  21724366.244   -20953414.602 8 -13263764.632 7
 94  2  7  5 16  0.0000000  0  8  9  4 13 12  7 24 20  5
  21555045.982   -11706621.740 7 -15294694.435 7
  21147501.699   -27568096.721 8 -17774828.246 9
  21966132.793   -25689552.148 7 -12860063.222 5
  21117274.165   -24681212.374 8 -16207311.158 9
  24371418.498     2219207.350 5   9724342.449 2
  20601309.100   -16435895.689 8 -19305542.407 9
  24674556.430   -28526418.012 5  -1111935.233 2
  21710958.656   -21023880.744 8 -13318673.310 7
 94  2  7  5 16 30.0000000  0  8  9  4 13 12  7 24 20  5
  21562673.931   -11666550.149 7 -15263469.838 7
  21156410.062   -27521268.710 8 -17738338.875 9
  21977343.981   -25630645.626 7 -12814162.026 5
  21117177.272   -24681737.505 8 -16207720.352 9
  24384971.725     2290463.726 5   9779866.925 2
  20596966.937   -16458694.320 8 -19323307.582 9
  24655543.832   -28626320.378 5  -1189781.270 2
  21697594.238   -21094109.690 8 -13373397.156 7
 94  2  7  5 17  0.0000000  0  8  9  4 13 12  7 24 20  5
  21570390.769   -11625983.194 7 -15231859.212 7
  21165409.112   -27473978.626 8 -17701489.447 9
  21988570.759   -25571626.537 7 -12768173.114 5
  21117187.255   -24681661.046 8 -16207660.775 9
  24398525.912     2361730.053 5   9835399.148 2
  20592735.756   -16480952.655 8 -19340651.721 9
  24636536.840   -28726239.351 5  -1267640.197 2
  21684269.932   -21164125.764 8 -13427955.137 7
 94  2  7  5 17 30.0000000  0  8  9  4 13 12  7 24 20  5
  21578204.200   -11584913.240 7 -15199856.674 7
  21174502.207   -27426212.270 8 -17664268.913 9
  21999827.546   -25512499.023 8 -12722099.740 5
  21117319.254   -24680985.166 8 -16207134.125 9
  24412092.180     2433003.544 5   9890936.869 2
  20588599.219   -16502673.104 7 -19357576.732 9
  24617505.026   -28826175.755 5  -1345512.757 2
  21670984.240   -21233938.989 8 -13482355.039 7
 94  2  7  5 18  0.0000000  0  8  9  4 13 12  7 24 20  5
  21586121.149   -11543329.729 7 -15167453.935 7
  21183680.233   -27377951.589 8 -17626663.174 9
  22011097.704   -25453259.582 8 -12675939.117 5
  21117563.015   -24679704.293 8 -16206136.041 9
  24425659.078     2504289.467 5   9946484.381 2
  20584572.317   -16523843.096 7 -19374072.813 9
  24598492.758   -28926122.786 5  -1423393.526 2
  21657737.520   -21303548.073 8 -13536595.872 7
 94  2  7  5 18 30.0000000  0  8  9  4 13 12  7 24 20  5
  21594135.051   -11501215.329 7 -15134637.536 7
  21192965.195   -27329187.087 8 -17588664.860 9
  22022392.955   -25393905.775 8 -12629689.397 5
  21117923.516   -24677813.494 8 -16204662.703 9
  24439226.186     2575589.298 5  10002042.703 2
  20580641.169   -16544482.193 7 -19390155.225 9
  24579479.800   -29026074.515 5  -1501277.979 2
  21644537.538   -21372941.299 8 -13590668.503 7
 94  2  7  5 19  0.0000000  0  8  9  4 13 12  7 24 20  5
  21602247.076   -11458567.556 7 -15101405.510 7
  21202338.057   -27279931.262 8 -17550283.694 9
  22033709.820   -25334442.348 8 -12583354.269 5
  21118394.730   -24675315.636 8 -16202716.326 9
  24452801.598     2646890.865 5  10057602.378 2
  20576816.536   -16564609.112 8 -19405838.536 9
  24560453.112   -29126032.771 5  -1579167.489 2
  21631369.604   -21442102.202 8 -13644560.120 8
 94  2  7  5 19 30.0000000  0  8  9  4 13 12  7 24 20  5
  21610464.147   -11415398.762 7 -15067767.501 7
  21211794.980   -27230223.764 8 -17511550.578 9
  22045041.256   -25274880.915 8 -12536942.793 5
  21118989.458   -24672220.101 8 -16200304.227 9
  24466358.482     2718180.033 4  10113152.341 2
  20573077.255   -16584243.759 7 -19421138.253 9
  24541433.919   -29226005.712 5  -1657068.488 2
  21618260.640   -21511021.045 8 -13698263.112 8
 94  2  7  5 20  0.0000000  0  8  9  4 13 12  7 24 20  5
  21618775.683   -11371721.028 7 -15033732.899 7
  21221337.404   -27180086.135 8 -17472482.291 9
  22056392.687   -25215220.165 8 -12490453.896 5
  21119689.443   -24668523.551 8 -16197423.796 9
  24479923.731     2789452.461 4  10168689.303 2
  20569436.575   -16603378.475 7 -19436048.403 9
  24522397.338   -29325988.512 5  -1734977.156 2
  21605189.359   -21579692.858 8 -13751773.582 8
 94  2  7  5 20 30.0000000  0  8  9  4 13 12  7 24 20  5
  21627179.825   -11327547.374 7 -14999311.878 7
  21230954.896   -27129544.308 8 -17433099.056 9
  22067768.222   -25155462.220 8 -12443889.264 5
  21120507.277   -24664226.078 8 -16194075.127 9
  24493474.740     2860696.137 4  10224203.855 2
  20565890.690   -16622006.914 8 -19450564.067 9
  24503379.523   -29425980.179 5  -1812892.718 2
  21592170.511   -21648122.241 8 -13805095.189 8
 94  2  7  5 21  0.0000000  0  8  9  4 13 12  7 24 20  5
  21635679.211   -11282902.549 7 -14964523.723 7
  21240647.845   -27078596.552 8 -17393399.495 9
  22079160.905   -25095606.139 8 -12397248.147 5
  21121440.741   -24659324.961 8 -16190256.083 9
  24507038.970     2931914.540 4  10279698.760 2
  20562450.871   -16640097.258 8 -19464660.412 9
  24484347.649   -29525976.291 5  -1890811.775 2
  21579193.965   -21716307.620 8 -13858226.648 8
 94  2  7  5 21 30.0000000  0  8  9  4 13 12  7 24 20  5
  21644262.479   -11237802.377 7 -14929380.740 7
  21250426.086   -27027224.565 8 -17353369.384 9
  22090567.019   -25035646.058 8 -12350526.019 5
  21122490.224   -24653811.942 8 -16185960.218 9
  24520588.330     3003119.708 5  10335183.251 2
  20559116.640   -16657620.427 8 -19478314.826 9
  24465316.074   -29625967.284 5  -1968726.891 2
  21566259.389   -21784250.587 8 -13911169.203 8
 94  2  7  5 22  0.0000000  0  8  9  4 13 12  7 24 20  5
  21652927.770   -11192258.929 7 -14893892.357 7
  21260282.033   -26975410.175 8 -17312994.532 9
  22101996.456   -24975589.317 8 -12303728.563 5
  21123653.389   -24647692.876 8 -16181192.120 9
  24534128.996     3074306.289 5  10390653.306 2
  20555887.395   -16674582.555 7 -19491532.057 9
  24446281.921   -29725957.663 5  -2046641.493 2
  21553376.138   -21851985.431 8 -13963949.593 8
 94  2  7  5 22 30.0000000  0  8  9  4 13 12  7 24 20  5
  21661680.001   -11146266.983 7 -14858054.468 7
  21270231.785   -26923143.720 8 -17272267.423 9
  22113439.714   -24915441.436 8 -12256860.057 5
  21124932.394   -24640971.282 8 -16175954.514 9
  24547666.184     3145488.595 4  10446120.050 2
  20552763.498   -16690994.775 7 -19504320.789 9
  24427258.501   -29825949.391 5  -2124557.140 2
  21540522.507   -21919520.468 8 -14016574.292 8
 94  2  7  5 23  0.0000000  0  8  9  4 13 12  7 24 20  5
  21670517.613   -11099816.287 7 -14821859.152 7
  21280264.999   -26870415.428 8 -17231180.437 9
  22124905.397   -24855208.488 8 -12209925.307 5
  21126322.711   -24633651.256 8 -16170250.609 9
  24561223.249     3216675.942 4  10501590.693 2
  20549742.609   -16706870.515 7 -19516691.492 9
  24408229.444   -29925945.094 5  -2202475.867 2
  21527710.786   -21986856.329 8 -14069043.791 8
 94  2  7  5 23 30.0000000  0  8  9  4 13 12  7 24 20  5
  21679452.507   -11052870.923 7 -14785278.379 7
  21290386.892   -26817230.567 8 -17189737.690 9
  22136376.715   -24794885.047 7 -12162920.022 5
  21127833.036   -24625725.764 7 -16164074.910 9
  24574766.433     3287879.569 4  10557074.071 2
  20546817.534   -16722228.087 7 -19528658.409 9
  24389200.028   -30025936.163 5  -2280391.010 2
  21514933.961   -22053996.585 8 -14121360.869 8
 94  2  7  5 24  0.0000000  0  8  9  4 13 12  7 24 20  5
  21688484.445   -11005409.542 7 -14748295.494 7
  21300592.816   -26763597.782 8 -17147945.911 9
  22147878.283   -24734473.707 7 -12115846.255 5
  21129457.491   -24617195.480 8 -16157427.927 9
  24588327.245     3359108.390 4  10612576.915 2
  20543993.759   -16737088.659 8 -19540238.073 9
  24370175.379   -30125921.694 5  -2358301.823 2
  21502195.450   -22120929.490 8 -14173516.393 8
 94  2  7  5 24 30.0000000  0  8  9  4 13 12  7 24 20  5
  21697612.705   -10957429.140 7 -14710908.168 7
  21310881.814   -26709536.566 8 -17105820.286 9
  22159389.714   -24673980.841 7 -12068708.946 5
  21131195.358   -24608065.317 7 -16150313.507 9
  24601878.704     3430361.350 4  10668098.761 2
  20541260.641   -16751457.584 8 -19551434.608 9
  24351154.327   -30225904.761 5  -2436210.696 2
  21489506.404   -22187626.706 8 -14225488.232 8
 94  2  7  5 25  0.0000000  0  8  9  4 13 12  7 24 20  5
  21706845.204   -10908924.091 7 -14673112.057 7
  21321246.298   -26655044.254 8 -17063358.760 9
  22170920.601   -24613397.194 7 -12021500.911 5
  21133046.486   -24598324.093 7 -16142722.946 9
  24615443.203     3501636.519 4  10723637.931 2
  20538617.791   -16765324.427 8 -19562239.935 9
  24332133.664   -30325872.797 5  -2514107.902 2
  21476860.379   -22254067.828 8 -14277260.534 8
 94  2  7  5 25 30.0000000  0  8  9  4 13 12  7 24 20  5
  21716168.689   -10859909.284 7 -14634918.719 7
  21331698.442   -26600130.355 8 -17020568.702 9
  22182467.857   -24552721.152 7 -11974220.882 5
  21135014.414   -24587968.487 7 -16134653.653 9
  24629011.150     3572931.982 4  10779192.815 2
  20536076.540   -16778673.344 8 -19572641.682 9
  24313111.233   -30425820.688 5  -2591989.367 2
  21464272.633   -22320234.905 8 -14328819.285 8
 94  2  7  5 26  0.0000000  0  8  9  4 13 12  7 24 20  5
  21725586.789   -10810417.966 7 -14596354.058 7
  21342226.134   -26544806.389 8 -16977459.108 9
  22194024.557   -24491960.915 7 -11926875.254 5
  21137104.717   -24577005.401 7 -16126110.985 9
  24642588.241     3644233.905 4  10834752.693 2
  20533639.557   -16791491.799 8 -19582630.077 9
  24294097.556   -30525753.294 5  -2669858.905 2
  21451732.375   -22386122.911 8 -14380160.605 8
 94  2  7  5 26 30.0000000  0  8  9  4 13 12  7 24 20  5
  21735093.568   -10760474.490 7 -14557437.062 7
  21352831.862   -26489079.345 8 -16934035.434 9
  22205607.458   -24431115.312 7 -11879463.094 5
  21139307.322   -24565431.850 8 -16117092.629 9
  24656147.344     3715540.270 4  10890316.137 2
  20531306.362   -16803764.472 8 -19592193.181 9
  24275077.583   -30625666.087 5  -2747713.044 2
  21439248.207   -22451737.887 8 -14431289.135 8
 94  2  7  5 27  0.0000000  0  8  9  4 13 12  7 24 20  5
  21744678.622   -10710093.003 7 -14518178.779 6
  21363512.628   -26432944.624 8 -16890294.078 9
  22217199.593   -24370181.730 7 -11831982.374 5
  21141624.238   -24553243.772 8 -16107595.430 9
  24669722.397     3786848.516 4  10945881.028 2
  20529070.690   -16815487.812 8 -19601328.240 9
  24256070.652   -30725553.218 5  -2825547.182 2
  21426807.240   -22517087.159 8 -14482210.638 8
 94  2  7  5 27 30.0000000  0  8  9  4 13 12  7 24 20  5
  21754346.539   -10659286.333 7 -14478589.195 6
  21374273.079   -26376408.315 8 -16846239.825 9
  22228809.685   -24309172.501 7 -11784442.739 5
  21144060.082   -24540451.677 8 -16097627.592 9
  24683292.562     3858145.086 4  11001436.707 2
  20526942.463   -16826673.635 8 -19610044.479 9
  24237069.956   -30825423.721 5  -2903368.393 2
  21414421.045   -22582182.634 8 -14532934.380 9
 94  2  7  5 28  0.0000000  0  8  9  4 13 12  7 24 20  5
  21764099.178   -10608047.843 7 -14438663.105 7
  21385109.137   -26319463.274 8 -16801867.061 9
  22240428.502   -24248091.264 7 -11736846.957 5
  21146611.136   -24527058.168 8 -16087191.092 9
  24696857.691     3929424.339 4  11056978.977 2
  20524911.669   -16837347.802 7 -19618362.000 9
  24218063.204   -30925277.670 5  -2981176.743 2
  21402085.485   -22647032.689 8 -14583466.882 9
 94  2  7  5 28 30.0000000  0  8  9  4 13 12  7 24 20  5
  21773936.807   -10556353.007 7 -14398381.424 7
  21396027.129   -26262085.709 8 -16757157.263 9
  22252071.032   -24186933.487 7 -11689191.545 5
  21149272.094   -24513057.419 8 -16076281.433 9
  24710417.424     4000688.851 4  11112509.781 2
  20522975.310   -16847522.434 7 -19626290.288 9
  24199067.724   -31025107.485 5  -3058966.163 2
  21389793.724   -22711622.904 8 -14633796.920 9
 94  2  7  5 29  0.0000000  0  8  9  4 13 12  7 24 20  5
  21783859.788   -10504191.121 7 -14357735.821 7
  21407027.683   -26204280.793 8 -16712114.467 8
  22263722.106   -24125708.285 7 -11641483.597 5
  21152053.418   -24498456.905 8 -16064904.407 9
  24723967.473     4071921.907 4  11168016.075 2
  20521131.946   -16857214.365 7 -19633842.417 9
  24180074.253   -31124918.777 5  -3136741.297 2
  21377554.067   -22775947.209 8 -14683919.745 9
 94  2  7  5 29 30.0000000  0  8  9  4 13 12  7 24 20  5
  21793883.768   -10451544.884 7 -14316712.800 7
  21418106.663   -26146050.065 8 -16666739.881 8
  22275389.699   -24064412.376 7 -11593720.587 5
  21154943.687   -24483251.955 8 -16053056.404 9
  24737523.579     4143131.703 4  11223504.231 2
  20519384.756   -16866415.969 8 -19641012.499 9
  24161083.270   -31224704.902 5  -3214496.742 2
  21365365.885   -22839999.839 8 -14733830.889 9
 94  2  7  5 30  0.0000000  0  9  9  4 13 12  7 24 20 16  5
  21803987.913   -10398419.182 7 -14275316.158 7
  21429268.476   -26087401.011 8 -16621039.321 8
  22287062.418   -24003050.834 7 -11545906.368 5
  21157951.895   -24467446.077 8 -16040740.135 9
  24751061.906     4214324.340 4  11278978.943 2
  20517725.015   -16875117.222 8 -19647792.691 9
  24142098.823   -31324467.304 5  -3292233.663 2
  24882785.256    -9138234.43814  -2864133.245 2
  21353225.040   -22903774.210 8 -14783525.184 9
 94  2  7  5 30 30.0000000  0  9  9  4 13 12  7 24 20 16  5
  21814188.681   -10344825.898 7 -14233555.160 7
  21440509.164   -26028341.680 8 -16575019.050 8
  22298755.673   -23941618.293 7 -11498036.838 5
  21161077.081   -24451033.237 8 -16027950.928 9
  24764601.703     4285513.798 3  11334451.307 2
  20516171.460   -16883279.488 7 -19654152.901 9
  24123120.371   -31424197.950 5  -3369945.885 2
  24864894.062    -9232207.571 4  -2937359.034 2
  21341147.451   -22967252.663 8 -14832988.925 9
 94  2  7  5 31  0.0000000  0  8  9  4 13 12 24 20 16  5
  21824472.282   -10290780.080 7 -14191441.550 7
  21451818.625   -25968900.063 8 -16528700.920 8
  22310457.472   -23880117.657 7 -11450114.264 5
  21164312.381   -24434014.840 8 -16014689.846 9
  20514724.692   -16890886.021 7 -19660080.057 9
  24104157.629   -31523895.990 5  -3447632.721 2
  24846999.780    -9326281.675 4  -3010663.485 2
  21329122.985   -23030436.610 8 -14882223.152 9
 94  2  7  5 31 30.0000000  0  8  9  4 13 12 24 20 16  5
  21834844.232   -10236290.704 7 -14148982.286 7
  21463204.053   -25909075.477 8 -16482084.365 8
  22322172.731   -23818548.262 7 -11402138.146 5
  21167666.549   -24416388.983 8 -16000955.405 9
  20513388.726   -16897915.617 8 -19665557.663 9
  24085190.060   -31623557.357 5  -3525290.956 2
  24829084.752    -9420463.208 5  -3084051.676 2
  21317155.270   -23093322.674 8 -14931225.270 9
 94  2  7  5 32  0.0000000  0  8  9  4 13 12 24 20 16  5
  21845290.080   -10181382.335 7 -14106196.564 7
  21474658.673   -25848866.314 8 -16435168.125 8
  22333898.814   -23756914.633 7 -11354111.939 5
  21171138.566   -24398159.010 8 -15986750.247 9
  20512158.078   -16904373.256 8 -19670589.590 9
  24066228.936   -31723183.249 5  -3602921.549 2
  24811139.146    -9514766.603 5  -3157534.733 2
  21305245.595   -23155913.977 8 -14979997.706 9
 94  2  7  5 32 30.0000000  0  8  9  4 13 12 24 20 16  5
  21855820.530   -10126055.970 7 -14063085.132 7
  21486186.023   -25788279.169 8 -16387957.366 8
  22345642.134   -23695219.455 7 -11306037.780 5
  21174721.565   -24379326.687 8 -15972075.715 8
  20511035.446   -16910282.069 8 -19675193.854 9
  24047278.396   -31822773.204 5  -3680524.163 2
  24793165.868    -9609180.918 5  -3231104.306 2
  21293387.065   -23218228.760 8 -15028554.678 9
 94  2  7  5 33  0.0000000  0  8  9  4 13 12 24 20 16  5
  21866426.738   -10070296.183 7 -14019635.951 7
  21497790.539   -25727304.597 8 -16340444.714 8
  22357400.264   -23633457.724 7 -11257911.760 4
  21178422.833   -24359885.843 8 -15956927.014 8
  20510012.884   -16915657.859 8 -19679382.766 9
  24028337.358   -31922318.470 5  -3758091.899 2
  24775179.310    -9703691.973 4  -3304749.199 2
  21281581.778   -23280271.552 8 -15076899.696 9
 94  2  7  5 33 30.0000000  0  8  9  4 13 12 24 20 16  5
  21877121.624   -10014110.270 7 -13975854.730 7
  21509469.074   -25665938.612 8 -16292627.071 8
  22369158.214   -23571635.041 7 -11209738.247 4
  21182237.152   -24339840.784 8 -15941307.503 8
  20509087.364   -16920511.909 8 -19683165.147 9
  24009402.197   -32021821.483 5  -3835626.770 2
  24757182.319    -9798296.518 5  -3378467.001 2
  21269824.037   -23342050.920 8 -15125039.470 9
 94  2  7  5 34  0.0000000  0  8  9  4 13 12 24 20 16  5
  21887894.456    -9957495.951 7 -13931739.688 7
  21521225.436   -25604182.837 8 -16244505.695 8
  22380931.304   -23509753.631 7 -11161518.993 4
  21186168.001   -24319193.004 8 -15925218.331 8
  20508260.477   -16924866.622 8 -19686558.420 9
  23990470.813   -32121281.272 5  -3913127.936 2
  24739155.379    -9892983.836 5  -3452249.300 2
  21258118.611   -23403563.988 9 -15172971.723 9
 94  2  7  5 34 30.0000000  0  8  9  4 13 12 24 20 16  5
  21898753.418    -9900442.232 7 -13887282.270 6
  21533047.571   -25542060.511 8 -16196098.684 8
  22392717.854   -23447819.925 7 -11113258.932 4
  21190203.807   -24297948.015 7 -15908663.806 8
  20507523.977   -16928722.255 8 -19689562.802 9
  23971557.296   -32220700.745 5  -3990597.671 2
  24721123.972    -9987747.530 5  -3526091.112 2
  21246467.567   -23464797.358 9 -15220686.031 9
 94  2  7  5 35  0.0000000  0  8  9  4 13 12 24 20 16  5
  21909691.736    -9842948.710 7 -13842482.137 6
  21544935.302   -25479572.856 8 -16147407.016 8
  22404518.405   -23385826.214 7 -11064952.141 4
  21194366.216   -24276097.153 8 -15891637.183 8
  20506889.106   -16932064.193 8 -19692166.904 9
  23952647.437   -32320068.927 5  -4068027.438 2
  24703084.291   -10082580.933 5  -3599987.166 2
  21234874.742   -23525722.653 8 -15268160.286 9
 94  2  7  5 35 30.0000000  0  8  9  4 13 12 24 20 16  5
  21920717.713    -9785021.755 7 -13797344.254 6
  21556894.802   -25416725.553 8 -16098435.064 8
  22416326.360   -23323779.005 7 -11016603.696 4
  21198636.819   -24253646.067 8 -15874142.835 8
  20506348.340   -16934906.920 8 -19694382.005 9
  23933742.525   -32419389.175 6  -4145419.866 2
  24685022.365   -10177492.852 5  -3673944.475 2
  21223338.459   -23586342.273 8 -15315396.347 9
 94  2  7  5 36  0.0000000  0  8  9  4 13 12 24 20 16  5
  21931820.796    -9726663.146 7 -13751870.012 6
  21568921.247   -25353520.560 8 -16049184.433 8
  22428141.061   -23261682.240 7 -10968216.597 4
  21203022.273   -24230597.837 8 -15856183.184 8
  20505900.690   -16937266.159 8 -19696220.379 9
  23914850.923   -32518662.041 6  -4222775.400 2
  24666942.451   -10272498.966 5  -3747975.166 2
  21211860.844   -23646660.203 8 -15362397.325 9
 94  2  7  5 36 30.0000000  0  8  9  4 13 12 24 20 16  5
  21943007.132    -9667875.128 7 -13706061.208 6
  21581015.174   -25289964.637 8 -15999660.342 8
  22439963.766   -23199536.578 7 -10919791.395 4
  21207527.194   -24206952.028 8 -15837757.903 8
  20505542.199   -16939132.521 8 -19697674.674 9
  23895973.652   -32617884.490 6  -4300091.656 2
  24648851.325   -10367592.449 5  -3822073.896 2
  21200433.235   -23706691.600 8 -15409175.044 9
 94  2  7  5 37  0.0000000  0  8  9  4 13 12 24 20 16  5
  21954278.100    -9608665.340 7 -13659923.692 6
  21593183.180   -25226032.680 8 -15949843.216 8
  22451794.806   -23137341.129 7 -10871327.400 4
  21212133.835   -24182707.407 7 -15818865.989 8
  20505281.859   -16940508.006 8 -19698746.470 9
  23877102.106   -32717052.881 6  -4377365.748 2
  24630740.923   -10462769.545 5  -3896237.865 2
  21189065.075   -23766455.123 9 -15455744.008 9
 94  2  7  5 37 30.0000000  0  8  9  4 13 12 24 20 16  5
  21965626.623    -9549030.637 7 -13613455.097 6
  21605423.107   -25161710.932 8 -15899722.387 8
  22463647.730   -23075101.141 7 -10822828.715 4
  21216864.590   -24157868.278 8 -15799510.837 8
  20505115.414   -16941386.810 8 -19699431.244 9
  23858241.893   -32816169.008 5  -4454599.132 2
  24612613.132   -10558025.199 5  -3970462.976 2
  21177739.246   -23825955.893 8 -15502108.240 9
 94  2  7  5 38  0.0000000  0  8  9  4 13 12 24 20 16  5
  21977051.384    -9488973.726 7 -13566657.534 6
  21617735.193   -25096996.901 8 -15849295.877 7
  22475499.725   -23012816.266 7 -10774295.045 4
  21221704.620   -24132433.699 8 -15779691.698 8
  20505045.502   -16941748.282 8 -19699712.891 9
  23839392.862   -32915229.189 5  -4531788.906 2
  24594474.010   -10653328.953 5  -4044725.594 2
  21166470.827   -23885181.323 8 -15548257.926 9
 94  2  7  5 38 30.0000000  0  8  9  4 13 12 24 20 16  5
  21988561.705    -9428490.238 7 -13519527.535 6
  21630126.965   -25031886.696 8 -15798560.638 7
  22487361.853   -22950481.385 7 -10725722.393 4
  21226660.549   -24106397.685 8 -15759403.904 8
  20505080.248   -16941567.666 8 -19699572.163 9
  23820557.441   -33014224.797 5  -4608928.317 3
  24576333.628   -10748659.307 5  -4119008.978 2
  21155258.919   -23944104.460 9 -15594172.052 9
 94  2  7  5 39  0.0000000  0  8  9  4 13 12 24 20 16  5
  22000153.930    -9367586.401 7 -13472069.993 6
  21642594.284   -24966370.832 8 -15747509.320 7
  22499234.654   -22888094.225 7 -10677109.000 4
  21231728.690   -24079757.687 7 -15738645.468 8
  20505216.384   -16940852.448 8 -19699014.823 9
  23801731.734   -33113150.481 5  -4686013.254 3
  24558178.167   -10844020.399 5  -4193316.255 2
  21144109.458   -24002692.907 9 -15639825.372 9
 94  2  7  5 39 30.0000000  0  8  9  4 13 12 24 20 16  5
  22011823.142    -9306280.771 7 -13424299.403 6
  21655131.394   -24900486.448 7 -15696170.840 7
  22511111.142   -22825668.475 7 -10628465.579 4
  21236906.975   -24052526.607 7 -15717426.471 8
  20505450.942   -16939626.370 8 -19698059.446 9
  23782922.695   -33212016.343 5  -4763051.596 3
  24540028.072   -10939431.872 5  -4267662.850 2
  21133024.602   -24060937.782 9 -15685211.010 9
 94  2  7  5 40  0.0000000  0  8  9  4 13 12 24 20 16  5
  22023558.608    -9244570.288 7 -13376213.348 6
  21667738.387   -24834247.990 7 -15644556.455 7
  22523003.489   -22763196.003 7 -10579785.761 4
  21242203.738   -24024695.903 7 -15695740.215 8
  20505781.283   -16937889.133 8 -19696705.733 9
  23764112.157   -33310811.084 5  -4840034.508 3
  24521861.369   -11034900.768 5  -4342054.144 2
  21122011.216   -24118827.159 9 -15730319.612 9
 94  2  7  5 40 30.0000000  0  8  9  4 13 12 24 20 16  5
  22035381.343    -9182471.172 7 -13327824.426 6
  21680402.939   -24767677.167 7 -15592683.080 7
  22534891.789   -22700691.656 7 -10531081.033 4
  21247614.602   -23996279.760 7 -15673597.780 8
  20506205.279   -16935668.460 8 -19694975.335 9
  23745317.689   -33409545.968 5  -4916970.776 3
  24503677.487   -11130468.170 5  -4416522.265 2
  21111060.307   -24176375.319 9 -15775162.326 9
 94  2  7  5 41  0.0000000  0  8  9  4 13 12 24 20 16  5
  22047268.414    -9119974.634 7 -13279125.829 6
  21693133.836   -24700769.503 8 -15540547.227 7
  22546796.907   -22638149.008 7 -10482346.505 4
  21253130.334   -23967271.350 7 -15650993.838 8
  20506716.815   -16932980.962 8 -19692881.170 9
  23726547.113   -33508211.388 5  -4993852.929 3
  24485477.417   -11226133.355 5  -4491066.535 2
  21100173.584   -24233586.076 9 -15819742.150 9
 94  2  7  5 41 30.0000000  0  8  9  4 13 12 24 20 16  5
  22059237.807    -9057077.511 7 -13230115.094 6
  21705928.289   -24633541.710 8 -15488161.930 7
  22558701.336   -22575573.255 7 -10433586.168 4
  21258766.912   -23937675.532 7 -15627932.186 8
  20507313.192   -16929818.734 8 -19690417.122 9
  23707783.943   -33606809.219 5  -5070682.414 3
  24467251.264   -11321894.302 5  -4565685.439 2
  21089347.449   -24290471.634 9 -15864068.558 9
 94  2  7  5 42  0.0000000  0  8  9  4 13 12 24 20 16  5
  22071292.582    -8993755.859 7 -13180773.556 6
  21718790.944   -24565965.549 8 -15435505.179 7
  22570618.326   -22512952.661 7 -10384790.939 4
  21264507.848   -23907479.874 7 -15604403.115 8
  20508012.458   -16926149.608 8 -19687558.042 9
  23689040.049   -33705324.479 6  -5147447.514 3
  24449009.343   -11417719.393 5  -4640354.353 2
  21078584.390   -24347028.109 9 -15908138.531 9
 94  2  7  5 42 30.0000000  0  8  9  4 13 12 24 20 16  5
  22083416.549    -8930022.311 7 -13131111.064 6
  21731712.838   -24498030.301 8 -15382568.616 7
  22582543.141   -22450291.673 7 -10335964.201 4
  21270367.351   -23876688.977 7 -15580410.220 8
  20508811.885   -16921970.534 8 -19684301.639 9
  23670311.534   -33803758.366 6  -5224149.309 3
  24430763.554   -11513588.908 5  -4715057.833 2
  21067882.758   -24403262.152 9 -15951957.270 9
 94  2  7  5 43  0.0000000  0  8  9  4 13 12 24 20 16  5
  22095617.802    -8865882.751 6 -13081132.166 6
  21744709.261   -24429745.615 8 -15329359.753 7
  22594467.835   -22387594.945 7 -10287109.608 4
  21276343.084   -23845306.896 7 -15555956.648 8
  20509701.999   -16917273.552 8 -19680641.635 9
  23651592.163   -33902112.199 6  -5300788.638 3
  24412518.215   -11609482.973 5  -4789780.510 2
  21057246.272   -24459177.732 9 -15995527.842 9
 94  2  7  5 43 30.0000000  0  8  9  4 13 12 24 20 16  5
  22107901.468    -8801345.562 7 -13030843.462 6
  21757772.088   -24361107.900 8 -15275875.810 7
  22606417.113   -22324859.949 7 -10238225.202 4
  21282430.370   -23813331.053 7 -15531040.413 8
  20510699.318   -16912031.698 8 -19676557.064 9
  23632893.059   -34000380.189 6  -5377361.112 3
  24394278.422   -11705384.816 5  -4864509.173 2
  21046663.958   -24514770.329 9 -16038846.749 9
 94  2  7  5 44  0.0000000  0  8  9  4 13 12 24 20 16  5
  22120256.275    -8736423.393 7 -12980254.761 6
  21770898.830   -24292115.168 7 -15222115.217 7
  22618358.446   -22262090.262 7 -10189313.771 4
  21288624.112   -23780764.391 7 -15505663.806 8
  20511797.188   -16906252.087 8 -19672053.460 9
  23614207.115   -34098562.490 6  -5453866.823 3
  24376025.169   -11801288.099 5  -4939238.979 2
  21036142.172   -24570052.467 9 -16081923.737 9
 94  2  7  5 44 30.0000000  0  8  9  4 13 12 24 20 16  5
  22132677.007    -8671135.723 6 -12929381.257 6
  21784096.384   -24222779.409 8 -15168087.361 7
  22630304.726   -22199285.172 7 -10140374.735 4
  21294936.452   -23747606.214 7 -15479826.270 8
  20513000.375   -16899952.084 8 -19667144.360 9
  23595543.655   -34196655.127 6  -5530302.589 3
  24357772.305   -11897189.801 5  -5013967.599 2
  21025684.332   -24625019.258 9 -16124754.990 9
 94  2  7  5 45  0.0000000  0  8  9  4 13 12 24 20 16  5
  22145174.665    -8605479.871 6 -12878220.840 6
  21797353.806   -24153105.856 7 -15113796.283 7
  22642264.257   -22136444.484 7 -10091407.983 4
  21301358.786   -23713856.222 7 -15453527.593 8
  20514296.258   -16893142.913 8 -19661838.514 9
  23576898.183   -34294654.700 6  -5606665.922 3
  24339529.874   -11993093.173 5  -5088697.481 2
  21015283.242   -24679661.980 9 -16167333.723 9
 94  2  7  5 45 30.0000000  0  8  9  4 13 12 24 20 16  5
  22157739.776    -8539461.056 7 -12826777.634 6
  21810671.936   -24083093.810 7 -15059241.445 7
  22654231.882   -22073567.415 7 -10042412.871 4
  21307890.514   -23679513.465 7 -15426767.028 8
  20515686.816   -16885832.398 8 -19656141.986 9
  23558263.564   -34392557.158 6  -5682953.544 3
  24321276.920   -12088999.434 5  -5163429.667 2
  21004952.484   -24733972.389 9 -16209653.514 9
 94  2  7  5 46  0.0000000  0  8  9  4 13 12 24 20 16  5
  22170366.884    -8473083.590 6 -12775054.907 6
  21824061.417   -24012754.664 7 -15004431.725 7
  22666205.083   -22010657.483 7  -9993392.147 4
  21314541.050   -23644581.405 7 -15399547.229 8
  20517169.259   -16878045.289 8 -19650074.090 9
  23539659.193   -34490362.626 6  -5759165.602 3
  24303030.562   -12184909.604 5  -5238164.834 2
  20994680.935   -24787945.041 9 -16251710.105 9
 94  2  7  5 46 30.0000000  0  8  9  4 13 12 24 20 16  5
  22183071.879    -8406346.681 7 -12723052.140 6
  21837503.661   -23942097.321 7 -14949374.056 7
  22678176.245   -21947723.862 7  -9944352.950 4
  21321300.081   -23609069.076 7 -15371875.295 8
  20518740.232   -16869799.093 8 -19643648.483 9
  23521053.863   -34588077.274 6  -5835306.914 3
  24284773.411   -12280836.860 5  -5312913.346 2
  20984477.558   -24841572.976 9 -16293498.110 9
 94  2  7  5 47  0.0000000  0  8  9  4 13 12 24 20 16  5
  22195840.220    -8339230.021 7 -12670753.459 6
  21851016.686   -23871113.372 8 -14894061.904 7
  22690160.928   -21884760.764 7  -9895290.807 4
  21328165.119   -23572970.754 7 -15343746.759 7
  20520396.345   -16861080.214 8 -19636854.549 9
  23502478.962   -34685691.725 6  -5911370.144 3
  24266509.665   -12376781.783 5  -5387675.606 2
  20974339.327   -24894834.911 9 -16335000.898 9
 94  2  7  5 47 30.0000000  0  8  9  4 13 12 24 20 16  5
  22208687.376    -8271734.226 7 -12618159.349 6
  21864578.337   -23799812.997 8 -14838503.177 7
  22702148.190   -21821767.896 7  -9846205.447 3
  21335147.944   -23536286.362 7 -15315161.523 7
  20522148.692   -16851878.185 8 -19629684.126 9
  23483930.024   -34783202.619 6  -5987352.666 3
  24248256.351   -12472740.711 5  -5462448.829 2
  20964276.853   -24947728.308 9 -16376216.531 9
 94  2  7  5 48  0.0000000  0  8  9  4 13 12 24 20 16  5
  22221601.326    -8203857.323 6 -12565268.256 5
  21878211.879   -23728197.349 8 -14782698.769 7
  22714141.027   -21758751.117 7  -9797101.488 3
  21342242.863   -23499021.578 7 -15286124.055 7
  20523987.019   -16842192.756 8 -19622137.019 9
  23465392.657   -34880612.389 6  -6063256.387 3
  24229984.631   -12568718.265 5  -5537236.486 2
  20954276.886   -25000263.499 9 -16417153.039 9
 94  2  7  5 48 30.0000000  0  8  9  4 13 12 24 20 16  5
  22234588.665    -8135602.202 7 -12512082.459 5
  21891897.555   -23656262.521 7 -14726645.654 7
  22726131.676   -21695714.365 7  -9747981.922 3
  21349443.218   -23461180.622 7 -15256637.601 7
  20525929.765   -16832007.599 8 -19614200.535 9
  23446876.485   -34977921.677 6  -6139081.788 3
  24211717.946   -12664719.658 5  -5612042.805 2
  20944349.109   -25052441.670 9 -16457811.354 9
 94  2  7  5 49  0.0000000  0  8  9  4 13 12 24 20 16  5
  22247651.551    -8066981.108 6 -12458611.491 5
  21905645.617   -23584022.642 7 -14670354.849 7
  22738128.441   -21632659.345 7  -9698848.141 3
  21356751.439   -23422765.115 7 -15226703.483 7
  20527962.357   -16821315.770 8 -19605869.227 9
  23428378.091   -35075128.914 6  -6214827.658 3
  24193442.029   -12760739.728 5  -5686863.645 2
  20934486.207   -25104261.462 9 -16498190.399 9
 94  2  7  5 49 30.0000000  0  8  9  4 13 12 24 20 16  5
  22260771.848    -7998008.798 7 -12404866.829 6
  21919452.199   -23511478.523 8 -14613826.967 7
  22750136.688   -21569584.515 7  -9649698.925 3
  21364171.752   -23383773.799 7 -15196320.634 7
  20530093.792   -16810121.756 8 -19597146.614 9
  23409897.415   -35172229.473 6  -6290490.480 3
  24175169.468   -12856769.261 5  -5761691.832 2
  20924694.655   -25155729.995 9 -16538295.753 9
 94  2  7  5 50  0.0000000  0  8  9  4 13 12 24 20 16  5
  22273967.843    -7928682.400 7 -12350846.276 5
  21933313.583   -23438605.606 7 -14557042.861 7
  22762139.809   -21506485.557 7  -9600530.916 3
  21371700.919   -23344202.821 7 -15165486.110 7
  20532319.811   -16798424.602 8 -19588031.944 9
  23391439.254   -35269215.785 6  -6366064.221 3
  24156898.227   -12952805.586 5  -5836525.346 2
  20914970.527   -25206836.228 9 -16578118.793 9
 94  2  7  5 50 30.0000000  0  8  9  4 13 12 24 20 16  5
  22287228.083    -7859007.254 7 -12296553.957 5
  21947243.709   -23365411.174 7 -14500008.255 7
  22774153.781   -21443362.314 7  -9551343.966 3
  21379338.342   -23304051.775 7 -15134199.603 7
  20534637.416   -16786223.737 8 -19578524.772 9
  23373005.465   -35366084.217 6  -6441546.107 3
  24138624.528   -13048841.584 5  -5911358.574 2
  20905316.371   -25257561.261 9 -16617644.795 9
 94  2  7  5 51  0.0000000  0  8  9  4 13 12 24 20 16  5
  22300540.667    -7789002.601 6 -12242004.882 5
  21961229.957   -23291922.544 7 -14442744.388 7
  22786171.022   -21380226.719 7  -9502147.393 3
  21387085.699   -23263333.335 7 -15102470.961 7
  20537057.311   -16773540.608 8 -19568641.805 9
  23354596.349   -35462843.742 6  -6516943.114 3
  24120349.330   -13144879.624 5  -5986193.400 2
  20895733.355   -25307919.629 9 -16656885.075 9
 94  2  7  5 51 30.0000000  0  8  9  4 13 12 24 20 16  5
  22313932.216    -7718660.363 7 -12187192.744 6
  21975274.454   -23218126.190 7 -14385240.703 7
  22798190.751   -21317071.909 7  -9452935.851 3
  21394944.818   -23222040.681 7 -15070294.886 7
  20539562.916   -16760361.045 8 -19558372.005 9
  23336206.870   -35559483.847 6  -6592247.037 3
  24102076.290   -13240913.008 5  -6061024.590 2
  20886218.542   -25357907.170 9 -16695836.400 9
 94  2  7  5 52  0.0000000  0  8  9  4 13 12 24 20 16  5
  22327381.505    -7647971.947 7 -12132110.883 5
  21989369.047   -23144047.256 7 -14327516.872 7
  22810204.454   -21253904.380 7  -9403714.435 3
  21402912.042   -23180180.837 7 -15037676.842 7
  20542163.226   -16746683.858 8 -19547714.470 9
  23317842.813   -35656008.001 6  -6667460.670 3
  24083802.530   -13336939.500 5  -6135850.446 2
  20876778.887   -25407526.104 9 -16734500.509 9
 94  2  7  5 52 30.0000000  0  8  9  4 13 12 24 20 16  5
  22340898.908    -7576937.115 6 -12076759.085 5
  22003518.981   -23069709.828 7 -14269591.598 7
  22822232.577   -21190723.385 7  -9354482.457 3
  21410986.353   -23137753.265 7 -15004616.409 7
  20544862.048   -16732517.206 8 -19536675.508 9
  23299495.485   -35752411.950 6  -6742580.584 3
  24065530.990   -13432943.622 5  -6210658.845 2
  20867405.036   -25456790.826 9 -16772888.599 9
 94  2  7  5 53  0.0000000  0  8  9  4 13 12 24 20 16  5
  22354485.682    -7505554.720 6 -12021136.463 5
  22017710.256   -22995104.962 7 -14211457.941 7
  22834252.006   -21127529.780 6  -9305240.691 3
  21419169.517   -23094759.517 7 -14971114.807 7
  20547649.039   -16717871.883 8 -19525263.571 9
  23281173.159   -35848693.774 6  -6817605.377 3
  24047267.033   -13528918.298 5  -6285444.310 2
  20858095.431   -25505712.633 9 -16811009.492 9
 94  2  7  5 53 30.0000000  0  8  9  4 13 12 24 20 16  5
  22368139.939    -7433811.195 6 -11965232.428 5
  22031963.769   -22920211.305 8 -14153099.228 7
  22846286.485   -21064317.290 7  -9255984.199 3
  21427458.269   -23051193.418 7 -14937167.208 7
  20550525.427   -16702755.138 8 -19513484.291 9
  23262874.877   -35944843.450 6  -6892527.160 3
  24029010.722   -13624854.951 5  -6360200.146 2
  20848852.800   -25554277.940 9 -16848852.582 9
 94  2  7  5 54  0.0000000  0  8  9  4 13 12 24 20 16  5
  22381850.797    -7361715.464 6 -11909053.947 5
  22046268.756   -22845025.459 7 -14094512.847 7
  22858315.537   -21001090.267 7  -9206716.378 3
  21435855.366   -23007060.213 7 -14902777.700 7
  20553489.445   -16687186.807 8 -19501353.112 9
  23244599.978   -36040862.329 6  -6967347.046 3
  24010766.762   -13720748.191 5  -6434922.169 2
  20839675.463   -25602486.113 9 -16886417.393 9
 94  2  7  5 54 30.0000000  0  8  9  4 13 12 24 20 16  5
  22395638.522    -7289284.416 6 -11852614.183 5
  22060639.487   -22769530.635 7 -14035685.706 7
  22870349.027   -20937856.498 7  -9157443.320 3
  21444356.491   -22962367.923 7 -14867952.571 7
  20556534.138   -16671173.995 8 -19488875.602 9
  23226361.445   -36136754.824 6  -7042068.467 3
  23992525.350   -13816604.122 5  -6509615.084 2
  20830571.935   -25650338.966 9 -16923705.336 9
 94  2  7  5 55  0.0000000  0  8  9  4 13 12 24 20 16  5
  22409487.675    -7216510.762 6 -11795907.447 5
  22075066.250   -22693711.286 7 -13976605.696 7
  22882392.619   -20874609.856 7  -9108160.189 3
  21452973.006   -22917111.273 7 -14832687.646 7
  20559667.239   -16654703.035 8 -19476041.093 9
  23208134.033   -36232511.778 6  -7116684.280 3
  23974288.316   -13912427.563 5  -6584282.716 2
  20821541.797   -25697796.597 9 -16960685.291 9
 94  2  7  5 55 30.0000000  0  8  9  4 13 12 24 20 16  5
  22423394.717    -7143420.152 6 -11738953.736 5
  22089551.382   -22617590.621 8 -13917290.887 7
  22894421.132   -20811359.903 7  -9058874.516 3
  21461691.960   -22871300.329 7 -14796990.833 7
  20562891.027   -16637775.155 8 -19462850.532 9
  23189934.982   -36328139.499 6  -7191199.334 3
  23956056.587   -14008237.277 5  -6658939.624 2
  20812588.495   -25744853.531 9 -16997353.031 9
 94  2  7  5 56  0.0000000  0  8  9  4 13 12 24 20 16  5
  22437361.508    -7070020.158 6 -11681758.943 5
  22104092.665   -22541177.855 8 -13857748.469 7
  22906453.063   -20748108.620 6  -9009587.795 3
  21470509.905   -22824937.746 7 -14760864.151 7
  20566202.744   -16620368.599 8 -19449286.971 9
  23171761.473   -36423636.702 6  -7265612.727 3
  23937823.630   -14104029.139 5  -6733582.637 2
  20803712.839   -25791504.366 9 -17033704.319 9
 94  2  7  5 56 30.0000000  0  8  9  4 13 12 24 20 16  5
  22451392.424    -6996304.003 6 -11624317.807 5
  22118685.513   -22464477.330 7 -13797981.816 7
  22918492.668   -20684850.449 6  -8960295.703 3
  21479444.350   -22778018.433 7 -14724303.680 7
  20569607.427   -16602471.386 8 -19435341.082 9
  23153620.102   -36518994.383 6  -7339917.440 3
  23919601.494   -14199797.425 5  -6808207.236 2
  20794911.922   -25837733.844 9 -17069727.288 9
 94  2  7  5 57  0.0000000  0  8  9  4 13 12 24 20 16  5
  22465479.462    -6922284.286 6 -11566640.106 5
  22133332.773   -22387503.955 7 -13738002.547 7
  22930536.200   -20621590.642 6  -8911002.320 3
  21488474.339   -22730548.508 7 -14687314.150 7
  20573102.557   -16584097.804 8 -19421024.011 9
  23135497.199   -36614214.707 6  -7414115.096 3
  23901380.708   -14295541.016 5  -6882812.637 2
  20786195.546   -25883544.078 9 -17105423.575 9
 94  2  7  5 57 30.0000000  0  8  9  4 13 12 24 20 16  5
  22479620.223    -6847967.600 6 -11508731.017 5
  22148037.413   -22310261.291 7 -13677813.459 6
  22942573.227   -20558329.747 6  -8861708.094 3
  21497611.593   -22682529.126 7 -14649896.471 7
  20576690.294   -16565248.583 8 -19406336.313 9
  23117405.113   -36709294.964 6  -7488203.600 3
  23883174.642   -14391240.761 5  -6957383.832 2
  20777552.590   -25928957.273 9 -17140810.484 9
 94  2  7  5 58  0.0000000  0  8  9  4 13 12 24 20 16  5
  22493820.252    -6773337.674 6 -11450577.863 5
  22162785.553   -22232744.389 7 -13617410.670 7
  22954608.125   -20495064.953 6  -8812410.825 3
  21506854.345   -22633958.674 7 -14612049.384 7
  20580368.987   -16545923.428 8 -19391277.745 9
  23099341.838   -36804229.473 6  -7562178.549 3
  23864972.293   -14486873.924 5  -7031903.178 2
  20768985.511   -25973970.462 9 -17175885.686 9
 94  2  7  5 58 30.0000000  0  8  9  4 13 12 24 20 16  5
  22508078.172    -6698400.695 6 -11392185.410 5
  22177584.927   -22154965.344 7 -13556803.626 6
  22966654.656   -20431799.343 7  -8763112.936 3
  21516200.944   -22584840.698 7 -14573775.671 7
  20584132.132   -16526142.783 8 -19375864.249 9
  23081307.373   -36899017.858 6  -7636039.615 3
  23846788.322   -14582440.299 5  -7106370.448 2
  20760495.178   -26018590.393 9 -17210654.464 9
 94  2  7  5 59  0.0000000  0  8  9  4 13 12 24 20 16  5
  22522401.896    -6623158.604 6 -11333555.231 5
  22192438.385   -22076919.062 7 -13495988.322 6
  22978684.548   -20368525.825 6  -8713808.901 3
  21525652.951   -22535169.279 7 -14535070.670 7
  20587987.253   -16505898.563 8 -19360089.528 9
  23063285.470   -36993650.192 6  -7709779.057 3
  23828619.460   -14677927.444 5  -7180776.005 2
  20752078.895   -26062817.538 9 -17245117.167 9
 94  2  7  5 59 30.0000000  0  8  9  4 13 12 24 20 16  5
  22536774.186    -6547621.295 6 -11274695.010 5
  22207338.879   -21998623.863 7 -13434979.048 6
  22990729.819   -20305256.115 6  -8664507.799 3
  21535211.713   -22484956.684 7 -14495944.000 7
  20591925.776   -16485198.593 8 -19343959.666 9
  23045312.582   -37088134.655 6  -7783403.318 3
  23810462.140   -14773346.250 5  -7255128.310 2
  20743735.940   -26106668.543 9 -17279286.777 9
 94  2  7  6  0  0.0000000  0  8  9  4 13 12 24 20 16  5
  22551203.347    -6471782.084 6 -11215599.536 5
  22222285.182   -21920078.940 7 -13373775.225 6
  23002768.345   -20241983.077 6  -8615204.141 3
  21544866.469   -22434196.720 7 -14456390.800 7
  20595951.210   -16464040.897 8 -19327473.148 9
  23027366.046   -37182460.988 6  -7856904.334 3
  23792314.503   -14868694.264 6  -7329425.398 3
  20735468.384   -26150123.448 9 -17313147.743 9
 94  2  7  6  0 30.0000000  0  8  9  4 13 12 24 20 16  5
  22565692.766    -6395654.547 6 -11156279.370 5
  22237279.392   -21841285.069 7 -13312377.375 6
  23014809.539   -20178711.376 6  -8565901.492 3
  21554630.110   -22382895.016 7 -14416415.463 7
  20600063.043   -16442423.973 8 -19310628.797 9
  23009443.344   -37276630.461 6  -7930283.109 3
  23774181.736   -14963985.917 5  -7403678.618 2
  20727270.769   -26193195.706 9 -17346710.540 9
 94  2  7  6  1  0.0000000  0  8  9  4 13 12 24 20 16  5
  22580230.002    -6319234.454 6 -11096731.255 5
  22252320.219   -21762236.198 7 -13250780.838 6
  23026848.065   -20115439.232 7  -8516598.516 3
  21564493.042   -22331050.997 7 -14376017.544 7
  20604265.054   -16420341.199 8 -19293421.425 9
  22991552.000   -37370638.297 6  -8003535.949 3
  23756067.976   -15059211.995 5  -7477880.731 3
  20719146.633   -26235878.136 9 -17379969.576 9
 94  2  7  6  1 30.0000000  0  8  9  4 13 12 24 20 16  5
  22594830.075    -6242520.736 6 -11036954.342 5
  22267407.604   -21682943.128 7 -13188993.999 6
  23038885.961   -20052169.965 6  -8467297.773 3
  21574461.471   -22278668.957 7 -14335200.393 7
  20608555.804   -16397803.846 8 -19275859.848 9
  22973701.068   -37464484.681 6  -8076662.977 4
  23737947.321   -15154370.515 5  -7552030.174 3
  20711101.313   -26278160.046 9 -17412916.502 9
 94  2  7  6  2  0.0000000  0  8  9  4 13 12 24 20 16  5
  22609486.568    -6165521.559 6 -10976955.001 5
  22282539.659   -21603411.918 7 -13127021.622 6
  23050924.547   -19988911.959 6  -8418005.775 3
  21584533.508   -22225758.100 7 -14293971.160 7
  20612928.127   -16374818.124 8 -19257948.894 9
  22955871.241   -37558174.629 6  -8149668.086 4
  23719857.994   -15249465.543 5  -7626130.203 3
  20703133.699   -26320037.532 9 -17445548.317 9
 94  2  7  6  2 30.0000000  0  8  9  4 13 12 24 20 16  5
  22624190.639    -6088241.423 6 -10916736.718 5
  22297721.539   -21523638.988 7 -13064860.895 6
  23062963.523   -19925662.825 6  -8368720.745 3
  21594701.869   -22172317.438 7 -14252329.125 7
  20617391.977   -16351377.626 8 -19239683.569 9
  22938073.192   -37651702.913 6  -8222547.263 4
  23701775.382   -15344487.402 5  -7700173.189 3
  20695240.823   -26361509.218 9 -17477863.914 9
 94  2  7  6  3  0.0000000  0  8  9  4 13 12 24 20 16  5
  22638947.833    -6010681.344 6 -10856300.272 5
  22312949.347   -21443633.690 7 -13002519.067 6
  23075001.989   -19862418.398 7  -8319439.360 3
  21604974.407   -22118343.626 7 -14210271.606 7
  20621933.562   -16327500.331 8 -19221077.871 9
  22920307.731   -37745061.876 6  -8295294.502 4
  23683708.870   -15439423.884 5  -7774149.604 3
  20687430.150   -26402558.113 9 -17509850.071 9
 94  2  7  6  3 30.0000000  0  8  9  4 13 12 24 20 16  5
  22653758.060    -5932854.671 6 -10795656.130 5
  22328218.676   -21363405.190 7 -12940003.357 6
  23087034.908   -19799178.664 6  -8270161.634 3
  21615346.477   -22063838.005 7 -14167799.710 7
  20626559.120   -16303184.766 8 -19202130.679 9
  22902573.838   -37838248.783 6  -8367907.655 3
  23665659.685   -15534272.935 5  -7848057.976 2
  20679700.421   -26443179.019 9 -17541502.711 9
 94  2  7  6  4  0.0000000  0  8  9  4 13 12 24 20 16  5
  22668619.102    -5854763.347 6 -10734805.774 5
  22343527.278   -21282947.067 7 -12877308.703 6
  23099067.648   -19735942.194 7  -8220886.457 3
  21625816.489   -22008800.370 7 -14124913.243 7
  20631271.708   -16278422.290 8 -19182835.239 9
  22884868.365   -37931258.733 6  -8440382.923 3
  23647624.560   -15629025.759 5  -7921891.286 2
  20672050.797   -26483370.688 9 -17572820.885 9
 94  2  7  6  4 30.0000000  0  8  9  4 13 12 24 20 16  5
  22683528.110    -5776417.980 6 -10673757.432 5
  22358881.568   -21202263.761 7 -12814438.578 6
  23111098.559   -19672712.143 6  -8171616.224 3
  21636393.047   -21953235.066 7 -14081615.632 7
  20636070.156   -16253222.953 8 -19163199.376 9
  22867205.673   -38024092.004 7  -8512720.524 3
  23629610.961   -15723679.979 6  -7995647.781 2
  20664485.924   -26523137.307 9 -17603807.848 9
 94  2  7  6  5  0.0000000  0  8  9  4 13 12 24 20 16  5
  22698483.797    -5697816.208 6 -10612509.309 5
  22374277.950   -21121362.405 7 -12751398.550 6
  23123127.822   -19609491.339 6  -8122353.286 3
  21647065.748   -21897146.030 7 -14037909.898 7
  20640946.730   -16227588.553 8 -19143224.525 9
  22849580.515   -38116747.689 6  -8584919.748 4
  23611630.249   -15818234.990 6  -8069326.980 2
  20656997.708   -26562475.310 9 -17634460.834 9
 94  2  7  6  5 30.0000000  0  8  9  4 13 12 24 20 16  5
  22713493.206    -5618956.448 6 -10551060.191 5
  22389713.964   -21040233.994 7 -12688181.584 6
  23135153.636   -19546284.949 6  -8073101.535 3
  21657837.801   -21840539.771 7 -13993801.145 7
  20645910.244   -16201503.639 8 -19122898.609 9
  22831974.183   -38209228.054 6  -8656982.343 4
  23593645.159   -15912699.326 6  -8142935.543 2
  20649593.464   -26601384.466 9 -17664779.659 9
 94  2  7  6  6  0.0000000  0  8  9  4 13 12 24 20 16  5
  22728545.905    -5539827.054 6 -10489400.941 5
  22405197.974   -20958860.786 7 -12624773.891 6
  23147186.346   -19483092.587 6  -8023860.729 3
  21668707.916   -21783417.463 7 -13949290.271 7
  20650958.389   -16174969.705 8 -19102222.808 9
  22814411.172   -38301529.819 6  -8728905.806 4
  23575686.962   -16007084.320 6  -8216482.264 2
  20642272.052   -26639868.054 9 -17694766.854 9
 94  2  7  6  6 30.0000000  0  8  9  4 13 12 24 20 16  5
  22743655.715    -5460422.083 6 -10427526.909 5
  22420730.521   -20877238.228 7 -12561171.877 6
  23159202.748   -19419909.117 6  -7974626.799 3
  21679677.472   -21725775.102 7 -13904374.164 7
  20656093.744   -16147987.155 8 -19081197.423 9
  22796880.448   -38393644.594 6  -8800683.525 4
  23557738.597   -16101400.092 6  -8289975.018 3
  20635029.037   -26677925.975 9 -17724422.361 9
 94  2  7  6  7  0.0000000  0  8  9  4 13 12 24 20 16  5
  22758823.654    -5380731.319 6 -10365430.221 5
  22436303.930   -20795364.993 7 -12497374.531 6
  23171224.275   -19356737.765 6  -7925402.361 3
  21690742.871   -21667617.280 7 -13859056.394 7
  20661313.280   -16120564.209 8 -19059828.898 9
  22779393.044   -38485572.410 6  -8872315.550 4
  23539802.674   -16195654.806 6  -8363420.211 2
  20627869.423   -26715554.931 9 -17753743.626 9
 94  2  7  6  7 30.0000000  0  8  9  4 13 12 24 20 16  5
  22774039.740    -5300768.232 6 -10303121.322 5
  22451937.417   -20713238.476 7 -12433379.820 6
  23183243.644   -19293586.301 6  -7876193.414 3
  21701907.712   -21608953.414 7 -13813344.301 7
  20666613.042   -16092720.159 8 -19038132.212 9
  22761932.892   -38577318.041 6  -8943805.650 4
  23521873.166   -16289853.044 6  -8436821.390 2
  20620788.475   -26752761.777 9 -17782735.959 9
 94  2  7  6  8  0.0000000  0  8  9  4 13 12 24 20 16  5
  22789307.211    -5220542.774 6 -10240608.000 4
  22467610.957   -20630877.438 7 -12369202.364 6
  23195259.776   -19230452.795 6  -7826998.505 2
  21713165.818   -21549782.674 7 -13767237.258 7
  20671985.532   -16064471.560 8 -19016120.314 9
  22744511.442   -38668876.450 6  -9015149.846 4
  23503972.558   -16383976.841 6  -8510164.616 2
  20613787.452   -26789548.932 9 -17811401.263 9
 94  2  7  6  8 30.0000000  0  8  9  4 13 12 24 20 16  5
  22804615.393    -5140062.694 6 -10177896.260 4
  22483329.285   -20548292.454 7 -12304850.409 6
  23207268.203   -19167329.771 6  -7777811.697 3
  21724526.004   -21490099.277 7 -13720730.724 7
  20677438.457   -16035816.986 8 -18993792.069 9
  22727125.279   -38760236.840 6  -9086339.742 4
  23486076.777   -16477993.566 6  -8583424.346 2
  20606872.859   -26825899.830 9 -17839726.633 9
 94  2  7  6  9  0.0000000  0  8  9  4 13 12 24 20 16  5
  22819983.744    -5059353.082 6 -10115005.668 4
  22499081.580   -20465500.188 7 -12240336.944 6
  23219275.460   -19104224.411 6  -7728638.630 3
  21735977.206   -21429912.057 7 -13673831.601 7
  20682966.360   -16006764.253 8 -18971153.574 9
  22709774.640   -38851403.627 6  -9157378.793 4
  23468210.226   -16571888.334 6  -8656589.061 2
  20600038.280   -26861811.521 9 -17867709.766 9
 94  2  7  6  9 30.0000000  0  8  9  4 13 12 24 20 16  5
  22835381.564    -4978429.305 6 -10051948.182 4
  22514867.542   -20382513.597 7 -12175672.064 6
  23231283.677   -19041130.008 6  -7679474.164 2
  21747529.139   -21369215.418 7 -13626535.535 7
  20688580.244   -15977291.241 8 -18948187.580 9
  22692467.831   -38942366.669 7  -9228259.068 4
  23450365.410   -16665641.701 6  -8729643.625 2
  20593287.164   -26897284.818 9 -17895351.293 9
 94  2  7  6 10  0.0000000  0  8  9  4 13 12 24 20 16  5
  22850820.186    -4897304.654 6  -9988734.171 4
  22530696.343   -20299349.831 7 -12110869.125 6
  23243289.226   -18978050.923 6  -7630321.632 2
  21759172.328   -21308015.530 7 -13578847.332 7
  20694265.628   -15947397.731 8 -18924893.929 9
  22675195.529   -39033127.289 7  -9298981.587 4
  23432559.986   -16759250.799 6  -8802585.740 2
  20586619.630   -26932318.417 9 -17922650.197 9
 94  2  7  6 10 30.0000000  0  8  9  4 13 12 24 20 16  5
  22866296.312    -4815971.906 6  -9925358.013 4
  22546556.504   -20216004.093 7 -12045924.356 6
  23255291.866   -18914992.324 6  -7581185.061 2
  21770914.330   -21246319.227 7 -13530772.304 7
  20700035.823   -15917073.298 8 -18901264.496 9
  22657958.602   -39123687.718 6  -9369548.123 4
  23414770.212   -16852716.027 6  -8875415.784 2
  20580037.207   -26966906.354 9 -17949601.828 9
 94  2  7  6 11  0.0000000  0  8  9  4 13 12 24 20 16  5
  22881818.067    -4734411.181 6  -9861804.177 4
  22562454.438   -20132465.012 7 -11980828.943 5
  23267284.854   -18851945.165 6  -7532057.387 2
  21782748.457   -21184119.105 7 -13482304.688 7
  20705894.128   -15886293.405 8 -18877280.159 9
  22640767.573   -39214035.653 7  -9439949.099 4
  23397006.519   -16946023.801 6  -8948123.099 2
  20573543.852   -27001038.962 9 -17976198.673 9
 94  2  7  6 11 30.0000000  0  8  9  4 13 12 24 20 16  5
  22897384.071    -4652607.784 6  -9798061.291 4
  22578391.375   -20048725.489 7 -11915577.360 5
  23279278.621   -18788914.255 6  -7482942.363 2
  21794681.996   -21121421.580 7 -13433449.491 7
  20711833.466   -15855061.542 8 -18852943.633 9
  22623614.588   -39304173.065 7  -9510186.019 4
  23379286.777   -17039179.295 6  -9020711.779 2
  20567134.319   -27034717.028 9 -18002441.312 9
 94  2  7  6 12  0.0000000  0  8  9  4 13 12 24 20 16  5
  22912995.194    -4570550.743 6  -9734120.743 4
  22594364.557   -19964769.612 7 -11850157.177 5
  23291271.338   -18725902.823 6  -7433842.522 2
  21806707.061   -21058231.464 7 -13384210.448 6
  20717862.053   -15823391.837 8 -18828265.936 9
  22606504.083   -39394100.023 7  -9580258.964 4
  23361590.927   -17132181.411 6  -9093180.923 2
  20560813.975   -27067935.032 9 -18028325.470 9
 94  2  7  6 12 30.0000000  0  8  9  4 13 12 24 20 16  5
  22928660.429    -4488239.509 6  -9669982.130 4
  22610384.417   -19880590.564 7 -11784563.121 5
  23303262.947   -18662909.005 6  -7384756.428 2
  21818824.312   -20994548.804 7 -13334587.610 6
  20723973.322   -15791277.754 8 -18803241.961 9
  22589435.669   -39483811.761 7  -9650164.190 4
  23343913.965   -17225026.067 6  -9165527.375 2
  20554575.833   -27100697.673 9 -18053854.796 9
 94  2  7  6 13  0.0000000  0  8  9  4 13 12 24 20 16  5
  22944366.076    -4405695.884 6  -9605662.405 4
  22626446.637   -19796198.190 7 -11718802.818 5
  23315242.384   -18599940.620 6  -7335690.171 2
  21831037.767   -20930383.240 7 -13284588.483 6
  20730163.526   -15758747.166 8 -18777893.440 9
  22572403.380   -39573312.842 7  -9719905.272 4
  23326278.344   -17317727.144 6  -9237762.006 2
  20548427.660   -27133022.333 9 -18079042.833 9
 94  2  7  6 13 30.0000000  0  8  9  4 13 12 24 20 16  5
  22960116.722    -4322927.587 6  -9541167.617 4
  22642543.214   -19711592.817 7 -11652876.525 5
  23327215.525   -18536994.453 6  -7286641.173 2
  21843337.982   -20865732.955 7 -13234211.645 6
  20736428.379   -15725820.225 8 -18752236.074 9
  22555408.895   -39662596.879 7  -9789477.262 4
  23308662.958   -17410299.488 6  -9309896.265 2
  20542360.280   -27164899.749 9 -18103882.375 9
 94  2  7  6 14  0.0000000  0  8  9  4 13 12 24 20 16  5
  22975909.699    -4239952.197 6  -9476511.486 4
  22658680.802   -19626799.333 7 -11586803.676 5
  23339186.747   -18474072.962 6  -7237611.448 3
  21855729.843   -20800602.223 7 -13183460.420 6
  20742770.309   -15692508.779 8 -18726279.103 9
  22538459.799   -39751663.292 7  -9858879.645 4
  23291072.906   -17502748.351 6  -9381934.313 2
  20536383.737   -27196328.295 9 -18128372.149 9
 94  2  7  6 14 30.0000000  0  8  9  4 13 12 24 20 16  5
  22991736.102    -4156780.029 6  -9411701.991 4
  22674848.819   -19541838.188 7 -11520600.170 5
  23351166.184   -18411174.920 6  -7188600.009 2
  21868217.908   -20734991.832 7 -13132335.451 6
  20749181.401   -15658817.319 8 -18700025.999 9
  22521556.121   -39840508.027 7  -9928109.303 4
  23273502.040   -17595081.856 6  -9453882.467 2
  20530486.670   -27227306.141 9 -18152510.714 9
 94  2  7  6 15  0.0000000  0  8  9  4 13 12 24 20 16  5
  23007601.389    -4073402.848 6  -9346732.769 4
  22691041.419   -19456716.253 7 -11454271.406 5
  23363120.348   -18348294.240 6  -7139602.068 2
  21880794.561   -20668897.843 7 -13080833.650 6
  20755662.884   -15624751.417 8 -18673481.135 9
  22504693.485   -39929122.009 7  -9997159.150 4
  23255947.932   -17687302.786 6  -9525742.917 2
  20524678.011   -27257819.870 9 -18176287.657 9
